[[{"header":{"parameterUnit":"m.s-1","parameterCategory":1,"la1":31.0,"la2":29.5877,"lo1":-88.7671,"lo2":-86.6584,"dy":0.0162,"dx":0.0185,"nx":115,"ny":88,"refTime":"2023-08-18T12:00:00:Z","depth":0,"parameterNumber":2,"parameterNumberName":"U-component_of_WINDS"},"data":[0.0,0.0,0.0,0.0,0.0,0.0,0.0,0.0,0.0,0.0,0.0,0.0,0.0,0.0,0.0,0.0,0.0,0.0,0.0,0.0,0.0,0.0,0.0,0.0,0.0,0.0,0.0,0.0,0.0,0.0,0.0,0.0,0.0,0.0,0.0,0.0,0.0,0.0,0.0,0.0,0.0,0.0,0.0,0.0,0.0,0.0,0.0,0.0,0.0,0.0,0.0,0.0,0.0,0.0,0.0,0.0,0.0,0.0,0.0,0.0,0.0,0.0,0.0,0.0,0.0,0.0,0.0,0.0,0.0,0.0,0.0,0.0,0.0,0.0,0.0,0.0,0.0,0.0,0.0,0.0,0.0,0.0,0.0,0.0,0.0,0.0,0.0,0.0,0.0,0.0,0.0,0.0,0.0,0.0,0.0,0.0,0.0,0.0,0.0,0.0,0.0,0.0,0.0,0.0,0.0,0.0,0.0,0.0,0.0,0.0,0.0,0.0,0.0,0.0,0.0,0.0,0.0,0.0,0.0,0.0,0.0,0.0,0.0,0.0,0.0,0.0,0.0,0.0,0.0,0.0,0.0,0.0,0.0,0.0,0.0,0.0,0.0,0.0,0.0,0.0,0.0,0.0,0.0,0.0,0.0,0.0,0.0,0.0,0.0,0.0,0.0,0.0,0.0,0.0,0.0,0.0,0.0,0.0,0.0,0.0,0.0,0.0,0.0,0.0,0.0,0.0,0.0,0.0,0.0,0.0,0.0,0.0,0.0,0.0,0.0,0.0,0.0,0.0,0.0,0.0,0.0,0.0,0.0,0.0,0.0,0.0,0.0,0.0,0.0,0.0,0.0,0.0,0.0,0.0,0.0,0.0,0.0,0.0,0.0,0.0,0.0,0.0,0.0,0.0,0.0,0.0,0.0,0.0,0.0,0.0,0.0,0.0,0.0,0.0,0.0,0.0,0.0,0.0,0.0,0.0,0.0,0.0,0.0,0.0,0.0,0.0,0.0,0.0,0.0,0.0,0.0,0.0,0.0,0.0,0.0,0.0,0.0,0.0,0.0,0.0,0.0,0.0,0.0,0.0,0.0,0.0,0.0,0.0,0.0,0.0,0.0,0.0,0.0,0.0,0.0,0.0,0.0,0.0,0.0,0.0,0.0,0.0,0.0,0.0,0.0,0.0,0.0,0.0,0.0,0.0,0.0,0.0,0.0,0.0,0.0,0.0,0.0,0.0,0.0,0.0,0.0,0.0,0.0,0.0,0.0,0.0,0.0,0.0,0.0,0.0,0.0,0.0,0.0,0.0,0.0,0.0,0.0,0.0,0.0,0.0,0.0,0.0,0.0,0.0,0.0,0.0,0.0,0.0,0.0,0.0,0.0,0.0,0.0,0.0,0.0,0.0,0.0,0.0,0.0,0.0,0.0,0.0,0.0,0.0,0.0,0.0,0.0,0.0,0.0,0.0,0.0,0.0,0.0,0.0,0.0,0.0,0.0,0.0,0.0,0.0,0.0,0.0,0.0,0.0,0.0,0.0,0.0,0.0,0.0,0.0,0.0,0.0,0.0,0.0,0.0,0.0,0.0,0.0,0.0,0.0,0.0,0.0,0.0,0.0,0.0,0.0,0.0,0.0,0.0,0.0,0.0,0.0,0.0,0.0,0.0,0.0,0.0,0.0,0.0,0.0,0.0,0.0,0.0,0.0,0.0,0.0,0.0,0.0,0.0,0.0,0.0,0.0,0.0,0.0,0.0,0.0,0.0,0.0,0.0,0.0,0.0,0.0,0.0,0.0,0.0,0.0,0.0,0.0,0.0,0.0,0.0,0.0,0.0,0.0,0.0,0.0,0.0,0.0,0.0,0.0,0.0,0.0,0.0,0.0,0.0,0.0,0.0,0.0,0.0,0.0,0.0,0.0,0.0,0.0,0.0,0.0,0.0,0.0,0.0,0.0,0.0,0.0,0.0,0.0,0.0,0.0,0.0,0.0,0.0,0.0,0.0,0.0,0.0,0.0,0.0,0.0,0.0,0.0,0.0,0.0,0.0,0.0,0.0,0.0,0.0,0.0,0.0,0.0,0.0,0.0,0.0,0.0,0.0,0.0,0.0,0.0,0.0,0.0,0.0,0.0,0.0,0.0,0.0,0.0,0.0,0.0,0.0,0.0,0.0,0.0,0.0,0.0,0.0,0.0,0.0,0.0,0.0,0.0,0.0,0.0,0.0,0.0,0.0,0.0,0.0,0.0,0.0,0.0,0.0,0.0,0.0,0.0,0.0,0.0,0.0,0.0,0.0,0.0,0.0,0.0,0.0,0.0,0.0,0.0,0.0,0.0,0.0,0.0,0.0,0.0,0.0,0.0,0.0,0.0,0.0,0.0,0.0,0.0,0.0,0.0,0.0,0.0,0.0,0.0,0.0,0.0,0.0,0.0,0.0,0.0,0.0,0.0,0.0,0.0,0.0,0.0,0.0,0.0,0.0,0.0,0.0,0.0,0.0,0.0,0.0,0.0,0.0,0.0,0.0,0.0,0.0,0.0,0.0,0.0,0.0,0.0,0.0,0.0,0.0,0.0,0.0,0.0,0.0,0.0,0.0,0.0,0.0,0.0,0.0,0.0,0.0,0.0,0.0,0.0,0.0,0.0,0.0,0.0,0.0,0.0,0.0,0.0,0.0,0.0,0.0,0.0,0.0,0.0,0.0,0.0,0.0,0.0,0.0,0.0,0.0,0.0,0.0,0.0,0.0,0.0,0.0,0.0,0.0,0.0,0.0,0.0,0.0,0.0,0.0,0.0,0.0,0.0,0.0,0.0,0.0,0.0,0.0,0.0,0.0,0.0,0.0,0.0,0.0,0.0,0.0,0.0,0.0,0.0,0.0,0.0,0.0,0.0,0.0,0.0,0.0,0.0,0.0,0.0,0.0,0.0,0.0,0.0,0.0,0.0,0.0,0.0,0.0,0.0,0.0,0.0,0.0,0.0,0.0,0.0,0.0,0.0,0.0,0.0,0.0,0.0,0.0,0.0,0.0,0.0,0.0,0.0,0.0,0.0,0.0,0.0,0.0,0.0,0.0,0.0,0.0,0.0,0.0,0.0,0.0,0.0,0.0,0.0,0.0,0.0,0.0,0.0,0.0,0.0,0.0,0.0,0.0,0.0,0.0,0.0,0.0,0.0,0.0,0.0,0.0,0.0,0.0,0.0,0.0,0.0,0.0,0.0,0.0,0.0,0.0,0.0,0.0,0.0,0.0,0.0,0.0,0.0,0.0,0.0,0.0,0.0,0.0,0.0,0.0,0.0,0.0,0.0,0.0,0.0,0.0,0.0,0.0,0.0,0.0,0.0,0.0,0.0,0.0,0.0,0.0,0.0,0.0,0.0,0.0,0.0,0.0,0.0,0.0,0.0,0.0,0.0,0.0,0.0,0.0,0.0,0.0,0.0,0.0,0.0,0.0,0.0,0.0,0.0,0.0,0.0,0.0,0.0,0.0,0.0,0.0,0.0,0.0,0.0,0.0,0.0,0.0,0.0,0.0,0.0,0.0,0.0,0.0,0.0,0.0,0.0,0.0,0.0,0.0,0.0,0.0,0.0,0.0,0.0,0.0,0.0,0.0,0.0,0.0,0.0,0.0,0.0,0.0,0.0,0.0,0.0,0.0,0.0,0.0,0.0,0.0,0.0,0.0,0.0,0.0,0.0,0.0,0.0,0.0,0.0,0.0,0.0,0.0,0.0,0.0,0.0,0.0,0.0,0.0,0.0,0.0,0.0,0.0,0.0,0.0,0.0,0.0,0.0,0.0,0.0,0.0,0.0,0.0,0.0,0.0,0.0,0.0,0.0,0.0,0.0,0.0,0.0,0.0,0.0,0.0,0.0,0.0,0.0,0.0,0.0,0.0,0.0,0.0,0.0,0.0,0.0,0.0,0.0,0.0,0.0,0.0,0.0,0.0,0.0,0.0,0.0,0.0,0.0,0.0,0.0,0.0,0.0,0.0,0.0,0.0,0.0,0.0,0.0,0.0,0.0,0.0,0.0,0.0,0.0,0.0,0.0,0.0,0.0,0.0,0.0,0.0,0.0,0.0,0.0,0.0,0.0,0.0,0.0,0.0,0.0,0.0,0.0,0.0,0.0,0.0,0.0,0.0,0.0,0.0,0.0,0.0,0.0,0.0,0.0,0.0,0.0,0.0,0.0,0.0,0.0,0.0,0.0,0.0,0.0,0.0,0.0,0.0,0.0,0.0,0.0,0.0,0.0,0.0,0.0,0.0,0.0,0.0,0.0,-3.9102,0.0,0.0,0.0,0.0,0.0,0.0,0.0,0.0,0.0,0.0,0.0,0.0,0.0,0.0,0.0,0.0,0.0,0.0,0.0,0.0,0.0,0.0,0.0,0.0,0.0,0.0,0.0,0.0,0.0,0.0,0.0,0.0,0.0,0.0,0.0,0.0,0.0,0.0,0.0,0.0,0.0,0.0,0.0,0.0,0.0,0.0,0.0,0.0,0.0,0.0,0.0,0.0,0.0,0.0,0.0,0.0,0.0,0.0,0.0,0.0,0.0,0.0,0.0,0.0,0.0,0.0,0.0,0.0,0.0,0.0,0.0,0.0,0.0,0.0,0.0,0.0,0.0,0.0,0.0,0.0,0.0,0.0,0.0,0.0,0.0,0.0,0.0,0.0,0.0,0.0,0.0,0.0,0.0,0.0,0.0,0.0,0.0,0.0,0.0,0.0,0.0,0.0,0.0,0.0,0.0,0.0,0.0,0.0,0.0,0.0,-3.9298,-3.9376,-3.937,-3.9337,-3.9251,0.0,0.0,0.0,0.0,0.0,0.0,0.0,0.0,0.0,0.0,0.0,0.0,0.0,0.0,0.0,0.0,0.0,0.0,0.0,0.0,0.0,0.0,0.0,0.0,0.0,0.0,0.0,0.0,0.0,0.0,0.0,0.0,0.0,0.0,0.0,0.0,0.0,0.0,0.0,0.0,0.0,0.0,0.0,0.0,0.0,0.0,0.0,0.0,0.0,0.0,0.0,0.0,0.0,0.0,0.0,0.0,0.0,0.0,0.0,0.0,0.0,0.0,0.0,0.0,0.0,0.0,0.0,0.0,0.0,0.0,0.0,0.0,0.0,0.0,0.0,0.0,0.0,0.0,0.0,0.0,0.0,0.0,0.0,0.0,0.0,0.0,0.0,0.0,0.0,0.0,0.0,0.0,0.0,0.0,0.0,0.0,0.0,0.0,0.0,0.0,0.0,0.0,0.0,0.0,0.0,0.0,0.0,0.0,0.0,0.0,0.0,0.0,-3.9045,-3.9045,-3.9045,0.0,0.0,0.0,0.0,0.0,0.0,0.0,0.0,0.0,0.0,0.0,0.0,0.0,0.0,0.0,0.0,0.0,0.0,0.0,0.0,0.0,0.0,0.0,0.0,0.0,0.0,0.0,0.0,0.0,0.0,0.0,0.0,0.0,0.0,0.0,0.0,0.0,0.0,0.0,0.0,0.0,0.0,0.0,0.0,0.0,0.0,0.0,0.0,0.0,0.0,0.0,0.0,0.0,0.0,0.0,0.0,0.0,0.0,0.0,0.0,0.0,0.0,0.0,0.0,0.0,0.0,0.0,0.0,0.0,0.0,0.0,0.0,0.0,0.0,0.0,0.0,0.0,0.0,0.0,0.0,0.0,0.0,0.0,0.0,0.0,0.0,0.0,0.0,0.0,0.0,0.0,0.0,0.0,0.0,0.0,0.0,0.0,0.0,0.0,0.0,0.0,0.0,0.0,0.0,0.0,0.0,0.0,0.0,0.0,0.0,-3.8925,-3.8906,-3.8906,0.0,-3.8869,0.0,0.0,0.0,0.0,0.0,0.0,0.0,0.0,0.0,0.0,0.0,0.0,0.0,0.0,0.0,0.0,0.0,0.0,0.0,0.0,0.0,0.0,0.0,0.0,0.0,0.0,0.0,0.0,0.0,0.0,0.0,0.0,0.0,0.0,0.0,0.0,0.0,0.0,0.0,0.0,0.0,0.0,0.0,0.0,0.0,0.0,0.0,0.0,0.0,0.0,0.0,0.0,0.0,0.0,0.0,0.0,0.0,0.0,0.0,0.0,0.0,0.0,0.0,0.0,0.0,0.0,0.0,0.0,0.0,0.0,0.0,0.0,0.0,0.0,0.0,0.0,0.0,0.0,0.0,0.0,0.0,0.0,0.0,0.0,0.0,0.0,0.0,0.0,0.0,0.0,0.0,0.0,0.0,0.0,0.0,0.0,0.0,0.0,0.0,0.0,0.0,0.0,0.0,0.0,0.0,0.0,0.0,0.0,0.0,0.0,-3.8634,-3.8725,-3.868,-3.8652,0.0,0.0,0.0,0.0,0.0,0.0,0.0,0.0,0.0,0.0,0.0,0.0,0.0,0.0,0.0,0.0,0.0,0.0,0.0,0.0,0.0,0.0,0.0,0.0,0.0,0.0,0.0,0.0,0.0,0.0,0.0,0.0,0.0,0.0,0.0,0.0,0.0,0.0,0.0,0.0,0.0,0.0,0.0,0.0,0.0,0.0,0.0,0.0,0.0,0.0,0.0,0.0,0.0,0.0,0.0,0.0,0.0,0.0,0.0,0.0,0.0,0.0,0.0,0.0,0.0,0.0,0.0,0.0,0.0,0.0,0.0,0.0,0.0,0.0,0.0,0.0,0.0,0.0,0.0,0.0,0.0,0.0,0.0,0.0,0.0,0.0,0.0,0.0,0.0,0.0,0.0,0.0,0.0,0.0,0.0,0.0,0.0,0.0,0.0,0.0,0.0,0.0,0.0,0.0,0.0,0.0,0.0,0.0,0.0,0.0,-3.8186,-3.8267,-3.8362,-3.8316,-3.8251,-3.8201,0.0,0.0,0.0,0.0,0.0,0.0,0.0,0.0,0.0,0.0,0.0,0.0,0.0,0.0,0.0,0.0,0.0,0.0,0.0,0.0,0.0,0.0,0.0,0.0,0.0,0.0,0.0,0.0,0.0,0.0,0.0,0.0,0.0,0.0,0.0,0.0,0.0,0.0,0.0,0.0,0.0,0.0,0.0,0.0,0.0,0.0,0.0,0.0,0.0,0.0,0.0,0.0,0.0,0.0,0.0,0.0,0.0,0.0,0.0,0.0,0.0,0.0,0.0,0.0,0.0,0.0,0.0,0.0,0.0,0.0,0.0,0.0,0.0,0.0,0.0,0.0,0.0,0.0,0.0,0.0,0.0,0.0,0.0,0.0,0.0,0.0,0.0,0.0,0.0,0.0,0.0,0.0,0.0,0.0,0.0,0.0,0.0,0.0,0.0,0.0,0.0,0.0,0.0,0.0,0.0,0.0,0.0,0.0,-3.7809,-3.7774,-3.7774,-3.7844,-3.7774,-3.7739,0.0,0.0,0.0,0.0,0.0,0.0,0.0,0.0,0.0,0.0,0.0,0.0,0.0,0.0,0.0,0.0,0.0,0.0,0.0,0.0,0.0,0.0,0.0,0.0,0.0,0.0,0.0,0.0,0.0,0.0,0.0,0.0,0.0,0.0,0.0,0.0,0.0,0.0,0.0,0.0,0.0,0.0,0.0,0.0,0.0,0.0,0.0,0.0,0.0,0.0,0.0,0.0,0.0,0.0,0.0,0.0,0.0,0.0,0.0,0.0,0.0,0.0,0.0,0.0,0.0,0.0,0.0,0.0,0.0,0.0,0.0,0.0,0.0,0.0,0.0,0.0,0.0,0.0,0.0,0.0,0.0,0.0,0.0,0.0,0.0,0.0,0.0,0.0,0.0,0.0,0.0,0.0,0.0,0.0,0.0,0.0,0.0,0.0,0.0,0.0,0.0,0.0,0.0,0.0,0.0,0.0,0.0,0.0,0.0,-3.728,-3.7338,-3.7394,-3.7413,-3.7356,-3.7299,0.0,0.0,0.0,0.0,0.0,0.0,0.0,0.0,0.0,0.0,0.0,0.0,0.0,0.0,0.0,0.0,0.0,0.0,0.0,0.0,0.0,0.0,0.0,0.0,0.0,0.0,0.0,0.0,0.0,0.0,0.0,0.0,0.0,0.0,0.0,0.0,0.0,0.0,0.0,0.0,0.0,0.0,0.0,0.0,0.0,0.0,0.0,0.0,0.0,0.0,0.0,0.0,0.0,0.0,0.0,0.0,0.0,0.0,0.0,0.0,0.0,0.0,0.0,0.0,0.0,0.0,0.0,0.0,0.0,0.0,0.0,0.0,0.0,0.0,0.0,0.0,0.0,0.0,0.0,0.0,0.0,0.0,0.0,0.0,0.0,0.0,0.0,0.0,0.0,0.0,0.0,0.0,0.0,0.0,0.0,0.0,0.0,0.0,0.0,0.0,0.0,0.0,0.0,0.0,0.0,0.0,0.0,0.0,0.0,-3.6849,0.0,-3.7052,-3.705,-3.6952,-3.6873,0.0,0.0,0.0,0.0,0.0,0.0,0.0,0.0,0.0,0.0,0.0,0.0,0.0,0.0,0.0,0.0,0.0,0.0,0.0,0.0,0.0,0.0,0.0,0.0,0.0,0.0,0.0,0.0,0.0,0.0,0.0,0.0,0.0,0.0,0.0,0.0,0.0,0.0,0.0,0.0,0.0,0.0,0.0,0.0,0.0,0.0,0.0,0.0,0.0,0.0,0.0,0.0,0.0,0.0,0.0,0.0,0.0,0.0,0.0,0.0,0.0,0.0,0.0,0.0,0.0,0.0,0.0,0.0,0.0,0.0,0.0,0.0,0.0,0.0,0.0,0.0,0.0,0.0,0.0,0.0,0.0,0.0,0.0,0.0,0.0,0.0,0.0,0.0,0.0,0.0,0.0,0.0,0.0,0.0,0.0,0.0,0.0,0.0,0.0,0.0,0.0,0.0,0.0,0.0,0.0,0.0,0.0,0.0,-3.6327,-3.652,-3.6742,-3.6803,-3.6702,-3.6564,-3.6502,0.0,0.0,0.0,0.0,0.0,0.0,0.0,0.0,0.0,0.0,0.0,0.0,0.0,0.0,0.0,0.0,0.0,0.0,0.0,0.0,0.0,0.0,0.0,0.0,0.0,0.0,0.0,0.0,0.0,0.0,0.0,0.0,0.0,0.0,0.0,0.0,0.0,0.0,0.0,0.0,0.0,0.0,0.0,0.0,0.0,0.0,0.0,0.0,0.0,0.0,0.0,0.0,0.0,0.0,0.0,0.0,0.0,0.0,0.0,0.0,0.0,0.0,0.0,0.0,0.0,0.0,0.0,0.0,0.0,0.0,0.0,0.0,0.0,0.0,0.0,0.0,0.0,0.0,0.0,0.0,0.0,0.0,0.0,0.0,0.0,0.0,0.0,0.0,0.0,0.0,0.0,0.0,0.0,0.0,0.0,0.0,0.0,0.0,0.0,0.0,0.0,0.0,0.0,0.0,0.0,0.0,0.0,0.0,0.0,-3.7176,-3.7257,-3.7018,-3.6457,-3.6381,-3.6623,0.0,0.0,0.0,0.0,0.0,0.0,0.0,0.0,0.0,0.0,0.0,0.0,0.0,0.0,0.0,0.0,0.0,0.0,0.0,0.0,0.0,0.0,0.0,0.0,0.0,0.0,0.0,0.0,0.0,0.0,0.0,0.0,0.0,0.0,0.0,0.0,0.0,0.0,0.0,0.0,0.0,0.0,0.0,0.0,0.0,0.0,0.0,0.0,0.0,0.0,0.0,0.0,0.0,0.0,0.0,0.0,0.0,0.0,0.0,0.0,0.0,0.0,0.0,0.0,0.0,0.0,0.0,0.0,0.0,0.0,0.0,0.0,0.0,0.0,0.0,0.0,0.0,0.0,0.0,0.0,0.0,0.0,0.0,0.0,0.0,0.0,0.0,0.0,0.0,0.0,0.0,0.0,0.0,0.0,0.0,0.0,0.0,0.0,0.0,0.0,0.0,0.0,0.0,0.0,0.0,0.0,0.0,0.0,0.0,-3.8184,-3.7909,-3.7394,-3.6603,-3.6603,-3.6706,-3.6917,0.0,0.0,0.0,0.0,0.0,0.0,0.0,0.0,0.0,0.0,0.0,0.0,0.0,0.0,0.0,0.0,0.0,0.0,0.0,0.0,0.0,0.0,0.0,0.0,0.0,0.0,0.0,0.0,0.0,0.0,0.0,0.0,0.0,0.0,0.0,0.0,0.0,0.0,0.0,0.0,0.0,0.0,0.0,0.0,0.0,0.0,0.0,0.0,0.0,0.0,0.0,0.0,0.0,0.0,0.0,0.0,0.0,0.0,0.0,0.0,0.0,0.0,0.0,0.0,0.0,0.0,0.0,0.0,0.0,0.0,0.0,0.0,0.0,0.0,0.0,0.0,0.0,0.0,0.0,0.0,0.0,0.0,0.0,0.0,0.0,0.0,0.0,0.0,0.0,0.0,0.0,0.0,0.0,0.0,0.0,0.0,0.0,0.0,0.0,0.0,0.0,0.0,0.0,0.0,0.0,0.0,0.0,0.0,-3.9395,-3.8615,-3.7842,-3.7121,-3.7075,-3.6734,0.0,0.0,0.0,0.0,0.0,0.0,0.0,0.0,0.0,0.0,0.0,0.0,0.0,0.0,0.0,0.0,0.0,0.0,0.0,0.0,0.0,0.0,0.0,0.0,0.0,0.0,0.0,0.0,0.0,0.0,0.0,0.0,0.0,0.0,0.0,0.0,0.0,0.0,0.0,0.0,0.0,0.0,0.0,0.0,0.0,0.0,0.0,0.0,0.0,0.0,0.0,0.0,0.0,0.0,0.0,0.0,0.0,0.0,0.0,0.0,0.0,0.0,0.0,0.0,0.0,0.0,0.0,0.0,0.0,0.0,0.0,0.0,0.0,0.0,0.0,0.0,0.0,0.0,0.0,0.0,0.0,0.0,0.0,0.0,0.0,0.0,0.0,0.0,0.0,0.0,0.0,0.0,0.0,0.0,0.0,0.0,0.0,0.0,0.0,0.0,0.0,0.0,0.0,0.0,0.0,0.0,0.0,0.0,0.0,-3.9206,-3.8629,-3.7954,-3.7263,-3.6969,-3.678,0.0,0.0,0.0,0.0,0.0,0.0,0.0,0.0,0.0,0.0,0.0,0.0,0.0,0.0,0.0,0.0,0.0,0.0,0.0,0.0,0.0,0.0,0.0,0.0,0.0,0.0,0.0,0.0,0.0,0.0,0.0,0.0,0.0,0.0,0.0,0.0,0.0,0.0,0.0,0.0,0.0,0.0,0.0,0.0,0.0,0.0,0.0,0.0,0.0,0.0,0.0,0.0,0.0,0.0,0.0,0.0,0.0,0.0,0.0,0.0,0.0,0.0,0.0,0.0,0.0,0.0,0.0,0.0,0.0,0.0,0.0,0.0,0.0,0.0,0.0,0.0,0.0,0.0,0.0,0.0,0.0,0.0,0.0,0.0,0.0,0.0,0.0,0.0,0.0,0.0,0.0,0.0,0.0,0.0,0.0,0.0,0.0,0.0,0.0,0.0,0.0,0.0,0.0,0.0,0.0,0.0,0.0,0.0,-3.8589,-3.9017,-3.8546,-3.8001,-3.7361,-3.6903,-3.6563,0.0,0.0,0.0,0.0,0.0,0.0,0.0,0.0,0.0,0.0,0.0,0.0,0.0,0.0,0.0,0.0,0.0,0.0,0.0,0.0,0.0,0.0,0.0,0.0,0.0,0.0,0.0,0.0,0.0,0.0,0.0,0.0,0.0,0.0,0.0,0.0,0.0,0.0,0.0,0.0,0.0,0.0,0.0,0.0,0.0,0.0,0.0,0.0,0.0,0.0,0.0,0.0,0.0,0.0,0.0,0.0,0.0,0.0,0.0,0.0,0.0,0.0,0.0,0.0,0.0,0.0,0.0,0.0,0.0,0.0,0.0,0.0,0.0,0.0,0.0,0.0,0.0,0.0,0.0,0.0,0.0,0.0,0.0,0.0,0.0,0.0,0.0,0.0,0.0,0.0,0.0,0.0,0.0,0.0,0.0,0.0,0.0,0.0,0.0,0.0,0.0,0.0,0.0,0.0,0.0,0.0,0.0,0.0,-3.865,-3.865,-3.8282,-3.7838,-3.731,-3.6825,-3.6228,0.0,0.0,0.0,0.0,0.0,0.0,0.0,0.0,0.0,0.0,0.0,0.0,0.0,0.0,0.0,0.0,0.0,0.0,0.0,0.0,0.0,0.0,0.0,0.0,0.0,0.0,0.0,0.0,0.0,0.0,0.0,0.0,0.0,0.0,0.0,0.0,0.0,0.0,0.0,0.0,0.0,0.0,0.0,0.0,0.0,0.0,0.0,0.0,0.0,0.0,0.0,0.0,0.0,0.0,0.0,0.0,0.0,0.0,0.0,0.0,0.0,0.0,0.0,0.0,0.0,0.0,0.0,0.0,0.0,0.0,0.0,0.0,0.0,0.0,0.0,0.0,0.0,0.0,0.0,0.0,0.0,0.0,0.0,0.0,0.0,0.0,0.0,0.0,0.0,0.0,0.0,0.0,0.0,0.0,0.0,0.0,0.0,0.0,0.0,0.0,0.0,0.0,0.0,0.0,0.0,0.0,0.0,0.0,-3.7796,-3.7695,-3.7148,-3.6831,-3.6693,-3.6438,-3.5954,0.0,0.0,0.0,0.0,0.0,0.0,0.0,0.0,0.0,0.0,0.0,0.0,0.0,0.0,0.0,0.0,0.0,0.0,0.0,0.0,0.0,0.0,0.0,0.0,0.0,0.0,0.0,0.0,0.0,0.0,0.0,0.0,0.0,0.0,0.0,0.0,0.0,0.0,0.0,0.0,0.0,0.0,0.0,0.0,0.0,0.0,0.0,0.0,-2.9233,0.0,0.0,0.0,0.0,0.0,0.0,0.0,0.0,0.0,0.0,0.0,0.0,0.0,0.0,0.0,0.0,0.0,0.0,0.0,0.0,0.0,0.0,0.0,0.0,0.0,0.0,0.0,0.0,0.0,0.0,0.0,0.0,0.0,0.0,0.0,0.0,0.0,0.0,0.0,0.0,0.0,0.0,0.0,0.0,0.0,0.0,0.0,0.0,0.0,0.0,0.0,0.0,0.0,0.0,0.0,0.0,0.0,0.0,0.0,-3.7342,-3.7194,-3.677,-3.6492,-3.6492,-3.6216,-3.5763,0.0,0.0,0.0,0.0,0.0,0.0,0.0,0.0,0.0,0.0,0.0,0.0,0.0,0.0,0.0,0.0,0.0,0.0,0.0,0.0,0.0,0.0,0.0,0.0,0.0,0.0,0.0,0.0,0.0,0.0,0.0,0.0,0.0,0.0,0.0,0.0,0.0,0.0,0.0,0.0,0.0,0.0,0.0,0.0,0.0,0.0,0.0,0.0,0.0,0.0,0.0,0.0,0.0,0.0,0.0,0.0,0.0,0.0,0.0,0.0,0.0,0.0,0.0,0.0,0.0,0.0,0.0,0.0,0.0,0.0,0.0,0.0,0.0,0.0,0.0,0.0,0.0,0.0,0.0,0.0,0.0,0.0,0.0,0.0,0.0,0.0,0.0,0.0,0.0,0.0,0.0,0.0,0.0,0.0,0.0,0.0,0.0,0.0,0.0,0.0,0.0,0.0,0.0,0.0,0.0,0.0,0.0,-3.7224,-3.7089,-3.6908,-3.6647,-3.6492,-3.6492,-3.6196,-3.5767,-3.5256,0.0,0.0,0.0,0.0,0.0,0.0,0.0,0.0,0.0,0.0,0.0,0.0,0.0,0.0,0.0,0.0,0.0,0.0,0.0,0.0,0.0,0.0,0.0,0.0,0.0,0.0,0.0,0.0,0.0,0.0,0.0,0.0,0.0,0.0,0.0,0.0,0.0,0.0,-2.9958,-2.9958,0.0,0.0,0.0,0.0,0.0,0.0,0.0,0.0,-2.9775,0.0,0.0,0.0,0.0,0.0,0.0,0.0,0.0,0.0,0.0,0.0,0.0,0.0,0.0,0.0,0.0,0.0,0.0,0.0,0.0,0.0,0.0,0.0,0.0,0.0,0.0,0.0,0.0,0.0,0.0,0.0,0.0,0.0,0.0,0.0,0.0,0.0,0.0,0.0,0.0,0.0,0.0,0.0,0.0,0.0,0.0,0.0,0.0,0.0,0.0,0.0,0.0,0.0,0.0,0.0,0.0,-3.709,-3.703,-3.6862,-3.6585,-3.6523,-3.6492,-3.6492,-3.6554,-3.6318,-3.5767,0.0,0.0,0.0,0.0,0.0,0.0,0.0,0.0,0.0,0.0,0.0,0.0,0.0,0.0,0.0,0.0,0.0,0.0,0.0,0.0,0.0,0.0,0.0,0.0,0.0,0.0,0.0,0.0,0.0,0.0,0.0,0.0,0.0,0.0,0.0,0.0,0.0,0.0,0.0,-2.9415,-2.9352,0.0,0.0,0.0,0.0,0.0,0.0,0.0,0.0,-2.9418,0.0,0.0,0.0,0.0,0.0,0.0,0.0,0.0,0.0,0.0,0.0,0.0,0.0,0.0,0.0,0.0,0.0,0.0,0.0,0.0,0.0,0.0,0.0,0.0,0.0,0.0,0.0,0.0,0.0,0.0,0.0,0.0,0.0,0.0,0.0,0.0,0.0,0.0,0.0,0.0,0.0,0.0,0.0,0.0,0.0,0.0,0.0,0.0,0.0,0.0,0.0,0.0,0.0,0.0,0.0,-3.7015,-3.6892,-3.6739,-3.6492,-3.6492,-3.6492,-3.6492,-3.6631,-3.6352,0.0,0.0,0.0,0.0,0.0,0.0,0.0,0.0,0.0,0.0,0.0,0.0,0.0,0.0,0.0,0.0,0.0,0.0,0.0,0.0,0.0,0.0,0.0,0.0,0.0,0.0,0.0,0.0,0.0,0.0,0.0,0.0,0.0,0.0,0.0,0.0,0.0,0.0,0.0,0.0,-2.8912,-2.8912,-2.8495,0.0,0.0,0.0,0.0,0.0,0.0,-2.8592,-2.856,0.0,0.0,0.0,0.0,0.0,0.0,0.0,0.0,0.0,0.0,0.0,0.0,0.0,0.0,0.0,0.0,0.0,0.0,0.0,0.0,0.0,0.0,0.0,0.0,0.0,0.0,0.0,0.0,0.0,0.0,0.0,0.0,0.0,0.0,0.0,0.0,0.0,0.0,0.0,0.0,0.0,0.0,0.0,0.0,0.0,0.0,0.0,0.0,0.0,0.0,0.0,0.0,0.0,0.0,0.0,-3.7015,-3.68,-3.6631,-3.6492,-3.6492,-3.6492,-3.6492,-3.6616,-3.6353,0.0,0.0,0.0,0.0,0.0,0.0,0.0,0.0,0.0,0.0,0.0,0.0,0.0,0.0,0.0,0.0,0.0,0.0,0.0,0.0,0.0,0.0,0.0,0.0,0.0,0.0,0.0,0.0,0.0,0.0,0.0,0.0,0.0,0.0,0.0,0.0,0.0,0.0,0.0,0.0,0.0,-2.8403,-2.8157,-2.8059,0.0,0.0,0.0,0.0,-2.7822,-2.7855,0.0,0.0,0.0,0.0,0.0,0.0,0.0,0.0,0.0,0.0,0.0,0.0,0.0,0.0,0.0,0.0,0.0,0.0,0.0,0.0,0.0,0.0,0.0,0.0,0.0,0.0,0.0,0.0,0.0,0.0,0.0,0.0,0.0,0.0,0.0,0.0,0.0,0.0,0.0,0.0,0.0,0.0,0.0,0.0,0.0,0.0,0.0,0.0,0.0,0.0,0.0,0.0,0.0,0.0,0.0,0.0,-3.7015,-3.68,-3.6616,-3.6523,-3.6492,-3.6492,-3.6492,-3.6631,-3.6585,0.0,0.0,0.0,0.0,0.0,0.0,0.0,0.0,0.0,0.0,0.0,0.0,0.0,0.0,0.0,0.0,0.0,0.0,0.0,0.0,0.0,0.0,0.0,0.0,0.0,0.0,0.0,0.0,0.0,0.0,0.0,0.0,0.0,0.0,0.0,0.0,0.0,0.0,0.0,0.0,0.0,-2.7438,-2.7577,-2.7162,-2.7061,0.0,0.0,-2.7822,-2.7822,-2.7967,0.0,0.0,0.0,0.0,0.0,0.0,0.0,0.0,0.0,0.0,0.0,0.0,0.0,0.0,0.0,0.0,0.0,0.0,0.0,0.0,0.0,0.0,0.0,0.0,0.0,0.0,0.0,0.0,0.0,0.0,0.0,0.0,0.0,0.0,0.0,0.0,0.0,0.0,0.0,0.0,0.0,0.0,0.0,0.0,0.0,0.0,0.0,0.0,0.0,0.0,0.0,0.0,0.0,0.0,0.0,-3.6892,-3.6831,-3.6677,-3.6554,-3.6492,-3.6492,-3.6492,-3.6492,-3.6631,-3.6538,0.0,0.0,0.0,0.0,0.0,0.0,0.0,0.0,0.0,0.0,0.0,0.0,0.0,0.0,0.0,0.0,0.0,0.0,0.0,0.0,0.0,0.0,0.0,0.0,0.0,0.0,0.0,0.0,0.0,0.0,0.0,0.0,0.0,0.0,0.0,0.0,0.0,0.0,0.0,0.0,0.0,0.0,-2.6722,-2.6697,0.0,0.0,0.0,-2.6994,-2.6994,0.0,0.0,0.0,0.0,0.0,0.0,0.0,0.0,0.0,0.0,0.0,0.0,0.0,0.0,0.0,0.0,0.0,0.0,0.0,0.0,0.0,0.0,0.0,0.0,0.0,0.0,0.0,0.0,0.0,0.0,0.0,0.0,0.0,0.0,0.0,0.0,0.0,0.0,0.0,0.0,0.0,0.0,0.0,0.0,0.0,0.0,0.0,0.0,0.0,0.0,0.0,0.0,0.0,0.0,0.0,0.0,0.0,-3.6693,-3.6585,-3.6492,-3.6492,-3.6492,-3.6492,-3.6492,-3.66,0.0,0.0,0.0,0.0,0.0,0.0,0.0,0.0,0.0,0.0,0.0,0.0,0.0,0.0,0.0,0.0,0.0,0.0,0.0,0.0,0.0,0.0,0.0,0.0,0.0,0.0,0.0,-2.9275,0.0,0.0,0.0,0.0,0.0,0.0,0.0,0.0,0.0,0.0,0.0,0.0,0.0,0.0,-2.6148,-2.6057,-2.6057,-2.5906,0.0,0.0,-2.6104,-2.607,-2.5511,-2.5516,0.0,0.0,0.0,0.0,0.0,0.0,0.0,0.0,0.0,0.0,0.0,0.0,0.0,0.0,0.0,0.0,0.0,0.0,0.0,0.0,0.0,0.0,0.0,0.0,0.0,0.0,0.0,0.0,0.0,0.0,0.0,0.0,0.0,0.0,0.0,0.0,0.0,0.0,0.0,0.0,0.0,0.0,0.0,0.0,0.0,0.0,0.0,0.0,0.0,0.0,0.0,0.0,0.0,0.0,0.0,-3.6693,-3.6585,-3.6492,-3.6492,-3.6492,-3.6492,-3.6492,-3.6507,-3.6336,0.0,0.0,0.0,0.0,0.0,0.0,0.0,0.0,0.0,0.0,0.0,0.0,0.0,0.0,0.0,0.0,0.0,0.0,0.0,0.0,0.0,0.0,0.0,0.0,0.0,0.0,0.0,0.0,0.0,0.0,0.0,0.0,0.0,0.0,0.0,0.0,0.0,0.0,0.0,0.0,0.0,-2.5099,-2.5814,-2.5028,-2.4539,0.0,0.0,-2.53,-2.5123,-2.5194,-2.5492,-2.6082,0.0,0.0,0.0,0.0,0.0,0.0,0.0,0.0,0.0,0.0,0.0,0.0,0.0,0.0,0.0,0.0,0.0,0.0,0.0,0.0,0.0,0.0,0.0,0.0,0.0,0.0,0.0,0.0,0.0,0.0,0.0,0.0,0.0,0.0,0.0,0.0,0.0,0.0,0.0,0.0,0.0,0.0,0.0,0.0,0.0,0.0,0.0,0.0,0.0,0.0,0.0,0.0,0.0,-3.6585,-3.6585,-3.6523,-3.6292,-3.5922,-3.5861,-3.5691,-3.5275,-3.5275,-3.5155,0.0,0.0,0.0,0.0,0.0,0.0,0.0,0.0,0.0,0.0,0.0,0.0,0.0,0.0,0.0,0.0,0.0,0.0,0.0,0.0,0.0,0.0,0.0,0.0,0.0,0.0,0.0,0.0,-2.755,-2.7027,-2.6926,0.0,0.0,0.0,0.0,0.0,0.0,0.0,0.0,0.0,0.0,-2.4647,-2.4515,-2.4299,0.0,0.0,-2.4288,-2.4681,-2.5093,-2.4784,-2.4998,-2.6191,-2.601,0.0,0.0,0.0,0.0,0.0,0.0,0.0,0.0,0.0,0.0,0.0,0.0,0.0,0.0,0.0,0.0,0.0,0.0,0.0,0.0,0.0,0.0,0.0,0.0,0.0,0.0,0.0,0.0,0.0,0.0,0.0,0.0,0.0,0.0,0.0,0.0,0.0,0.0,0.0,0.0,0.0,0.0,0.0,0.0,0.0,0.0,0.0,0.0,0.0,0.0,0.0,0.0,-3.5984,-3.6107,-3.5999,-3.566,-3.5183,-3.5213,-3.4982,-3.452,-3.4489,-3.4401,0.0,0.0,0.0,0.0,0.0,0.0,0.0,0.0,0.0,0.0,0.0,0.0,0.0,0.0,0.0,0.0,0.0,0.0,0.0,0.0,0.0,0.0,0.0,0.0,0.0,0.0,0.0,0.0,-2.7002,-2.6355,-2.6255,0.0,0.0,0.0,0.0,0.0,0.0,0.0,0.0,0.0,0.0,-2.4236,-2.3931,-2.4079,-2.4135,-2.3869,-2.4157,-2.4568,-2.502,-2.4606,-2.462,-2.5847,0.0,0.0,0.0,0.0,0.0,0.0,0.0,0.0,0.0,0.0,0.0,0.0,0.0,0.0,0.0,0.0,0.0,0.0,0.0,0.0,0.0,0.0,0.0,0.0,0.0,0.0,0.0,0.0,0.0,0.0,-3.4497,0.0,0.0,0.0,0.0,0.0,0.0,0.0,0.0,0.0,0.0,0.0,0.0,0.0,0.0,0.0,0.0,0.0,0.0,0.0,0.0,0.0,0.0,-3.4801,-3.5202,-3.4831,-3.4551,-3.452,-3.4536,-3.4489,-3.4459,-3.4474,-3.4386,-3.4163,0.0,0.0,0.0,0.0,0.0,0.0,0.0,0.0,0.0,0.0,0.0,0.0,0.0,0.0,0.0,0.0,0.0,0.0,0.0,0.0,0.0,0.0,0.0,0.0,0.0,0.0,-2.6994,-2.6654,-2.6289,0.0,0.0,0.0,0.0,0.0,0.0,0.0,0.0,0.0,0.0,-2.4007,-2.3883,-2.4484,-2.445,-2.4516,-2.4937,-2.5054,-2.4999,-2.4842,-2.4651,-2.4544,0.0,0.0,0.0,0.0,0.0,0.0,0.0,0.0,0.0,0.0,0.0,0.0,0.0,0.0,0.0,0.0,0.0,0.0,0.0,0.0,0.0,0.0,0.0,0.0,0.0,0.0,0.0,-3.5728,-3.5639,0.0,0.0,0.0,0.0,0.0,0.0,0.0,0.0,0.0,0.0,0.0,-3.2398,-3.2398,0.0,0.0,0.0,0.0,0.0,0.0,0.0,0.0,0.0,0.0,0.0,0.0,-3.5109,-3.5369,-3.4814,-3.4274,-3.3783,-3.3752,-3.3537,-3.3134,-3.309,-3.309,-3.299,0.0,0.0,0.0,0.0,0.0,0.0,0.0,0.0,0.0,0.0,0.0,0.0,0.0,0.0,0.0,0.0,0.0,0.0,0.0,0.0,0.0,0.0,0.0,0.0,0.0,-2.6217,0.0,0.0,0.0,0.0,0.0,0.0,0.0,0.0,0.0,0.0,0.0,-2.449,-2.4152,-2.4317,-2.4468,-2.4499,-2.4574,-2.4626,0.0,0.0,0.0,0.0,0.0,0.0,0.0,0.0,0.0,0.0,0.0,0.0,0.0,0.0,-2.478,-2.478,-2.4161,-2.3747,-2.386,0.0,0.0,0.0,0.0,0.0,0.0,0.0,0.0,0.0,0.0,0.0,0.0,0.0,0.0,-3.5795,0.0,-3.5293,0.0,0.0,0.0,0.0,0.0,0.0,0.0,0.0,-3.2496,-3.2453,-3.2398,-3.2398,-3.2398,0.0,-3.2398,-3.2398,0.0,0.0,0.0,0.0,0.0,0.0,0.0,0.0,-3.4741,-3.5,-3.4185,-3.3521,-3.3075,-3.3059,-3.2844,-3.2413,-3.2398,-3.2398,-3.2398,-3.2274,-3.2191,0.0,0.0,0.0,0.0,0.0,0.0,0.0,0.0,0.0,0.0,0.0,0.0,0.0,0.0,0.0,0.0,0.0,0.0,0.0,0.0,0.0,0.0,0.0,-2.5699,0.0,0.0,0.0,0.0,0.0,0.0,0.0,0.0,0.0,-2.4499,-2.4495,-2.4416,-2.411,-2.4393,-2.4683,-2.488,0.0,0.0,0.0,0.0,0.0,0.0,0.0,-2.5381,-2.5382,-2.5495,-2.5396,-2.4767,-2.4574,-2.4388,-2.405,0.0,0.0,-2.4454,-2.3962,-2.3552,-2.3628,-2.3523,-2.3477,-2.3574,-2.3531,-2.3482,0.0,0.0,0.0,0.0,0.0,0.0,0.0,0.0,-3.5997,-3.58,0.0,-3.5667,0.0,0.0,0.0,0.0,0.0,-3.2621,0.0,0.0,-3.2594,-3.2523,-3.2398,-3.2398,-3.2398,-3.2398,-3.2398,-3.2398,-3.2398,-3.2398,0.0,0.0,0.0,0.0,0.0,0.0,-3.3666,-3.4131,-3.3064,-3.2398,-3.2413,-3.2413,-3.2398,-3.2398,-3.2398,-3.2398,-3.2398,-3.2259,-3.2191,-3.2191,-3.194,0.0,0.0,0.0,0.0,0.0,0.0,0.0,0.0,0.0,0.0,0.0,0.0,0.0,0.0,0.0,0.0,0.0,0.0,0.0,0.0,-2.6611,0.0,0.0,0.0,0.0,0.0,0.0,0.0,0.0,0.0,0.0,-2.4361,-2.4451,-2.4559,-2.4419,0.0,0.0,0.0,0.0,-2.5232,-2.6326,-2.6299,-2.6121,-2.6088,-2.556,-2.5051,-2.4574,0.0,0.0,-2.3694,-2.4126,-2.441,-2.4432,-2.4006,-2.3864,-2.4334,-2.4355,-2.4412,-2.4586,-2.4084,-2.3799,-2.3946,-2.3585,-2.3298,-3.6388,0.0,0.0,0.0,0.0,-3.6171,-3.5997,-3.6161,-3.6144,-3.6062,-3.5971,-3.5739,0.0,0.0,0.0,0.0,0.0,0.0,-3.2605,-3.2578,-3.2496,-3.2425,-3.2398,-3.2398,-3.2398,-3.2398,-3.2398,-3.2398,-3.2398,-3.2398,-3.2736,-3.3413,0.0,0.0,0.0,0.0,-3.3853,-3.3618,-3.2816,-3.2398,-3.2398,-3.2398,-3.2398,-3.2398,-3.2398,-3.2398,-3.2398,-3.237,-3.2302,-3.2191,-3.2122,0.0,0.0,0.0,0.0,0.0,0.0,0.0,0.0,0.0,0.0,0.0,0.0,0.0,0.0,0.0,0.0,0.0,0.0,0.0,-2.6092,-2.5699,-2.5587,0.0,0.0,0.0,0.0,0.0,0.0,0.0,0.0,0.0,-2.4435,-2.4823,-2.5102,0.0,0.0,-2.5605,-2.5788,-2.5538,-2.5296,-2.5309,-2.5121,0.0,-2.4489,-2.4581,-2.4639,-2.4508,-2.4061,-2.3733,-2.3733,-2.3558,-2.3427,-2.3449,-2.3307,-2.3263,-2.3383,-2.3427,-2.3465,-2.3481,-2.3334,-2.322,-2.3273,-2.32,-2.3113,-3.6466,-3.6735,-3.6224,-3.6275,-3.6691,-3.6268,-3.6144,-3.6251,-3.6251,-3.6187,-3.6122,-3.5958,-3.5661,-3.5253,-3.4616,0.0,0.0,0.0,-3.2773,-3.2718,-3.2648,-3.2508,-3.2398,-3.2398,-3.2398,-3.2398,-3.2398,-3.2398,-3.2398,-3.2342,-3.268,-3.337,0.0,0.0,-3.4474,-3.408,-3.3742,-3.3398,-3.2736,-3.2398,-3.2398,-3.2398,-3.2398,-3.2398,-3.2398,-3.2398,-3.2398,-3.2398,-3.2385,-3.2259,-3.2247,-3.2051,0.0,0.0,0.0,0.0,0.0,0.0,0.0,0.0,0.0,0.0,0.0,-2.9099,-2.8812,0.0,0.0,0.0,-2.7424,-2.6614,-2.5803,-2.5985,0.0,0.0,0.0,0.0,0.0,0.0,0.0,-2.5747,-2.5488,-2.5142,-2.4745,-2.5008,-2.5132,-2.4748,-2.5049,-2.5335,-2.5378,0.0,-2.4761,-2.4673,-2.4594,-2.4388,-2.4093,-2.429,-2.4526,-2.4526,-2.4246,-2.4039,-2.4017,-2.3585,-2.3307,-2.3274,-2.3132,-2.3001,-2.3001,-2.3001,-2.3001,-2.3001,-2.3001,-2.3001,-2.3001,-2.3001,-2.3001,-3.637,-3.6301,-3.6088,-3.6101,-3.6187,-3.6204,-3.6251,-3.6284,-3.6284,-3.6195,-3.6041,-3.6216,-3.5985,-3.5424,-3.4529,0.0,-3.3256,-3.3176,-3.3069,-3.2897,-3.2897,-3.2703,-3.241,-3.2398,-3.2398,-3.2398,-3.2398,-3.2398,-3.2382,-3.2274,-3.2627,-3.3398,-3.3398,-3.3752,-3.4428,-3.3842,-3.346,-3.3383,-3.2798,-3.2459,-3.2398,-3.2398,-3.2398,-3.2398,-3.2398,-3.2398,-3.2398,-3.2398,-3.2398,-3.2398,-3.2259,-3.2079,-3.1781,0.0,0.0,0.0,0.0,0.0,0.0,0.0,0.0,0.0,0.0,0.0,0.0,0.0,0.0,0.0,-2.7563,0.0,-2.6263,-2.6846,0.0,0.0,0.0,-2.5616,-2.5116,-2.4796,-2.4805,-2.5331,0.0,0.0,-2.5015,-2.5015,-2.477,-2.411,-2.411,-2.4321,-2.4703,-2.4188,-2.3897,-2.4384,-2.4388,-2.4355,-2.4224,-2.4323,-2.441,-2.4465,-2.4526,-2.4443,-2.4355,-2.4028,-2.3705,-2.3575,-2.3296,-2.3001,-2.3001,-2.3001,-2.3001,-2.3001,-2.3001,-2.3001,-2.3001,-2.3001,-2.3001,-3.6997,-3.6444,-3.6297,-3.6255,-3.628,-3.6297,-3.628,-3.6284,-3.6284,-3.6259,-3.6237,-3.628,-3.6216,-3.6049,-3.5481,-3.4911,-3.4374,-3.386,-3.3419,-3.3058,-3.28,-3.2621,-3.2551,-3.2453,-3.2398,-3.2398,-3.2398,-3.2398,-3.2398,-3.237,-3.2708,-3.3367,-3.3398,-3.3767,-3.4459,-3.4335,-3.3937,-3.3398,-3.3244,-3.2906,-3.2413,-3.2398,-3.2398,-3.2398,-3.2398,-3.2398,-3.2398,-3.2398,-3.2398,-3.2398,-3.237,-3.2315,-3.2231,-3.1552,0.0,0.0,0.0,0.0,0.0,0.0,0.0,0.0,0.0,-2.894,-2.8876,0.0,-2.843,0.0,-2.7486,-2.628,-2.487,-2.518,0.0,0.0,-2.5308,-2.5321,-2.5589,-2.4937,-2.4637,-2.5121,-2.4692,-2.4353,-2.4342,-2.4353,-2.4088,-2.3376,-2.404,-2.4597,-2.4572,-2.4088,-2.3727,-2.3853,-2.3613,-2.3362,-2.3438,-2.3667,-2.4082,-2.4432,-2.4537,-2.4355,-2.3973,-2.382,-2.3575,-2.3263,-2.3088,-2.3001,-2.3001,-2.3001,-2.3001,-2.3001,-2.3001,-2.3001,-2.3001,-2.3001,-2.3001,-3.7902,-3.7387,-3.7016,-3.6818,-3.6801,-3.6439,-3.6284,-3.6284,-3.6284,-3.6284,-3.6284,-3.6284,-3.6178,-3.5985,-3.5722,-3.5207,-3.4488,-3.4118,-3.3617,-3.3005,-3.28,-3.2648,-3.2523,-3.2425,-3.2398,-3.2398,-3.2398,-3.2398,-3.2398,-3.2398,-3.2598,-3.2952,-3.2952,-3.3306,-3.3983,-3.4351,-3.4305,-3.3891,-3.3567,-3.3075,-3.2428,-3.2398,-3.2536,-3.2813,-3.2552,-3.2536,-3.2829,-3.2552,-3.237,-3.2315,-3.2247,-3.2247,-3.2287,-3.1768,-3.1292,0.0,0.0,0.0,0.0,0.0,0.0,0.0,0.0,0.0,0.0,0.0,-2.7914,-2.7317,-2.671,-2.5875,-2.4804,-2.5355,-2.5594,-2.5061,-2.5073,-2.4995,-2.46,-2.4239,-2.4071,-2.4149,-2.3846,-2.3616,-2.3605,-2.3605,-2.3468,-2.3034,-2.3585,-2.3963,-2.3848,-2.3569,-2.3367,-2.3346,-2.3176,-2.3176,-2.3569,-2.4061,-2.453,-2.5,-2.512,-2.4945,-2.4476,-2.4192,-2.3908,-2.3438,-2.3143,-2.3001,-2.3001,-2.3001,-2.3001,-2.3001,-2.3001,-2.3001,-2.3001,-2.3001,-2.3001,-3.8854,-3.8614,-3.7931,-3.765,-3.762,-3.6887,-3.6473,-3.6284,-3.6284,-3.6284,-3.6284,-3.6284,-3.6071,-3.5683,-3.5683,-3.5184,-3.4308,-3.4234,-3.3771,-3.3043,-3.2978,-3.2773,-3.2508,-3.248,-3.2453,-3.2453,-3.2468,-3.2468,-3.2453,-3.2453,-3.2471,-3.2548,-3.2536,-3.2859,-3.3537,-3.4152,-3.4489,-3.4489,-3.3767,-3.3121,-3.2552,-3.2521,-3.2798,-3.3336,-3.2752,-3.2659,-3.3229,-3.2705,-3.2342,-3.2219,-3.2122,-3.2094,-3.2219,-3.2066,-3.1668,0.0,-3.116,0.0,0.0,0.0,0.0,0.0,0.0,0.0,0.0,-2.8281,-2.733,-2.5767,-2.5792,-2.573,-2.5265,-2.6134,-2.6117,-2.4751,-2.4857,-2.4525,-2.3205,-2.3298,-2.3409,-2.3038,-2.3001,-2.3001,-2.3023,-2.3001,-2.3001,-2.3001,-2.3034,-2.3137,-2.3034,-2.3045,-2.3034,-2.3001,-2.3001,-2.3307,-2.4192,-2.48,-2.5196,-2.571,-2.583,-2.571,-2.5098,-2.4705,-2.429,-2.3684,-2.3252,-2.3012,-2.3001,-2.3001,-2.3001,-2.3001,-2.3001,-2.3001,-2.3001,-2.3001,-2.3001,-3.9608,-3.8994,-3.8677,-3.8559,-3.852,-3.8276,-3.7456,-3.6301,-3.6284,-3.6284,-3.6284,-3.6284,-3.6259,-3.6156,-3.6174,-3.5859,-3.5299,-3.4857,-3.4391,-3.3848,-3.3309,-3.3043,-3.2962,-3.2854,-3.2816,-3.28,-3.2816,-3.28,-3.28,-3.2648,-3.2857,-3.3426,-3.3285,-3.3567,-3.4258,0.0,0.0,0.0,-3.3767,-3.3336,-3.3229,-3.3198,-3.3275,-3.3383,-3.2752,0.0,-3.2567,-3.2475,-3.2398,-3.237,-3.2342,0.0,0.0,0.0,0.0,0.0,0.0,0.0,0.0,0.0,0.0,0.0,-2.8812,-2.8844,-2.878,-2.8216,-2.7276,-2.6002,-2.5891,-2.5634,-2.4967,-2.5085,-2.4855,-2.3946,-2.3886,-2.3657,-2.3075,-2.3075,-2.3075,-2.3038,-2.3001,-2.3001,-2.3001,-2.3001,-2.3001,-2.3001,-2.3001,-2.3001,-2.3001,-2.3001,-2.3001,-2.3001,-2.3012,-2.3383,-2.4344,-2.4563,-2.5,-2.5644,-2.5895,-2.5557,-2.4825,-2.4563,-2.4148,-2.3351,-2.3056,-2.3001,-2.3001,-2.3001,-2.3001,-2.3001,-2.3001,-2.3001,-2.3001,-2.3001,-2.3001,-4.083,0.0,-3.9638,-3.9299,0.0,-3.8772,-3.7961,-3.6887,-3.6887,-3.6663,-3.6284,-3.6284,-3.6284,-3.6284,-3.6284,-3.6049,-3.5594,-3.5305,-3.4745,-3.3942,-3.3601,-3.3293,-3.3005,-3.2924,-3.2912,-3.2912,-3.2912,-3.2912,-3.2912,-3.2816,-3.2889,-3.3144,-3.3076,-3.3147,-3.3429,-3.3473,-3.3614,-3.3937,-3.3598,-3.3244,-3.2921,-3.2921,-3.3059,-3.3383,-3.2752,0.0,0.0,0.0,0.0,0.0,0.0,0.0,0.0,0.0,0.0,-3.1263,-3.0718,-3.0085,-2.9373,-2.9022,-2.8812,-2.8716,-2.8683,-2.8619,-2.843,-2.7417,-2.6424,-2.5571,-2.504,-2.4539,-2.4007,-2.4091,-2.3959,-2.3409,-2.3494,-2.3446,-2.3113,-2.3187,-2.3224,-2.3038,-2.3001,-2.3001,-2.3001,-2.3187,-2.3187,-2.3038,-2.3187,-2.3224,-2.3038,-2.3001,-2.3001,-2.3012,-2.323,-2.3525,-2.4028,-2.4574,-2.4923,-2.5426,-2.5546,-2.5262,-2.4607,-2.4279,-2.3864,-2.3165,-2.3001,-2.3001,-2.3001,-2.3001,-2.3001,-2.3001,-2.3001,-2.3001,-2.3001,-2.3001,-2.3001,-4.2035,-4.181,-4.0736,-4.0202,-4.0042,-3.9323,-3.8513,-3.7685,0.0,0.0,0.0,-3.6284,-3.6284,-3.6284,-3.6284,-3.6092,-3.5705,-3.5655,-3.5058,-3.4119,-3.4011,-3.3662,-3.3123,-3.3112,-3.3058,-3.2978,-3.2951,-3.2978,-3.2951,-3.2951,-3.2827,-3.2703,-3.2691,-3.2594,-3.2496,-3.2468,-3.273,-3.3298,-3.3365,-3.3136,-3.2598,-3.2567,-3.2844,-3.3383,-3.2752,-3.2659,-3.3183,-3.269,-3.2342,-3.2247,-3.2137,-3.2122,-3.2219,-3.2122,-3.201,-3.1896,-3.1292,-3.0628,-2.995,-2.9341,-2.8876,-2.8619,-2.8587,-2.8425,-2.8006,-2.6833,-2.5836,-2.5182,-2.4383,-2.374,-2.3261,-2.3494,-2.3567,-2.315,-2.3409,-2.3446,-2.3187,-2.3383,-2.3482,-2.3261,-2.3261,-2.3224,-2.3261,-2.353,-2.3556,-2.3261,-2.3372,-2.3446,-2.3113,-2.3001,-2.3001,-2.3023,-2.3263,-2.3553,-2.3782,-2.4312,-2.4902,-2.5051,-2.5054,-2.4891,-2.4443,-2.3978,-2.3531,-2.3099,-2.3001,-2.3001,-2.3001,-2.3001,-2.3001,-2.3001,-2.3001,-2.3001,-2.3001,-2.3001,-2.3001,-4.2658,-4.26,-4.1973,-4.1662,-4.1551,-4.1005,-3.9876,-3.8353,-3.7042,-3.6404,-3.6284,-3.6284,-3.6284,-3.6284,-3.6284,-3.6262,-3.6174,-3.5788,-3.5504,-3.5328,-3.4887,-3.4399,-3.3949,-3.3924,-3.3684,-3.3282,-3.3256,-3.3229,-3.3229,-3.3123,-3.3043,-3.3032,-3.2924,-3.2827,-3.2816,-3.2648,-3.2695,-3.2956,-3.3249,-3.3367,-3.326,-3.3275,-3.329,-3.3352,-3.2736,-3.2428,-3.2521,-3.2459,-3.2382,-3.237,-3.2342,-3.2327,-3.237,-3.2342,-3.2104,-3.161,-3.0955,-3.0269,-2.9597,-2.9008,-2.8651,-2.8619,-2.8587,-2.8392,-2.7888,-2.7477,-2.679,-2.5674,-2.5229,-2.4778,-2.4152,-2.4043,-2.3934,-2.3593,-2.3556,-2.3593,-2.3519,-2.3567,-2.3703,-2.3934,-2.4043,-2.4007,-2.397,-2.408,-2.397,-2.3641,-2.3556,-2.3446,-2.3113,-2.3001,-2.3001,-2.3001,-2.3056,-2.3237,-2.3564,-2.376,-2.4159,-2.4519,-2.4585,-2.4432,-2.3984,-2.3777,-2.3514,-2.3088,-2.3001,-2.3001,-2.3001,-2.3001,-2.3001,-2.3001,-2.3001,-2.3001,-2.3001,-2.3001,-2.3001,-4.3069,-4.2978,-4.2542,-4.216,-4.1807,-4.0446,-3.9363,-3.8479,-3.6956,-3.6284,-3.6284,-3.6284,-3.6284,-3.6284,-3.6284,-3.6284,-3.628,-3.6071,-3.5854,-3.5594,-3.5345,-3.4958,-3.4513,-3.4472,-3.4218,-3.3745,-3.3745,-3.3581,-3.3309,-3.3256,-3.3176,-3.3096,-3.2966,-3.2912,-3.2885,-3.2816,-3.28,-3.2912,-3.2943,-3.2987,-3.2959,-3.2943,-3.2915,-3.2859,-3.2552,-3.2398,-3.2398,-3.2398,-3.2398,-3.2398,-3.2398,-3.2398,-3.2398,-3.2398,-3.2272,-3.1992,-3.1378,-3.0748,-3.0086,-2.9166,-2.8587,-2.8587,-2.8587,-2.8522,-2.8262,-2.765,-2.6981,-2.6102,-2.5487,-2.4886,-2.4261,-2.4189,-2.4116,-2.3945,-2.3934,-2.3934,-2.3934,-2.3934,-2.4018,-2.4152,-2.4189,-2.4189,-2.4189,-2.4381,-2.4381,-2.4007,-2.3787,-2.3446,-2.3075,-2.3001,-2.3001,-2.3001,-2.3001,-2.3078,-2.3307,-2.3542,-2.376,-2.405,-2.4071,-2.3984,-2.3733,-2.3558,-2.3263,-2.3056,-2.3001,-2.3001,-2.3001,-2.3001,-2.3001,-2.3001,-2.3001,-2.3001,-2.3001,-2.3001,-2.3139,-4.3474,-4.3352,-4.2941,-4.2413,-4.1638,-3.9746,-3.8795,-3.8356,-3.6934,-3.6284,-3.6284,-3.6284,-3.6284,-3.6284,-3.6284,-3.6284,-3.6284,-3.6284,-3.6092,-3.5771,-3.5749,-3.5481,-3.5021,-3.4981,-3.4738,-3.4308,-3.4259,-3.4034,-3.3694,-3.3529,-3.3346,-3.315,-3.3032,-3.2978,-3.2978,-3.2951,-3.2951,-3.2978,-3.2827,-3.2703,-3.2648,-3.2621,-3.2566,-3.2437,-3.2425,-3.2398,-3.2398,-3.2398,-3.2398,-3.2398,-3.2398,-3.2398,-3.2398,-3.2398,-3.2398,-3.237,-3.1823,-3.116,-3.0299,-2.9373,-2.8734,-2.8587,-2.8587,-2.8587,-2.8554,-2.7947,-2.7258,-2.6603,-2.5928,-2.5182,-2.4575,-2.4394,-2.4334,-2.4225,-2.4189,-2.4236,-2.4309,-2.4345,-2.4381,-2.4406,-2.4431,-2.4467,-2.4514,-2.4694,-2.4742,-2.4381,-2.3982,-2.3593,-2.3224,-2.315,-2.3124,-2.3038,-2.3001,-2.3012,-2.3023,-2.3285,-2.3476,-2.3531,-2.352,-2.3547,-2.3471,-2.322,-2.3034,-2.3001,-2.3001,-2.3001,-2.3001,-2.3001,-2.3001,-2.3001,-2.3001,-2.3001,-2.3001,-2.3213,-2.3412,-4.3923,-4.3857,-4.3491,-4.2596,-4.1369,-3.9942,-3.8933,-3.8126,-3.6859,-3.6284,-3.6322,-3.6284,-3.6301,-3.6284,-3.6284,-3.6284,-3.6284,-3.6284,-3.6262,-3.6237,-3.6237,-3.5985,-3.5532,-3.5526,-3.5237,-3.4769,-3.4738,-3.469,-3.4569,-3.4193,-3.3771,-3.3319,-3.3282,-3.3256,-3.3229,-3.3123,-3.315,-3.3256,-3.3123,-3.3005,-3.287,-3.2691,-3.2594,-3.2594,-3.2453,-3.2398,-3.2398,-3.2398,-3.2398,-3.2398,-3.2398,-3.2398,-3.2398,-3.2398,-3.2398,-3.2398,-3.1823,-3.097,-2.9766,-2.9487,-2.917,-2.8683,-2.8587,-2.8587,-2.8587,-2.8522,-2.8091,-2.7324,-2.6888,-2.6205,-2.5111,-2.4969,-2.4814,-2.4431,-2.4334,-2.4345,-2.4682,-2.4754,-2.4861,-2.5182,-2.5099,-2.517,-2.5135,-2.517,-2.5087,-2.4706,-2.4381,-2.4007,-2.3629,-2.3556,-2.3446,-2.315,-2.3038,-2.3038,-2.3001,-2.3012,-2.3132,-2.311,-2.3088,-2.3121,-2.3121,-2.3088,-2.3001,-2.3001,-2.3001,-2.3001,-2.3001,-2.3001,-2.3001,-2.3001,-2.3001,-2.3001,-2.3075,-2.3486,-2.3938,-4.4005,-4.3971,-4.3825,-4.2998,-4.1633,-4.0204,-3.9067,-3.8186,-3.7042,-3.6544,-3.6523,-3.6541,-3.6444,-3.6284,-3.6284,-3.6284,-3.6284,-3.6284,-3.6284,-3.6284,-3.6284,-3.6178,-3.6028,-3.6028,-3.5749,-3.5283,-3.526,-3.5098,-3.4793,-3.4593,-3.4267,-3.3822,-3.3771,-3.3617,-3.3335,-3.3256,-3.3256,-3.3309,-3.3256,-3.3203,-3.3123,-3.2989,-3.2784,-3.2621,-3.2551,-3.248,-3.2425,-3.2398,-3.2398,-3.2398,-3.2398,-3.2398,-3.2398,-3.2398,-3.2398,-3.237,-3.1823,-3.1087,-3.0147,-2.9735,-2.9251,-2.8651,-2.8587,-2.8587,-2.8587,-2.8587,-2.8411,-2.8072,-2.7663,-2.7082,-2.6299,-2.6148,-2.5965,-2.5488,-2.5382,-2.5312,-2.5087,-2.5076,-2.5147,-2.5276,-2.5312,-2.5312,-2.5312,-2.5312,-2.5147,-2.4885,-2.4634,-2.4418,-2.4043,-2.397,-2.3886,-2.374,-2.3703,-2.3482,-2.315,-2.3001,-2.3001,-2.3001,-2.3001,-2.3001,-2.3001,-2.3001,-2.3001,-2.3001,-2.3001,-2.3001,-2.3001,-2.3001,-2.3001,-2.3001,-2.3038,-2.3102,-2.3548,-2.3866,-2.4373,-4.4005,-4.4005,-4.4005,-4.3201,-4.1794,-4.0565,-3.9368,-3.8252,-3.7259,-3.6829,-3.6829,-3.6745,-3.6602,-3.644,-3.6364,-3.6322,-3.6301,-3.6284,-3.6284,-3.6284,-3.6284,-3.6284,-3.6284,-3.6284,-3.6114,-3.5837,-3.5793,-3.5526,-3.5075,-3.5021,-3.4761,-3.4341,-3.4284,-3.4109,-3.3771,-3.3704,-3.3704,-3.3704,-3.3591,-3.3529,-3.3503,-3.3282,-3.3016,-3.2703,-3.2605,-3.2551,-3.2425,-3.2398,-3.2398,-3.2398,-3.2398,-3.2398,-3.2398,-3.2398,-3.2398,-3.237,-3.1992,-3.148,-3.0807,-3.0163,-2.9501,-2.8899,-2.8702,-2.8587,-2.8587,-2.8587,-2.8587,-2.8522,-2.8249,-2.7776,-2.731,-2.7209,-2.6973,-2.6496,-2.6289,-2.6013,-2.5594,-2.5418,-2.5276,-2.5312,-2.5312,-2.5312,-2.5312,-2.5276,-2.5218,-2.5028,-2.4957,-2.4825,-2.4454,-2.4345,-2.4345,-2.4236,-2.42,-2.3897,-2.3335,-2.3187,-2.315,-2.3001,-2.3001,-2.3001,-2.3001,-2.3001,-2.3001,-2.3001,-2.3001,-2.3001,-2.3001,-2.3001,-2.3075,-2.3075,-2.3176,-2.3449,-2.3902,-2.4325,-2.5122,-4.4005,-4.4005,-4.4005,-4.3061,-4.1586,-4.1018,-3.9871,-3.8354,-3.7542,-3.717,-3.715,-3.6851,-3.6702,-3.6684,-3.6564,-3.6423,-3.6305,-3.6305,-3.6322,-3.6305,-3.6301,-3.6284,-3.6284,-3.6284,-3.6262,-3.6199,-3.6199,-3.5985,-3.5571,-3.5549,-3.5299,-3.4809,-3.4785,-3.4745,-3.4649,-3.4625,-3.4697,-3.4545,-3.4193,-3.4025,-3.3949,-3.3529,-3.315,-3.2897,-3.2718,-3.2551,-3.2425,-3.2425,-3.2425,-3.2425,-3.2425,-3.2398,-3.2398,-3.2398,-3.2398,-3.2398,-3.237,-3.2076,-3.1451,-3.0822,-3.0133,-2.9487,-2.8976,-2.8619,-2.8587,-2.8587,-2.8587,-2.8587,-2.8522,-2.8295,-2.7855,-2.7756,-2.7543,-2.704,-2.653,-2.6289,-2.6164,-2.5734,-2.5347,-2.5382,-2.5418,-2.5382,-2.5312,-2.5312,-2.5276,-2.5253,-2.5241,-2.5135,-2.4838,-2.479,-2.4634,-2.4381,-2.4261,-2.4068,-2.3666,-2.3556,-2.3409,-2.3298,-2.3261,-2.3113,-2.3038,-2.3001,-2.3038,-2.3038,-2.3075,-2.3075,-2.3038,-2.3075,-2.315,-2.3361,-2.3815,-2.4156,-2.4624,-2.5522,-2.6208,-4.4005,-4.3949,-4.3448,-4.2593,-4.1523,-4.0596,-3.9554,-3.8504,-3.7998,-3.7774,-3.7703,-3.7376,-3.7186,-3.7147,-3.6831,-3.6647,-3.6527,-3.6482,-3.6423,-3.6423,-3.6343,-3.6284,-3.6284,-3.6284,-3.6284,-3.6284,-3.6284,-3.6216,-3.6071,-3.6067,-3.5793,-3.5374,-3.5322,-3.5144,-3.4864,-3.4793,-3.4649,-3.4382,-3.4176,-3.3924,-3.3642,-3.3414,-3.3203,-3.3016,-3.2962,-3.2854,-3.2703,-3.2718,-3.2648,-3.2508,-3.2523,-3.2496,-3.2425,-3.2398,-3.2398,-3.2398,-3.2398,-3.2132,-3.1566,-3.1277,-3.0644,-2.9628,-2.93,-2.8962,-2.867,-2.8587,-2.8587,-2.8587,-2.8587,-2.849,-2.8392,-2.8327,-2.8085,-2.761,-2.733,-2.704,-2.6769,-2.6517,-2.638,-2.6346,-2.6117,-2.5734,-2.5418,-2.5312,-2.5312,-2.5312,-2.5312,-2.5241,-2.5182,-2.5123,-2.5076,-2.4957,-2.4897,-2.479,-2.4418,-2.4116,-2.3934,-2.3861,-2.3787,-2.3787,-2.3751,-2.3482,-2.3446,-2.3545,-2.3482,-2.3434,-2.3508,-2.3731,-2.3742,-2.407,-2.4528,-2.5016,-2.5487,-2.6126,-2.662,-4.4005,-4.3875,-4.3132,-4.2333,-4.1501,-4.0455,-3.9519,-3.877,-3.8392,-3.8265,-3.8183,-3.7861,-3.7667,-3.7596,-3.7338,-3.7108,-3.693,-3.665,-3.6502,-3.6482,-3.6364,-3.6284,-3.6284,-3.6284,-3.6284,-3.6284,-3.6284,-3.6284,-3.6284,-3.6284,-3.6118,-3.5815,-3.5832,-3.5661,-3.5345,-3.5283,-3.5098,-3.4833,-3.4658,-3.4399,-3.4043,-3.372,-3.3529,-3.3398,-3.3256,-3.3085,-3.2912,-3.2912,-3.2843,-3.2718,-3.2621,-3.2551,-3.241,-3.2398,-3.2398,-3.2398,-3.2398,-3.2231,-3.1794,-3.1422,-3.0778,-2.9889,-2.9393,-2.8994,-2.8619,-2.8587,-2.8587,-2.8587,-2.8587,-2.8587,-2.8587,-2.8587,-2.8457,-2.8085,-2.7921,-2.7676,-2.731,-2.7108,-2.6905,-2.6667,-2.6358,-2.6013,-2.5664,-2.5418,-2.5523,-2.5756,-2.5581,-2.5347,-2.5558,-2.5594,-2.5581,-2.5581,-2.5594,-2.5606,-2.55,-2.5276,-2.4539,-2.4334,-2.4298,-2.4334,-2.437,-2.4068,-2.3948,-2.402,-2.4009,-2.3973,-2.4107,-2.4373,-2.466,-2.4992,-2.5381,-2.5871,-2.623,-2.6517,-2.6939,-4.3986,-4.3819,-4.3095,-4.224,-4.1423,-4.0577,-3.983,-3.9073,-3.8733,-3.8612,-3.8548,-3.8249,-3.8083,-3.8085,-3.8,-3.7826,-3.7432,-3.6915,-3.6609,-3.6523,-3.6402,-3.6343,-3.6322,-3.6322,-3.6301,-3.6284,-3.6284,-3.6284,-3.6284,-3.6284,-3.6262,-3.628,-3.622,-3.6178,-3.6259,-3.6156,-3.6178,-3.5968,-3.5616,-3.5476,-3.5459,-3.4561,-3.4084,-3.4009,-3.3633,-3.3229,-3.2978,-3.2924,-3.2939,-3.287,-3.273,-3.2551,-3.2453,-3.2453,-3.241,-3.2425,-3.2425,-3.2382,-3.2244,-3.1349,-3.0778,-3.0374,-2.9435,-2.8862,-2.8766,-2.8651,-2.8587,-2.8587,-2.8587,-2.8587,-2.8587,-2.8587,-2.8554,-2.8554,-2.8164,-2.7875,-2.7743,-2.7343,-2.6837,-2.6508,-2.6393,-2.6267,-2.6117,-2.5838,-2.5896,-2.638,-2.6104,-2.5687,-2.6082,-2.6117,-2.6151,-2.6198,-2.6129,-2.606,-2.6324,-2.6461,-2.5523,-2.4754,-2.4754,-2.479,-2.4933,-2.4778,-2.4862,-2.4886,-2.485,-2.485,-2.5299,-2.5568,-2.5603,-2.5894,-2.6321,-2.6607,-2.6824,-2.704,-2.7222,-4.367,-4.3095,-4.2314,-4.1497,-4.0713,-3.9863,-3.9324,-3.912,-3.8984,-3.8942,-3.8865,-3.8579,-3.8457,-3.8394,-3.82,-3.8051,-3.7896,-3.7578,-3.7208,-3.6774,-3.6626,-3.6564,-3.6544,-3.6482,-3.6364,-3.6305,-3.6284,-3.6301,-3.6284,-3.6284,-3.6284,-3.6284,-3.6284,-3.6284,-3.6284,-3.6284,-3.6174,-3.5832,-3.57,-3.5436,-3.5091,-3.4761,-3.4569,-3.4521,-3.4093,-3.3797,-3.372,-3.3372,-3.315,-3.3058,-3.2989,-3.2881,-3.2773,-3.2746,-3.2691,-3.2551,-3.2551,-3.248,-3.2398,-3.2048,-3.1551,-3.1116,-3.0329,-2.9718,-2.9233,-2.8817,-2.8619,-2.8587,-2.8587,-2.8587,-2.8587,-2.8587,-2.8587,-2.8587,-2.8457,-2.8327,-2.8295,-2.8183,-2.7888,-2.7443,-2.731,-2.7142,-2.6837,-2.6483,-2.6552,-2.6926,-2.6654,-2.6517,-2.6654,-2.6496,-2.6393,-2.6633,-2.6496,-2.6543,-2.6905,-2.7074,-2.6517,-2.5931,-2.5791,-2.5548,-2.5618,-2.5616,-2.5709,-2.5824,-2.5755,-2.5963,-2.6424,-2.6629,-2.6663,-2.6799,-2.7162,-2.731,-2.7343,-2.741,-2.749,-4.3319,-4.2731,-4.1653,-4.0894,-4.0323,-3.9454,-3.9101,-3.9101,-3.9101,-3.9101,-3.9041,-3.8898,-3.8792,-3.8748,-3.8566,-3.841,-3.8281,-3.818,-3.7843,-3.73,-3.6972,-3.6831,-3.6705,-3.6623,-3.6544,-3.6482,-3.6444,-3.6423,-3.6364,-3.6381,-3.6343,-3.6301,-3.6284,-3.6284,-3.6284,-3.6284,-3.6152,-3.5898,-3.5859,-3.5705,-3.5374,-3.5191,-3.4981,-3.4769,-3.4341,-3.4025,-3.3797,-3.345,-3.3256,-3.3176,-3.3139,-3.3058,-3.2924,-3.2885,-3.2843,-3.2746,-3.2718,-3.2648,-3.248,-3.2216,-3.1851,-3.1175,-3.051,-2.9842,-2.9265,-2.8753,-2.8619,-2.8587,-2.8587,-2.8587,-2.8587,-2.8587,-2.8587,-2.8587,-2.8587,-2.8587,-2.8587,-2.8587,-2.8327,-2.7888,-2.7756,-2.761,-2.741,-2.7061,-2.7229,-2.741,-2.7242,-2.7142,-2.7129,-2.7027,-2.7108,-2.7142,-2.7108,-2.7242,-2.7556,-2.7543,-2.741,-2.7196,-2.7027,-2.6717,-2.6562,-2.6474,-2.6471,-2.6867,-2.6934,-2.7204,-2.763,-2.763,-2.763,-2.7842,-2.7822,-2.7756,-2.7656,-2.7523,-2.7536,-4.293,-4.2607,-4.1143,-4.0468,-4.0207,-3.9449,-3.9115,-3.9096,-3.9101,-3.9101,-3.9101,-3.9055,-3.9073,-3.9069,-3.8998,-3.8836,-3.8655,-3.8609,-3.8407,-3.7998,-3.7578,-3.7189,-3.6869,-3.6809,-3.6748,-3.6664,-3.6681,-3.6623,-3.6502,-3.6502,-3.6444,-3.6343,-3.6322,-3.6284,-3.6284,-3.6284,-3.6262,-3.622,-3.6259,-3.622,-3.6195,-3.5854,-3.5436,-3.4958,-3.4537,-3.4109,-3.3806,-3.3565,-3.3372,-3.3293,-3.3176,-3.3085,-3.2951,-3.2939,-3.2951,-3.2897,-3.2912,-3.28,-3.2551,-3.2188,-3.1637,-3.0984,-3.0345,-2.9376,-2.9071,-2.8912,-2.8716,-2.8619,-2.8587,-2.8587,-2.8587,-2.8587,-2.8587,-2.8587,-2.8587,-2.8587,-2.8587,-2.8587,-2.8392,-2.802,-2.7855,-2.7855,-2.7855,-2.7477,-2.7709,-2.8052,-2.7743,-2.761,-2.7643,-2.7709,-2.7776,-2.7743,-2.7643,-2.7776,-2.7987,-2.802,-2.7921,-2.7875,-2.7809,-2.7596,-2.738,-2.7315,-2.7297,-2.7709,-2.7941,-2.8281,-2.8444,-2.8281,-2.817,-2.8137,-2.8072,-2.802,-2.7822,-2.7656,-2.7536,-4.2566,-4.138,-4.0804,-4.021,-3.9674,-3.9303,-3.917,-3.917,-3.9115,-3.9101,-3.9101,-3.9101,-3.9101,-3.9101,-3.9101,-3.9041,-3.897,-3.8956,-3.8792,-3.8504,-3.8344,-3.7843,-3.732,-3.7206,-3.7029,-3.6745,-3.6722,-3.6681,-3.6661,-3.6564,-3.6502,-3.6444,-3.636,-3.6305,-3.6284,-3.6305,-3.6284,-3.6284,-3.6301,-3.6301,-3.6262,-3.6178,-3.6071,-3.5902,-3.5397,-3.5115,-3.4904,-3.4267,-3.3668,-3.3319,-3.3282,-3.3256,-3.3192,-3.3192,-3.3139,-3.3058,-3.3032,-3.3005,-3.28,-3.2539,-3.2259,-3.2048,-3.1262,-3.0703,-3.004,-2.9591,-2.9149,-2.878,-2.8587,-2.8587,-2.8587,-2.8587,-2.8587,-2.8587,-2.8587,-2.8587,-2.8587,-2.8587,-2.8522,-2.8411,-2.8346,-2.8346,-2.8281,-2.8262,-2.8216,-2.8425,-2.836,-2.8118,-2.8183,-2.8052,-2.7954,-2.8118,-2.8151,-2.8216,-2.8327,-2.8392,-2.8425,-2.8457,-2.8392,-2.8295,-2.8191,-2.8131,-2.8216,-2.8392,-2.8281,-2.8522,-2.8554,-2.849,-2.8444,-2.8333,-2.8183,-2.8033,-2.7822,-2.7643,-2.7523,-4.1961,-4.1018,-4.0578,-4.0051,-3.9496,-3.9408,-3.9305,-3.921,-3.9156,-3.9129,-3.9101,-3.9101,-3.9101,-3.9101,-3.9101,-3.9101,-3.9101,-3.9101,-3.8966,-3.8836,-3.8792,-3.8277,-3.765,-3.7431,-3.7225,-3.6886,-3.6826,-3.6786,-3.6745,-3.6667,-3.6606,-3.6582,-3.652,-3.6482,-3.6482,-3.6464,-3.6423,-3.6385,-3.6364,-3.6381,-3.6301,-3.6284,-3.6135,-3.6028,-3.5705,-3.5459,-3.4951,-3.4366,-3.3848,-3.3424,-3.3309,-3.3293,-3.3293,-3.3293,-3.3282,-3.3192,-3.3176,-3.3123,-3.2989,-3.2881,-3.2621,-3.2259,-3.1766,-3.1072,-3.0254,-2.9718,-2.9265,-2.8716,-2.8619,-2.8587,-2.8587,-2.8587,-2.8587,-2.8587,-2.8587,-2.8587,-2.8587,-2.8587,-2.8587,-2.8587,-2.8587,-2.8587,-2.8587,-2.8587,-2.8587,-2.8587,-2.8587,-2.8522,-2.8522,-2.8281,-2.8151,-2.8327,-2.8425,-2.8457,-2.8457,-2.849,-2.8522,-2.8587,-2.8587,-2.8587,-2.8587,-2.8587,-2.8587,-2.8554,-2.8587,-2.8587,-2.8587,-2.8587,-2.8476,-2.8333,-2.8197,-2.8033,-2.7855,-2.7723,-2.7623,-4.1351,-4.116,-4.0425,-3.9922,-3.9652,-3.9599,-3.9477,-3.9245,-3.9224,-3.9183,-3.9142,-3.9129,-3.9142,-3.9096,-3.9129,-3.9115,-3.9101,-3.9101,-3.9082,-3.9004,-3.8855,-3.8322,-3.7556,-3.7702,-3.7469,-3.7164,-3.7048,-3.695,-3.6816,-3.6721,-3.6611,-3.6426,-3.6406,-3.6406,-3.6137,-3.6261,-3.6325,-3.6069,-3.5942,-3.5883,-3.5821,-3.5783,-3.562,-3.5386,-3.5321,-3.4835,-3.4301,-3.3925,-3.3678,-3.317,-3.3224,-3.3293,-3.3293,-3.3293,-3.3309,-3.3282,-3.3282,-3.3214,-3.3123,-3.3069,-3.2784,-3.216,-3.1992,-3.1261,-3.0346,-3.0043,-2.9752,-2.904,-2.8766,-2.8748,-2.8587,-2.8587,-2.8587,-2.8587,-2.8587,-2.8587,-2.8587,-2.8587,-2.8587,-2.8587,-2.8587,-2.8587,-2.8587,-2.8587,-2.8587,-2.8587,-2.8587,-2.8587,-2.8587,-2.849,-2.8425,-2.849,-2.8554,-2.8554,-2.8587,-2.8587,-2.8587,-2.8587,-2.8587,-2.8587,-2.8587,-2.8587,-2.8587,-2.8587,-2.8587,-2.8587,-2.8587,-2.8554,-2.8476,-2.8365,-2.8203,-2.8052,-2.7888,-2.7835,-2.7736,-4.1259,-4.0647,-4.0308,-4.0041,-3.9862,-3.9785,-3.9642,-3.9438,-3.9386,-3.9341,-3.9333,-3.9315,-3.9256,-3.9202,-3.9183,-3.9156,-3.9096,-3.9045,-3.9101,-3.9008,-3.8377,-3.795,-3.7606,-3.7908,-3.7924,-3.747,-3.7359,-3.7208,-3.689,-3.6283,-3.5937,-3.5883,-3.5444,-3.4925,-3.4994,-3.5062,-3.4757,-3.4701,-3.4693,-3.4757,-3.4754,-3.4754,-3.4677,-3.4535,-3.45,-3.4129,-3.3636,-3.3466,-3.3065,-3.2611,-3.2838,-3.3224,-3.3161,-3.3182,-3.3151,-3.3135,-3.3198,-3.3203,-3.3198,-3.3024,-3.2996,-3.2629,-3.2365,-3.2272,-3.1548,-3.12,-3.0808,-3.0133,-2.9716,-2.9237,-2.8862,-2.8651,-2.8651,-2.867,-2.8619,-2.8587,-2.8587,-2.8587,-2.8587,-2.8587,-2.8587,-2.8587,-2.8587,-2.8587,-2.8587,-2.8587,-2.8587,-2.8587,-2.8587,-2.8587,-2.8587,-2.8587,-2.8587,-2.8587,-2.8587,-2.8587,-2.8587,-2.8587,-2.8587,-2.8587,-2.8587,-2.8587,-2.8587,-2.8587,-2.8587,-2.8587,-2.8587,-2.8587,-2.8541,-2.8398,-2.8268,-2.8137,-2.802,-2.7934,-2.7848,-4.1024,-4.0639,-4.0519,-4.0364,-4.0177,-4.0148,-3.9929,-3.9672,-3.9601,-3.9527,-3.9412,-3.9405,-3.9341,-3.9283,-3.9269,-3.9242,-3.9044,-3.8687,-3.8525,-3.8339,-3.7726,-3.7275,-3.7184,-3.738,-3.7354,-3.6727,-3.659,-3.6487,-3.6239,-3.5918,-3.5581,-3.5417,-3.4903,-3.4812,-3.4556,-3.4447,-3.4479,-3.4422,-3.4312,-3.4272,-3.425,-3.4248,-3.4211,-3.4155,-3.4118,-3.3885,-3.3372,-3.3313,-3.2911,-3.2495,-3.2635,-3.2711,-3.2406,-3.2329,-3.2329,-3.2329,-3.2329,-3.2329,-3.2288,-3.2252,-3.2143,-3.2154,-3.2061,-3.1577,-3.1128,-3.0922,-3.0728,-3.0236,-2.9896,-2.9608,-2.9473,-2.9153,-2.9044,-2.8962,-2.8766,-2.8619,-2.8587,-2.8587,-2.8587,-2.8587,-2.8587,-2.8587,-2.8587,-2.8587,-2.8587,-2.8587,-2.8587,-2.8587,-2.8587,-2.8587,-2.8587,-2.8587,-2.8587,-2.8587,-2.8587,-2.8587,-2.8587,-2.8587,-2.8587,-2.8587,-2.8587,-2.8587,-2.8587,-2.8587,-2.8587,-2.8587,-2.8587,-2.8587,-2.8541,-2.8398,-2.8268,-2.8203,-2.8151,-2.8131,-2.8,-4.0797,-4.0797,-4.0797,-4.0673,-4.0504,-4.0481,-4.0251,-3.9895,-3.9851,-3.9758,-3.9558,-3.9483,-3.9508,-3.9445,-3.9412,-3.9304,-3.8833,-3.8165,-3.778,-3.7649,-3.6942,-3.6595,-3.6513,-3.635,-3.6061,-3.5502,-3.5812,-3.5806,-3.569,-3.5471,-3.5189,-3.502,-3.4808,-3.4477,-3.4429,-3.4374,-3.4145,-3.402,-3.3874,-3.3833,-3.3846,-3.3845,-3.379,-3.3699,-3.3625,-3.3416,-3.3025,-3.2937,-3.2757,-3.2331,-3.2287,-3.1828,-3.1294,-3.1258,-3.1306,-3.1369,-3.1471,-3.1419,-3.1451,-3.1356,-3.129,-3.1024,-3.1071,-3.0828,-3.0365,-3.0311,-3.027,-3.0048,-2.9864,-2.9725,-3.0132,-2.9508,-2.929,-2.9232,-2.8874,-2.862,-2.8638,-2.8619,-2.8587,-2.8587,-2.8587,-2.8587,-2.8587,-2.8587,-2.8587,-2.8587,-2.8587,-2.8587,-2.8587,-2.8587,-2.8587,-2.8587,-2.8587,-2.8587,-2.8587,-2.8587,-2.8587,-2.8587,-2.8587,-2.8619,-2.8619,-2.8587,-2.8587,-2.8587,-2.8587,-2.8587,-2.8587,-2.8587,-2.8509,-2.8365,-2.8398,-2.843,-2.8379,-2.8327,-2.8346,-4.0797,-4.0797,-4.0797,-4.0673,-4.0512,-4.0496,-4.0364,-4.0148,-4.0139,-4.0101,-4.0021,-3.9884,-3.9789,-3.9701,-3.9521,-3.9051,-3.8239,-3.7455,-3.7044,-3.6914,-3.6261,-3.585,-3.5739,-3.5316,-3.4871,-3.4964,-3.5391,-3.572,-3.5411,-3.5015,-3.473,-3.4493,-3.4029,-3.3715,-3.3595,-3.3241,-3.3224,-3.321,-3.2967,-3.2789,-3.2771,-3.2753,-3.2735,-3.2681,-3.2644,-3.2464,-3.2284,-3.2103,-3.1824,-3.1398,-3.1338,-3.0921,-3.0674,-3.1214,-3.1556,-3.1414,-3.1133,-3.0914,-3.0946,-3.1072,-3.1151,-3.1158,-3.1031,-3.1063,-3.0833,-3.0798,-3.0448,-3.0256,-2.9831,-2.9485,-2.9181,-2.9016,-2.8885,-2.8906,-2.868,-2.8384,-2.8693,-2.8693,-2.8506,-2.8457,-2.852,-2.8587,-2.8587,-2.8587,-2.8587,-2.8587,-2.8587,-2.8587,-2.8587,-2.8587,-2.8587,-2.8587,-2.8587,-2.8587,-2.8587,-2.8587,-2.8587,-2.8587,-2.8619,-2.867,-2.8651,-2.8619,-2.8619,-2.8926,-2.8798,-2.8587,-2.8587,-2.8619,-2.8702,-2.8707,-2.8707,-2.8753,-2.8962,-2.917,-2.9407,-4.0797,-4.0797,-4.0797,-4.0739,-4.066,-4.0633,-4.0527,-4.0364,-4.0366,-4.0295,-4.0205,-4.01,-4.004,-3.9844,-3.9252,-3.8479,-3.7535,-3.6658,-3.631,-3.6104,-3.5469,-3.5021,-3.507,-3.4565,-3.443,-3.4516,-3.4945,-3.5177,-3.4931,-3.4573,-3.4298,-3.4094,-3.3715,-3.348,-3.3262,-3.3011,-3.2797,-3.2702,-3.2455,-3.2249,-3.2249,-3.2249,-3.2214,-3.2144,-3.2108,-3.2055,-3.2019,-3.1983,-3.1873,-3.169,-3.1579,-3.1281,-3.1147,-3.107,-3.1166,-3.0665,-3.0323,-3.0164,-3.0125,-3.0109,-3.0077,-3.0077,-3.014,-3.0109,-3.0109,-3.0005,-3.0177,-3.0205,-3.0479,-3.0132,-2.9982,-2.9174,-2.8993,-2.8928,-2.8436,-2.8158,-2.8274,-2.8235,-2.8274,-2.8336,-2.8465,-2.8557,-2.8587,-2.8587,-2.8587,-2.8587,-2.8619,-2.8619,-2.8619,-2.8651,-2.8651,-2.8587,-2.8587,-2.8587,-2.8587,-2.8587,-2.8587,-2.8587,-2.872,-2.8771,-2.8949,-2.8998,-2.9328,-2.9701,-2.9373,-2.8862,-2.8766,-2.8849,-2.8931,-2.9107,-2.939,-2.9625,-2.9858,-3.0072,-3.0254,-4.0802,-4.0797,-4.0797,-4.0797,-4.0797,-4.0797,-4.0713,-4.0583,-4.0569,-4.0481,-4.0311,-4.0086,-3.9954,-3.9651,-3.8689,-3.7631,-3.6799,-3.5987,-3.5638,-3.5451,-3.4963,-3.4536,-3.4469,-3.4439,-3.4439,-3.4435,-3.444,-3.4316,-3.4371,-3.4278,-3.4117,-3.4007,-3.39,-3.3757,-3.3504,-3.3273,-3.3063,-3.2892,-3.2638,-3.2473,-3.2423,-3.2406,-3.2354,-3.2249,-3.2214,-3.2179,-3.2126,-3.2073,-3.2073,-3.2019,-3.1948,-3.184,-3.1712,-3.1374,-3.0584,-2.9611,-2.9312,-2.9259,-2.9284,-2.9232,-2.9335,-2.9367,-2.9193,-2.9146,-2.9193,-2.9359,-2.9383,-2.9816,-3.0136,-3.036,-2.9993,-2.9529,-2.9225,-2.9107,-2.8504,-2.7925,-2.8182,-2.8266,-2.8251,-2.8341,-2.8449,-2.8543,-2.8612,-2.8634,-2.8628,-2.8894,-2.8908,-2.8748,-2.8748,-2.878,-2.878,-2.8651,-2.8587,-2.8587,-2.8587,-2.8587,-2.8587,-2.8587,-2.8853,-2.9083,-2.932,-2.9555,-2.9909,-3.0139,-2.9856,-2.9404,-2.9279,-2.9251,-2.9546,-2.9872,-3.0238,-3.048,-3.0629,-3.0733,-3.0852,-4.0856,-4.0797,-4.0797,-4.0797,-4.0797,-4.0797,-4.079,-4.0765,-4.072,-4.0746,-4.0512,-3.973,-3.9288,-3.8857,-3.7507,-3.6696,-3.6223,-3.5664,-3.522,-3.5086,-3.4887,-3.4713,-3.4604,-3.4591,-3.4591,-3.4539,-3.4476,-3.4363,-3.4281,-3.4233,-3.4216,-3.4148,-3.4124,-3.4093,-3.3948,-3.3675,-3.3694,-3.355,-3.3063,-3.2654,-3.2473,-3.2457,-3.2405,-3.2388,-3.2284,-3.2214,-3.2196,-3.2161,-3.2126,-3.2108,-3.209,-3.1839,-3.1468,-3.1334,-3.0965,-3.0398,-2.9989,-2.9722,-2.9633,-2.9328,-2.9114,-2.9114,-2.9114,-2.9114,-2.9114,-2.9114,-2.9154,-2.9154,-2.9391,-2.9493,-2.9478,-2.8931,-2.8953,-2.8926,-2.8622,-2.8574,-2.8744,-2.8223,-2.8212,-2.8314,-2.8425,-2.8552,-2.8644,-2.8673,-2.8714,-2.8997,-2.9166,-2.8907,-2.8721,-2.8625,-2.8797,-2.8661,-2.8871,-2.8912,-2.9166,-2.9071,-2.8949,-2.8867,-2.8986,-2.9338,-2.9651,-2.991,-3.0132,-3.0235,-3.0038,-2.9994,-2.9939,-3.0042,-3.0274,-3.0539,-3.0807,-3.1087,-3.1291,-3.1407,-3.1435,-4.0889,-4.0805,-4.0828,-4.0843,-4.0797,-4.0797,-4.0797,-4.07,-4.0274,-4.0062,-3.9901,-3.9071,-3.8355,-3.77,-3.6811,-3.6254,-3.5695,-3.5294,-3.5092,-3.5032,-3.5006,-3.4962,-3.4879,-3.4812,-3.4761,-3.468,-3.4553,-3.4431,-3.434,-3.4316,-3.4305,-3.4305,-3.4269,-3.4245,-3.4221,-3.3965,-3.3834,-3.3652,-3.3332,-3.3032,-3.2896,-3.2736,-3.2621,-3.2622,-3.2439,-3.2319,-3.2301,-3.2301,-3.2267,-3.2249,-3.2214,-3.2073,-3.1857,-3.1784,-3.1635,-3.1451,-3.0971,-3.0444,-2.9843,-2.9403,-2.9213,-2.9114,-2.9114,-2.9114,-2.9114,-2.9114,-2.9114,-2.913,-2.913,-2.9114,-2.9045,-2.8716,-2.8714,-2.8673,-2.8595,-2.8526,-2.8589,-2.8396,-2.8192,-2.8282,-2.8431,-2.8577,-2.8619,-2.8426,-2.8466,-2.8717,-2.8587,-2.8152,-2.8033,-2.7988,-2.8274,-2.8663,-2.9004,-2.9314,-2.9701,-2.9886,-2.9756,-2.961,-2.9213,-2.9561,-2.9886,-3.0174,-3.0273,-3.0362,-3.0265,-3.0325,-3.0477,-3.0653,-3.0777,-3.1056,-3.1349,-3.1429,-3.152,-3.1845,-3.1914,-4.0955,-4.0844,-4.0902,-4.0882,-4.0809,-4.0596,-4.0488,-4.0386,-3.9551,-3.9172,-3.8934,-3.8251,-3.7327,-3.6627,-3.6395,-3.5975,-3.533,-3.525,-3.5201,-3.5193,-3.517,-3.5138,-3.5056,-3.4971,-3.4926,-3.486,-3.4722,-3.4607,-3.4542,-3.4495,-3.4439,-3.4386,-3.4335,-3.4311,-3.4252,-3.4061,-3.3926,-3.3762,-3.355,-3.3317,-3.3108,-3.2908,-3.2749,-3.2654,-3.2523,-3.2406,-3.2406,-3.2406,-3.2388,-3.2371,-3.2319,-3.2214,-3.2143,-3.2073,-3.2037,-3.1858,-3.149,-3.0993,-3.0385,-2.9908,-2.9477,-2.9289,-2.9137,-2.9114,-2.9114,-2.9114,-2.9114,-2.9114,-2.9114,-2.9114,-2.9068,-2.8811,-2.8811,-2.8684,-2.8517,-2.831,-2.8229,-2.8363,-2.8465,-2.8615,-2.8707,-2.8682,-2.8589,-2.8233,-2.8215,-2.8438,-2.8111,-2.7561,-2.7549,-2.7709,-2.8088,-2.8603,-2.8802,-2.916,-2.9442,-2.984,-3.0016,-3.0148,-2.9726,-2.9592,-2.9799,-3.0041,-3.0181,-3.0247,-3.0268,-3.0394,-3.0437,-3.0857,-3.1227,-3.1041,-3.1016,-3.1418,-3.167,-3.1951,-3.1936,-4.1053,-4.099,-4.0879,-4.0833,-4.0778,-4.0023,-3.9686,-3.9596,-3.8687,-3.8263,-3.8063,-3.7361,-3.6549,-3.5996,-3.5883,-3.58,-3.5645,-3.5637,-3.5521,-3.5412,-3.5359,-3.5295,-3.522,-3.5138,-3.51,-3.5047,-3.4907,-3.486,-3.4821,-3.4691,-3.4553,-3.4416,-3.4386,-3.4328,-3.4281,-3.4209,-3.4049,-3.3934,-3.3784,-3.3504,-3.3196,-3.2937,-3.2797,-3.259,-3.2474,-3.2423,-3.2406,-3.2423,-3.2406,-3.2406,-3.2388,-3.2319,-3.2249,-3.2214,-3.2196,-3.2073,-3.1786,-3.1416,-3.1072,-3.0608,-3.0225,-2.981,-2.9425,-2.9206,-2.9183,-2.9137,-2.9114,-2.9114,-2.9114,-2.9114,-2.9114,-2.9052,-2.8982,-2.8897,-2.8803,-2.8779,-2.8732,-2.8795,-2.892,-2.899,-2.8998,-2.8927,-2.8848,-2.8505,-2.8371,-2.8586,-2.8439,-2.7903,-2.7937,-2.8082,-2.8254,-2.8539,-2.8626,-2.8755,-2.8784,-2.9156,-2.9816,-2.9911,-2.9612,-2.9476,-2.9493,-2.9705,-2.973,-2.9868,-2.9848,-3.0125,-3.0294,-3.0234,-3.0262,-3.0435,-3.0632,-3.0986,-3.1048,-3.1105,-3.0971,-4.0006,-3.9546,-3.9511,-3.9737,-4.0096,-3.9237,-3.8874,-3.8712,-3.7877,-3.7117,-3.6696,-3.6303,-3.5994,-3.5767,-3.5704,-3.5704,-3.5704,-3.5704,-3.5631,-3.562,-3.5565,-3.5547,-3.5444,-3.5331,-3.5288,-3.525,-3.5125,-3.5024,-3.5006,-3.4907,-3.4916,-3.4784,-3.4577,-3.4443,-3.4416,-3.4351,-3.4245,-3.4209,-3.4161,-3.3986,-3.3865,-3.3556,-3.3419,-3.3335,-3.275,-3.2687,-3.2621,-3.2456,-3.2422,-3.2406,-3.2423,-3.2354,-3.2319,-3.2319,-3.2301,-3.2284,-3.202,-3.193,-3.1712,-3.1201,-3.0559,-3.0166,-2.9772,-2.9515,-2.9425,-2.9373,-2.9236,-2.9183,-2.9114,-2.9114,-2.9114,-2.9114,-2.9091,-2.9114,-2.9114,-2.9114,-2.9114,-2.9114,-2.9114,-2.9068,-2.9091,-2.9053,-2.899,-2.8889,-2.8795,-2.8736,-2.8515,-2.8327,-2.8311,-2.8367,-2.8471,-2.8657,-2.8744,-2.9137,-2.922,-2.9501,-2.9769,-2.9599,-2.9444,-2.9338,-2.9213,-2.8885,-2.8937,-2.9141,-2.9279,-2.9319,-2.9304,-2.9212,-2.9387,-2.9863,-3.0202,-3.0494,-3.0448,-3.0263,-3.0171,-3.9118,-3.8591,-3.8318,-3.865,-3.9202,-3.8422,-3.8044,-3.7864,-3.7043,-3.6351,-3.5745,-3.5726,-3.5727,-3.5732,-3.5723,-3.5713,-3.5716,-3.5701,-3.5715,-3.5704,-3.5698,-3.5704,-3.5656,-3.5577,-3.5496,-3.5444,-3.5321,-3.5205,-3.5185,-3.513,-3.5073,-3.4978,-3.4851,-3.4713,-3.4564,-3.4473,-3.4397,-3.4386,-3.4386,-3.4328,-3.4233,-3.4018,-3.3784,-3.3703,-3.3225,-3.306,-3.2954,-3.2782,-3.2606,-3.254,-3.2508,-3.2423,-3.2406,-3.2406,-3.2406,-3.2406,-3.2388,-3.2371,-3.2073,-3.1526,-3.0908,-3.067,-3.0335,-3.0097,-2.9919,-2.9744,-2.955,-2.9409,-2.9266,-2.9114,-2.9137,-2.9114,-2.9114,-2.9114,-2.9114,-2.9114,-2.9114,-2.9114,-2.9114,-2.9091,-2.9114,-2.9114,-2.9091,-2.9006,-2.892,-2.8869,-2.8755,-2.8547,-2.8419,-2.8455,-2.8561,-2.8774,-2.9012,-2.9494,-2.9977,-2.9647,-2.9327,-2.92,-2.9081,-2.9075,-2.887,-2.8559,-2.8411,-2.8688,-2.8719,-2.8473,-2.8535,-2.8735,-2.9119,-2.9525,-2.9679,-2.971,-2.9556,-2.9396,-2.9494,-3.857,-3.8494,-3.7672,-3.7812,-3.8388,-3.7617,-3.7225,-3.7125,-3.6336,-3.5877,-3.5805,-3.5788,-3.5783,-3.5785,-3.5771,-3.5745,-3.5728,-3.5708,-3.5707,-3.5706,-3.5701,-3.5715,-3.5704,-3.5668,-3.5631,-3.5651,-3.5509,-3.5391,-3.5411,-3.528,-3.5185,-3.5154,-3.5089,-3.4971,-3.4793,-3.4542,-3.4409,-3.4397,-3.4431,-3.4293,-3.4154,-3.408,-3.3923,-3.3747,-3.3574,-3.3458,-3.3372,-3.3105,-3.2923,-3.2846,-3.2657,-3.2541,-3.2491,-3.244,-3.2422,-3.244,-3.2423,-3.2406,-3.2354,-3.1748,-3.1433,-3.1281,-3.0928,-3.0703,-3.0605,-3.0318,-2.9913,-2.9821,-2.9528,-2.9243,-2.9144,-2.916,-2.9206,-2.9229,-2.9236,-2.9236,-2.9259,-2.9206,-2.9213,-2.9206,-2.9137,-2.9114,-2.9114,-2.9091,-2.9029,-2.8951,-2.8897,-2.8795,-2.8612,-2.8618,-2.874,-2.885,-2.9078,-2.9213,-2.9482,-2.9162,-2.8879,-2.8769,-2.8783,-2.8861,-2.8788,-2.8609,-2.8484,-2.846,-2.8541,-2.866,-2.8541,-2.8451,-2.8945,-2.9363,-2.883,-2.8719,-2.8581,-2.8642,-2.8873,-3.7284,-3.6798,-3.6531,-3.6597,-3.6815,-3.6555,-3.6401,-3.6343,-3.6033,-3.5837,-3.5795,-3.5791,-3.5804,-3.5788,-3.5802,-3.5774,-3.5768,-3.5768,-3.5752,-3.5713,-3.5708,-3.5707,-3.5702,-3.5697,-3.5706,-3.5684,-3.5614,-3.5583,-3.5608,-3.547,-3.5496,-3.549,-3.5324,-3.5185,-3.5024,-3.4832,-3.4732,-3.4701,-3.4607,-3.4465,-3.4386,-3.4321,-3.425,-3.4111,-3.3935,-3.3831,-3.3823,-3.35,-3.3284,-3.3166,-3.2941,-3.2848,-3.2739,-3.2673,-3.2557,-3.2506,-3.2473,-3.2406,-3.2388,-3.2108,-3.1966,-3.173,-3.147,-3.122,-3.0988,-3.0868,-3.0547,-3.0255,-3.0016,-2.9772,-2.9639,-2.9611,-2.9611,-2.9611,-2.9611,-2.9611,-2.9589,-2.9448,-2.938,-2.9328,-2.9282,-2.919,-2.9167,-2.9114,-2.9052,-2.9052,-2.9006,-2.9029,-2.8897,-2.892,-2.8999,-2.8983,-2.9077,-2.9053,-2.8998,-2.8944,-2.8881,-2.8842,-2.8834,-2.8865,-2.8747,-2.8612,-2.8636,-2.8636,-2.8803,-2.8905,-2.8763,-2.87,-2.902,-2.9144,-2.8865,-2.8645,-2.8683,-2.8618,-2.8535,-3.6301,-3.5859,-3.5877,-3.5923,-3.5976,-3.5995,-3.6017,-3.5998,-3.5953,-3.5898,-3.5873,-3.5871,-3.5865,-3.5841,-3.5836,-3.5836,-3.583,-3.5825,-3.5791,-3.5741,-3.5728,-3.5739,-3.5741,-3.5723,-3.5718,-3.5697,-3.5711,-3.5706,-3.569,-3.5701,-3.5684,-3.5631,-3.5552,-3.5451,-3.5285,-3.5136,-3.4944,-3.4908,-3.4803,-3.4691,-3.4639,-3.4604,-3.4517,-3.4431,-3.434,-3.4221,-3.4136,-3.3928,-3.3657,-3.35,-3.3357,-3.3243,-3.3081,-3.2988,-3.2846,-3.2784,-3.2657,-3.2558,-3.249,-3.2473,-3.2266,-3.2073,-3.1893,-3.1747,-3.1524,-3.1374,-3.1125,-3.0851,-3.0588,-3.036,-3.0187,-3.0123,-3.0123,-3.0123,-3.0123,-3.0123,-3.0075,-2.9946,-2.9793,-2.9705,-2.9544,-2.9432,-2.9312,-2.916,-2.9091,-2.9091,-2.9114,-2.916,-2.9183,-2.9183,-2.9229,-2.9236,-2.919,-2.9167,-2.9137,-2.9068,-2.9006,-2.8904,-2.8967,-2.9036,-2.8826,-2.8723,-2.8779,-2.8826,-2.8858,-2.8889,-2.8912,-2.8997,-2.9393,-2.9506,-2.9319,-2.9106,-2.8912,-2.8818,-2.8763,-3.5713,-3.5713,-3.5717,-3.579,-3.5889,-3.5931,-3.5986,-3.6009,-3.601,-3.5974,-3.5996,-3.5982,-3.5952,-3.5918,-3.5898,-3.5894,-3.5892,-3.5885,-3.5853,-3.5814,-3.5794,-3.5798,-3.5787,-3.5749,-3.5739,-3.5732,-3.5713,-3.5728,-3.5718,-3.5702,-3.5711,-3.5701,-3.5673,-3.5626,-3.5509,-3.5357,-3.5162,-3.5108,-3.4935,-3.4851,-3.4821,-3.4678,-3.4612,-3.455,-3.4517,-3.4495,-3.4427,-3.4257,-3.4105,-3.3935,-3.3765,-3.3556,-3.3443,-3.3472,-3.3332,-3.3157,-3.2975,-3.285,-3.2737,-3.2703,-3.2556,-3.2404,-3.2319,-3.2354,-3.2196,-3.1875,-3.162,-3.1376,-3.1128,-3.0951,-3.0788,-3.0767,-3.0784,-3.0767,-3.0751,-3.071,-3.0686,-3.0547,-3.036,-3.0213,-3.0038,-2.9908,-2.9843,-2.9677,-2.9544,-2.9611,-2.9655,-2.9589,-2.9566,-2.935,-2.9403,-2.9499,-2.9448,-2.9312,-2.9305,-2.9448,-2.9493,-2.9512,-2.9348,-2.9341,-2.9091,-2.906,-2.9282,-2.9312,-2.8959,-2.9013,-2.9595,-2.9793,-2.9837,-2.9859,-2.9946,-2.9655,-2.9477,-2.9454,-2.9432,-3.5635,-3.5621,-3.5672,-3.5733,-3.5753,-3.5797,-3.5833,-3.5929,-3.5931,-3.5947,-3.6012,-3.6012,-3.5977,-3.5964,-3.5985,-3.5936,-3.5898,-3.5894,-3.5885,-3.5874,-3.5859,-3.5869,-3.5856,-3.5836,-3.5804,-3.579,-3.5764,-3.5745,-3.5718,-3.5713,-3.5713,-3.5698,-3.5713,-3.5722,-3.567,-3.5589,-3.5432,-3.5273,-3.5058,-3.4991,-3.4889,-3.4742,-3.4678,-3.4626,-3.4645,-3.4634,-3.4539,-3.4506,-3.4363,-3.4191,-3.4142,-3.3999,-3.3837,-3.3725,-3.3556,-3.3415,-3.3302,-3.3232,-3.3157,-3.2908,-3.275,-3.2687,-3.2557,-3.2423,-3.2354,-3.2267,-3.2073,-3.1803,-3.1657,-3.1488,-3.1355,-3.1334,-3.1334,-3.1317,-3.13,-3.1281,-3.122,-3.1027,-3.0851,-3.073,-3.0526,-3.0448,-3.0381,-3.0297,-3.0192,-3.0272,-3.0251,-3.0145,-2.9995,-2.9793,-2.9677,-2.9793,-2.9859,-2.9772,-2.9946,-3.0118,-3.0118,-3.0102,-2.9908,-2.9821,-2.9859,-2.9897,-2.9984,-2.9903,-2.9683,-3.0102,-3.0801,-3.076,-3.0456,-3.0703,-3.0784,-3.0372,-3.007,-3.0032,-2.9989,-3.5496,-3.5489,-3.5546,-3.559,-3.5625,-3.5665,-3.572,-3.5768,-3.5817,-3.5867,-3.5951,-3.597,-3.598,-3.6012,-3.5995,-3.5963,-3.5953,-3.5934,-3.5937,-3.5937,-3.5913,-3.5889,-3.5885,-3.5895,-3.5888,-3.5846,-3.5833,-3.5844,-3.5787,-3.5749,-3.5749,-3.5756,-3.5743,-3.5736,-3.5727,-3.5689,-3.5646,-3.5464,-3.5307,-3.5144,-3.5016,-3.4879,-3.4793,-3.473,-3.472,-3.4689,-3.4604,-3.4623,-3.4528,-3.442,-3.4427,-3.4351,-3.4185,-3.4012,-3.3917,-3.3787,-3.3711,-3.3602,-3.3486,-3.3325,-3.3178,-3.3029,-3.2846,-3.2832,-3.2706,-3.2589,-3.2335,-3.2108,-3.209,-3.2037,-3.1929,-3.1856,-3.1856,-3.1856,-3.1856,-3.1856,-3.1691,-3.147,-3.1338,-3.1223,-3.1108,-3.1013,-3.0934,-3.0854,-3.0751,-3.0645,-3.0645,-3.0666,-3.0543,-3.0356,-3.0225,-3.0225,-3.0309,-3.0351,-3.0539,-3.0621,-3.0502,-3.0418,-3.0293,-3.0293,-3.0497,-3.0477,-3.033,-3.0414,-3.0481,-3.0882,-3.1196,-3.1176,-3.1038,-3.1235,-3.1274,-3.0922,-3.0638,-3.0597,-3.0535,-3.5281,-3.5304,-3.5364,-3.5422,-3.5494,-3.5558,-3.5566,-3.5577,-3.5626,-3.5745,-3.5869,-3.5903,-3.5904,-3.5923,-3.5927,-3.5956,-3.5944,-3.5944,-3.5924,-3.597,-3.5911,-3.5897,-3.5898,-3.5913,-3.5907,-3.5901,-3.5893,-3.5864,-3.5878,-3.5838,-3.5805,-3.5808,-3.58,-3.5788,-3.5804,-3.5737,-3.57,-3.565,-3.5521,-3.5406,-3.529,-3.5185,-3.5058,-3.4945,-3.4889,-3.4841,-3.4689,-3.4626,-3.4604,-3.4612,-3.4591,-3.4539,-3.4431,-3.4328,-3.4262,-3.4233,-3.4093,-3.3986,-3.3852,-3.3702,-3.3607,-3.3486,-3.3343,-3.3273,-3.3093,-3.2818,-3.254,-3.2522,-3.2506,-3.2456,-3.2353,-3.2249,-3.2214,-3.2197,-3.2196,-3.2179,-3.2072,-3.1893,-3.1766,-3.1674,-3.1638,-3.1565,-3.1547,-3.1471,-3.1414,-3.1145,-3.1106,-3.124,-3.1145,-3.1007,-3.0871,-3.0788,-3.0845,-3.0905,-3.0885,-3.0925,-3.0804,-3.0703,-3.0703,-3.0764,-3.0965,-3.0825,-3.0601,-3.0825,-3.1064,-3.1081,-3.1235,-3.1274,-3.1312,-3.1312,-3.1312,-3.1274,-3.1157,-3.1035,-3.0955,-3.516,-3.5308,-3.5315,-3.533,-3.5338,-3.5362,-3.5357,-3.5376,-3.5385,-3.5532,-3.5725,-3.5749,-3.576,-3.5785,-3.5791,-3.583,-3.5897,-3.5861,-3.5855,-3.5877,-3.5869,-3.5857,-3.5896,-3.5923,-3.5916,-3.5898,-3.5896,-3.5893,-3.5903,-3.5892,-3.5866,-3.5869,-3.5847,-3.5819,-3.5862,-3.5791,-3.5774,-3.5768,-3.5725,-3.5577,-3.5443,-3.5242,-3.5073,-3.5066,-3.5049,-3.498,-3.4879,-3.4821,-3.474,-3.4655,-3.4623,-3.4583,-3.4561,-3.4528,-3.4517,-3.4487,-3.4427,-3.4316,-3.4227,-3.4074,-3.3935,-3.3818,-3.3652,-3.3528,-3.3314,-3.299,-3.2852,-3.2914,-3.2914,-3.2836,-3.2739,-3.2657,-3.2557,-3.2524,-3.2491,-3.2457,-3.244,-3.2319,-3.2179,-3.2161,-3.2144,-3.2109,-3.2073,-3.2037,-3.2055,-3.2037,-3.2055,-3.2073,-3.1948,-3.1822,-3.1696,-3.1585,-3.1506,-3.1523,-3.1428,-3.1315,-3.1201,-3.1276,-3.1315,-3.1389,-3.1428,-3.1295,-3.1179,-3.1408,-3.1615,-3.1521,-3.1447,-3.1504,-3.1523,-3.1447,-3.1389,-3.1351,-3.1271,-3.1171,-3.1171,-3.4841,-3.4943,-3.498,-3.5006,-3.5051,-3.5127,-3.516,-3.5176,-3.5258,-3.5385,-3.5521,-3.5581,-3.5626,-3.5659,-3.5696,-3.5713,-3.5783,-3.5722,-3.5756,-3.5778,-3.5801,-3.5807,-3.5846,-3.5867,-3.5886,-3.5875,-3.593,-3.5936,-3.5937,-3.5956,-3.5957,-3.5936,-3.5873,-3.5864,-3.5885,-3.5856,-3.5845,-3.5857,-3.5851,-3.5749,-3.5582,-3.5446,-3.532,-3.5311,-3.5254,-3.5178,-3.5081,-3.5032,-3.4972,-3.4889,-3.486,-3.4841,-3.4813,-3.4772,-3.4751,-3.4699,-3.4626,-3.4539,-3.4476,-3.439,-3.425,-3.416,-3.4043,-3.3935,-3.4012,-3.3711,-3.335,-3.3346,-3.3258,-3.3187,-3.3034,-3.2941,-3.2816,-3.2753,-3.2722,-3.2707,-3.2691,-3.2623,-3.259,-3.2574,-3.2506,-3.2387,-3.2353,-3.2266,-3.2267,-3.2301,-3.2405,-3.2522,-3.2489,-3.2506,-3.2403,-3.2318,-3.2179,-3.193,-3.1728,-3.1691,-3.1673,-3.1764,-3.1874,-3.1764,-3.1673,-3.1727,-3.1781,-3.1856,-3.1856,-3.1763,-3.1727,-3.1802,-3.1673,-3.1559,-3.1485,-3.1428,-3.1387,-3.1385,-3.1387,-3.4486,-3.4508,-3.4572,-3.4614,-3.4675,-3.4841,-3.4935,-3.4962,-3.5119,-3.5195,-3.5181,-3.5297,-3.5431,-3.5565,-3.5631,-3.5665,-3.5645,-3.5591,-3.5631,-3.5663,-3.5668,-3.5683,-3.5691,-3.5702,-3.5765,-3.5828,-3.588,-3.5939,-3.5973,-3.5974,-3.5957,-3.5974,-3.5948,-3.5917,-3.5898,-3.5896,-3.5909,-3.5908,-3.5901,-3.5892,-3.5829,-3.5797,-3.5645,-3.5552,-3.55,-3.5419,-3.5292,-3.522,-3.5235,-3.5146,-3.5078,-3.5062,-3.5028,-3.4969,-3.4953,-3.4907,-3.4832,-3.4763,-3.4722,-3.4713,-3.468,-3.4618,-3.4476,-3.442,-3.4487,-3.4298,-3.3948,-3.3792,-3.3693,-3.3532,-3.3386,-3.3258,-3.3142,-3.3052,-3.3006,-3.2977,-3.2977,-3.2977,-3.2977,-3.2977,-3.2882,-3.2752,-3.2688,-3.2607,-3.2574,-3.259,-3.2639,-3.2718,-3.2813,-3.2878,-3.2876,-3.2781,-3.2651,-3.2403,-3.2127,-3.2091,-3.2144,-3.2162,-3.2214,-3.2037,-3.1983,-3.2109,-3.2162,-3.2073,-3.2037,-3.2073,-3.2073,-3.2126,-3.193,-3.1802,-3.1876,-3.1913,-3.1822,-3.1786,-3.1657,-3.436,-3.4489,-3.4518,-3.4529,-3.454,-3.4574,-3.4603,-3.4595,-3.4636,-3.4646,-3.4706,-3.4726,-3.4914,-3.5357,-3.5383,-3.5412,-3.5456,-3.5419,-3.547,-3.5537,-3.5498,-3.5523,-3.5568,-3.5631,-3.5681,-3.5722,-3.5771,-3.5817,-3.5869,-3.5899,-3.5904,-3.5887,-3.5963,-3.595,-3.589,-3.5913,-3.5929,-3.5912,-3.5918,-3.5898,-3.5888,-3.5849,-3.5804,-3.5736,-3.5703,-3.5568,-3.5476,-3.5457,-3.5359,-3.5256,-3.5208,-3.5215,-3.5193,-3.5163,-3.5151,-3.5119,-3.5034,-3.5011,-3.4987,-3.4978,-3.498,-3.4953,-3.4823,-3.4763,-3.4753,-3.4651,-3.4409,-3.436,-3.4213,-3.3974,-3.38,-3.368,-3.3556,-3.3486,-3.3462,-3.3404,-3.3394,-3.3375,-3.3375,-3.3361,-3.3332,-3.3255,-3.324,-3.3169,-3.3108,-3.3108,-3.3111,-3.3199,-3.3199,-3.3258,-3.3317,-3.3243,-3.3139,-3.2968,-3.2761,-3.2632,-3.265,-3.2601,-3.2553,-3.2436,-3.2436,-3.2602,-3.2602,-3.242,-3.2469,-3.2569,-3.2553,-3.242,-3.2436,-3.2351,-3.2453,-3.2486,-3.2351,-3.2214,-3.2109]},{"header":{"parameterUnit":"m.s-1","parameterCategory":1,"la1":31.0,"la2":29.5877,"lo1":-88.7671,"lo2":-86.6584,"dy":0.0162,"dx":0.0185,"nx":115,"ny":88,"refTime":"2023-08-18T12:00:00:Z","depth":0,"parameterNumber":3,"parameterNumberName":"V-component_of_WINDS"},"data":[0.0,0.0,0.0,0.0,0.0,0.0,0.0,0.0,0.0,0.0,0.0,0.0,0.0,0.0,0.0,0.0,0.0,0.0,0.0,0.0,0.0,0.0,0.0,0.0,0.0,0.0,0.0,0.0,0.0,0.0,0.0,0.0,0.0,0.0,0.0,0.0,0.0,0.0,0.0,0.0,0.0,0.0,0.0,0.0,0.0,0.0,0.0,0.0,0.0,0.0,0.0,0.0,0.0,0.0,0.0,0.0,0.0,0.0,0.0,0.0,0.0,0.0,0.0,0.0,0.0,0.0,0.0,0.0,0.0,0.0,0.0,0.0,0.0,0.0,0.0,0.0,0.0,0.0,0.0,0.0,0.0,0.0,0.0,0.0,0.0,0.0,0.0,0.0,0.0,0.0,0.0,0.0,0.0,0.0,0.0,0.0,0.0,0.0,0.0,0.0,0.0,0.0,0.0,0.0,0.0,0.0,0.0,0.0,0.0,0.0,0.0,0.0,0.0,0.0,0.0,0.0,0.0,0.0,0.0,0.0,0.0,0.0,0.0,0.0,0.0,0.0,0.0,0.0,0.0,0.0,0.0,0.0,0.0,0.0,0.0,0.0,0.0,0.0,0.0,0.0,0.0,0.0,0.0,0.0,0.0,0.0,0.0,0.0,0.0,0.0,0.0,0.0,0.0,0.0,0.0,0.0,0.0,0.0,0.0,0.0,0.0,0.0,0.0,0.0,0.0,0.0,0.0,0.0,0.0,0.0,0.0,0.0,0.0,0.0,0.0,0.0,0.0,0.0,0.0,0.0,0.0,0.0,0.0,0.0,0.0,0.0,0.0,0.0,0.0,0.0,0.0,0.0,0.0,0.0,0.0,0.0,0.0,0.0,0.0,0.0,0.0,0.0,0.0,0.0,0.0,0.0,0.0,0.0,0.0,0.0,0.0,0.0,0.0,0.0,0.0,0.0,0.0,0.0,0.0,0.0,0.0,0.0,0.0,0.0,0.0,0.0,0.0,0.0,0.0,0.0,0.0,0.0,0.0,0.0,0.0,0.0,0.0,0.0,0.0,0.0,0.0,0.0,0.0,0.0,0.0,0.0,0.0,0.0,0.0,0.0,0.0,0.0,0.0,0.0,0.0,0.0,0.0,0.0,0.0,0.0,0.0,0.0,0.0,0.0,0.0,0.0,0.0,0.0,0.0,0.0,0.0,0.0,0.0,0.0,0.0,0.0,0.0,0.0,0.0,0.0,0.0,0.0,0.0,0.0,0.0,0.0,0.0,0.0,0.0,0.0,0.0,0.0,0.0,0.0,0.0,0.0,0.0,0.0,0.0,0.0,0.0,0.0,0.0,0.0,0.0,0.0,0.0,0.0,0.0,0.0,0.0,0.0,0.0,0.0,0.0,0.0,0.0,0.0,0.0,0.0,0.0,0.0,0.0,0.0,0.0,0.0,0.0,0.0,0.0,0.0,0.0,0.0,0.0,0.0,0.0,0.0,0.0,0.0,0.0,0.0,0.0,0.0,0.0,0.0,0.0,0.0,0.0,0.0,0.0,0.0,0.0,0.0,0.0,0.0,0.0,0.0,0.0,0.0,0.0,0.0,0.0,0.0,0.0,0.0,0.0,0.0,0.0,0.0,0.0,0.0,0.0,0.0,0.0,0.0,0.0,0.0,0.0,0.0,0.0,0.0,0.0,0.0,0.0,0.0,0.0,0.0,0.0,0.0,0.0,0.0,0.0,0.0,0.0,0.0,0.0,0.0,0.0,0.0,0.0,0.0,0.0,0.0,0.0,0.0,0.0,0.0,0.0,0.0,0.0,0.0,0.0,0.0,0.0,0.0,0.0,0.0,0.0,0.0,0.0,0.0,0.0,0.0,0.0,0.0,0.0,0.0,0.0,0.0,0.0,0.0,0.0,0.0,0.0,0.0,0.0,0.0,0.0,0.0,0.0,0.0,0.0,0.0,0.0,0.0,0.0,0.0,0.0,0.0,0.0,0.0,0.0,0.0,0.0,0.0,0.0,0.0,0.0,0.0,0.0,0.0,0.0,0.0,0.0,0.0,0.0,0.0,0.0,0.0,0.0,0.0,0.0,0.0,0.0,0.0,0.0,0.0,0.0,0.0,0.0,0.0,0.0,0.0,0.0,0.0,0.0,0.0,0.0,0.0,0.0,0.0,0.0,0.0,0.0,0.0,0.0,0.0,0.0,0.0,0.0,0.0,0.0,0.0,0.0,0.0,0.0,0.0,0.0,0.0,0.0,0.0,0.0,0.0,0.0,0.0,0.0,0.0,0.0,0.0,0.0,0.0,0.0,0.0,0.0,0.0,0.0,0.0,0.0,0.0,0.0,0.0,0.0,0.0,0.0,0.0,0.0,0.0,0.0,0.0,0.0,0.0,0.0,0.0,0.0,0.0,0.0,0.0,0.0,0.0,0.0,0.0,0.0,0.0,0.0,0.0,0.0,0.0,0.0,0.0,0.0,0.0,0.0,0.0,0.0,0.0,0.0,0.0,0.0,0.0,0.0,0.0,0.0,0.0,0.0,0.0,0.0,0.0,0.0,0.0,0.0,0.0,0.0,0.0,0.0,0.0,0.0,0.0,0.0,0.0,0.0,0.0,0.0,0.0,0.0,0.0,0.0,0.0,0.0,0.0,0.0,0.0,0.0,0.0,0.0,0.0,0.0,0.0,0.0,0.0,0.0,0.0,0.0,0.0,0.0,0.0,0.0,0.0,0.0,0.0,0.0,0.0,0.0,0.0,0.0,0.0,0.0,0.0,0.0,0.0,0.0,0.0,0.0,0.0,0.0,0.0,0.0,0.0,0.0,0.0,0.0,0.0,0.0,0.0,0.0,0.0,0.0,0.0,0.0,0.0,0.0,0.0,0.0,0.0,0.0,0.0,0.0,0.0,0.0,0.0,0.0,0.0,0.0,0.0,0.0,0.0,0.0,0.0,0.0,0.0,0.0,0.0,0.0,0.0,0.0,0.0,0.0,0.0,0.0,0.0,0.0,0.0,0.0,0.0,0.0,0.0,0.0,0.0,0.0,0.0,0.0,0.0,0.0,0.0,0.0,0.0,0.0,0.0,0.0,0.0,0.0,0.0,0.0,0.0,0.0,0.0,0.0,0.0,0.0,0.0,0.0,0.0,0.0,0.0,0.0,0.0,0.0,0.0,0.0,0.0,0.0,0.0,0.0,0.0,0.0,0.0,0.0,0.0,0.0,0.0,0.0,0.0,0.0,0.0,0.0,0.0,0.0,0.0,0.0,0.0,0.0,0.0,0.0,0.0,0.0,0.0,0.0,0.0,0.0,0.0,0.0,0.0,0.0,0.0,0.0,0.0,0.0,0.0,0.0,0.0,0.0,0.0,0.0,0.0,0.0,0.0,0.0,0.0,0.0,0.0,0.0,0.0,0.0,0.0,0.0,0.0,0.0,0.0,0.0,0.0,0.0,0.0,0.0,0.0,0.0,0.0,0.0,0.0,0.0,0.0,0.0,0.0,0.0,0.0,0.0,0.0,0.0,0.0,0.0,0.0,0.0,0.0,0.0,0.0,0.0,0.0,0.0,0.0,0.0,0.0,0.0,0.0,0.0,0.0,0.0,0.0,0.0,0.0,0.0,0.0,0.0,0.0,0.0,0.0,0.0,0.0,0.0,0.0,0.0,0.0,0.0,0.0,0.0,0.0,0.0,0.0,0.0,0.0,0.0,0.0,0.0,0.0,0.0,0.0,0.0,0.0,0.0,0.0,0.0,0.0,0.0,0.0,0.0,0.0,0.0,0.0,0.0,0.0,0.0,0.0,0.0,0.0,0.0,0.0,0.0,0.0,0.0,0.0,0.0,0.0,0.0,0.0,0.0,0.0,0.0,0.0,0.0,0.0,0.0,0.0,0.0,0.0,0.0,0.0,0.0,0.0,0.0,0.0,0.0,0.0,0.0,0.0,0.0,0.0,0.0,0.0,0.0,0.0,0.0,0.0,0.0,0.0,0.0,0.0,0.0,0.0,0.0,0.0,0.0,0.0,0.0,0.0,0.0,0.0,0.0,0.0,0.0,0.0,0.0,0.0,0.0,0.0,0.0,0.0,0.0,0.0,0.0,0.0,0.0,0.0,0.0,0.0,0.0,0.0,0.0,0.0,0.0,0.0,0.0,0.0,0.0,0.0,0.0,0.0,0.0,0.0,0.0,0.0,0.0,0.0,0.0,0.0,0.0,0.0,0.0,0.0,0.0,0.0,0.0,0.0,0.0,0.0,0.0,0.0,0.0,0.0,0.0,0.0,-1.1443,0.0,0.0,0.0,0.0,0.0,0.0,0.0,0.0,0.0,0.0,0.0,0.0,0.0,0.0,0.0,0.0,0.0,0.0,0.0,0.0,0.0,0.0,0.0,0.0,0.0,0.0,0.0,0.0,0.0,0.0,0.0,0.0,0.0,0.0,0.0,0.0,0.0,0.0,0.0,0.0,0.0,0.0,0.0,0.0,0.0,0.0,0.0,0.0,0.0,0.0,0.0,0.0,0.0,0.0,0.0,0.0,0.0,0.0,0.0,0.0,0.0,0.0,0.0,0.0,0.0,0.0,0.0,0.0,0.0,0.0,0.0,0.0,0.0,0.0,0.0,0.0,0.0,0.0,0.0,0.0,0.0,0.0,0.0,0.0,0.0,0.0,0.0,0.0,0.0,0.0,0.0,0.0,0.0,0.0,0.0,0.0,0.0,0.0,0.0,0.0,0.0,0.0,0.0,0.0,0.0,0.0,0.0,0.0,0.0,0.0,-1.2015,-1.1757,-1.1709,-1.1886,-1.2235,0.0,0.0,0.0,0.0,0.0,0.0,0.0,0.0,0.0,0.0,0.0,0.0,0.0,0.0,0.0,0.0,0.0,0.0,0.0,0.0,0.0,0.0,0.0,0.0,0.0,0.0,0.0,0.0,0.0,0.0,0.0,0.0,0.0,0.0,0.0,0.0,0.0,0.0,0.0,0.0,0.0,0.0,0.0,0.0,0.0,0.0,0.0,0.0,0.0,0.0,0.0,0.0,0.0,0.0,0.0,0.0,0.0,0.0,0.0,0.0,0.0,0.0,0.0,0.0,0.0,0.0,0.0,0.0,0.0,0.0,0.0,0.0,0.0,0.0,0.0,0.0,0.0,0.0,0.0,0.0,0.0,0.0,0.0,0.0,0.0,0.0,0.0,0.0,0.0,0.0,0.0,0.0,0.0,0.0,0.0,0.0,0.0,0.0,0.0,0.0,0.0,0.0,0.0,0.0,0.0,0.0,0.0,0.0,0.0,0.0,0.0,0.0,-1.2875,-1.2875,-1.2875,0.0,0.0,0.0,0.0,0.0,0.0,0.0,0.0,0.0,0.0,0.0,0.0,0.0,0.0,0.0,0.0,0.0,0.0,0.0,0.0,0.0,0.0,0.0,0.0,0.0,0.0,0.0,0.0,0.0,0.0,0.0,0.0,0.0,0.0,0.0,0.0,0.0,0.0,0.0,0.0,0.0,0.0,0.0,0.0,0.0,0.0,0.0,0.0,0.0,0.0,0.0,0.0,0.0,0.0,0.0,0.0,0.0,0.0,0.0,0.0,0.0,0.0,0.0,0.0,0.0,0.0,0.0,0.0,0.0,0.0,0.0,0.0,0.0,0.0,0.0,0.0,0.0,0.0,0.0,0.0,0.0,0.0,0.0,0.0,0.0,0.0,0.0,0.0,0.0,0.0,0.0,0.0,0.0,0.0,0.0,0.0,0.0,0.0,0.0,0.0,0.0,0.0,0.0,0.0,0.0,0.0,0.0,0.0,0.0,0.0,-1.3355,-1.3349,-1.3349,0.0,-1.3336,0.0,0.0,0.0,0.0,0.0,0.0,0.0,0.0,0.0,0.0,0.0,0.0,0.0,0.0,0.0,0.0,0.0,0.0,0.0,0.0,0.0,0.0,0.0,0.0,0.0,0.0,0.0,0.0,0.0,0.0,0.0,0.0,0.0,0.0,0.0,0.0,0.0,0.0,0.0,0.0,0.0,0.0,0.0,0.0,0.0,0.0,0.0,0.0,0.0,0.0,0.0,0.0,0.0,0.0,0.0,0.0,0.0,0.0,0.0,0.0,0.0,0.0,0.0,0.0,0.0,0.0,0.0,0.0,0.0,0.0,0.0,0.0,0.0,0.0,0.0,0.0,0.0,0.0,0.0,0.0,0.0,0.0,0.0,0.0,0.0,0.0,0.0,0.0,0.0,0.0,0.0,0.0,0.0,0.0,0.0,0.0,0.0,0.0,0.0,0.0,0.0,0.0,0.0,0.0,0.0,0.0,0.0,0.0,0.0,0.0,-1.4062,-1.3808,-1.3935,-1.4068,0.0,0.0,0.0,0.0,0.0,0.0,0.0,0.0,0.0,0.0,0.0,0.0,0.0,0.0,0.0,0.0,0.0,0.0,0.0,0.0,0.0,0.0,0.0,0.0,0.0,0.0,0.0,0.0,0.0,0.0,0.0,0.0,0.0,0.0,0.0,0.0,0.0,0.0,0.0,0.0,0.0,0.0,0.0,0.0,0.0,0.0,0.0,0.0,0.0,0.0,0.0,0.0,0.0,0.0,0.0,0.0,0.0,0.0,0.0,0.0,0.0,0.0,0.0,0.0,0.0,0.0,0.0,0.0,0.0,0.0,0.0,0.0,0.0,0.0,0.0,0.0,0.0,0.0,0.0,0.0,0.0,0.0,0.0,0.0,0.0,0.0,0.0,0.0,0.0,0.0,0.0,0.0,0.0,0.0,0.0,0.0,0.0,0.0,0.0,0.0,0.0,0.0,0.0,0.0,0.0,0.0,0.0,0.0,0.0,0.0,-1.5235,-1.4977,-1.4678,-1.4852,-1.5019,-1.5144,0.0,0.0,0.0,0.0,0.0,0.0,0.0,0.0,0.0,0.0,0.0,0.0,0.0,0.0,0.0,0.0,0.0,0.0,0.0,0.0,0.0,0.0,0.0,0.0,0.0,0.0,0.0,0.0,0.0,0.0,0.0,0.0,0.0,0.0,0.0,0.0,0.0,0.0,0.0,0.0,0.0,0.0,0.0,0.0,0.0,0.0,0.0,0.0,0.0,0.0,0.0,0.0,0.0,0.0,0.0,0.0,0.0,0.0,0.0,0.0,0.0,0.0,0.0,0.0,0.0,0.0,0.0,0.0,0.0,0.0,0.0,0.0,0.0,0.0,0.0,0.0,0.0,0.0,0.0,0.0,0.0,0.0,0.0,0.0,0.0,0.0,0.0,0.0,0.0,0.0,0.0,0.0,0.0,0.0,0.0,0.0,0.0,0.0,0.0,0.0,0.0,0.0,0.0,0.0,0.0,0.0,0.0,0.0,-1.6098,-1.6229,-1.6229,-1.6015,-1.6229,-1.6312,0.0,0.0,0.0,0.0,0.0,0.0,0.0,0.0,0.0,0.0,0.0,0.0,0.0,0.0,0.0,0.0,0.0,0.0,0.0,0.0,0.0,0.0,0.0,0.0,0.0,0.0,0.0,0.0,0.0,0.0,0.0,0.0,0.0,0.0,0.0,0.0,0.0,0.0,0.0,0.0,0.0,0.0,0.0,0.0,0.0,0.0,0.0,0.0,0.0,0.0,0.0,0.0,0.0,0.0,0.0,0.0,0.0,0.0,0.0,0.0,0.0,0.0,0.0,0.0,0.0,0.0,0.0,0.0,0.0,0.0,0.0,0.0,0.0,0.0,0.0,0.0,0.0,0.0,0.0,0.0,0.0,0.0,0.0,0.0,0.0,0.0,0.0,0.0,0.0,0.0,0.0,0.0,0.0,0.0,0.0,0.0,0.0,0.0,0.0,0.0,0.0,0.0,0.0,0.0,0.0,0.0,0.0,0.0,0.0,-1.7335,-1.7164,-1.6992,-1.6952,-1.7123,-1.7294,0.0,0.0,0.0,0.0,0.0,0.0,0.0,0.0,0.0,0.0,0.0,0.0,0.0,0.0,0.0,0.0,0.0,0.0,0.0,0.0,0.0,0.0,0.0,0.0,0.0,0.0,0.0,0.0,0.0,0.0,0.0,0.0,0.0,0.0,0.0,0.0,0.0,0.0,0.0,0.0,0.0,0.0,0.0,0.0,0.0,0.0,0.0,0.0,0.0,0.0,0.0,0.0,0.0,0.0,0.0,0.0,0.0,0.0,0.0,0.0,0.0,0.0,0.0,0.0,0.0,0.0,0.0,0.0,0.0,0.0,0.0,0.0,0.0,0.0,0.0,0.0,0.0,0.0,0.0,0.0,0.0,0.0,0.0,0.0,0.0,0.0,0.0,0.0,0.0,0.0,0.0,0.0,0.0,0.0,0.0,0.0,0.0,0.0,0.0,0.0,0.0,0.0,0.0,0.0,0.0,0.0,0.0,0.0,0.0,-1.8322,0.0,-1.7772,-1.7821,-1.8023,-1.8184,0.0,0.0,0.0,0.0,0.0,0.0,0.0,0.0,0.0,0.0,0.0,0.0,0.0,0.0,0.0,0.0,0.0,0.0,0.0,0.0,0.0,0.0,0.0,0.0,0.0,0.0,0.0,0.0,0.0,0.0,0.0,0.0,0.0,0.0,0.0,0.0,0.0,0.0,0.0,0.0,0.0,0.0,0.0,0.0,0.0,0.0,0.0,0.0,0.0,0.0,0.0,0.0,0.0,0.0,0.0,0.0,0.0,0.0,0.0,0.0,0.0,0.0,0.0,0.0,0.0,0.0,0.0,0.0,0.0,0.0,0.0,0.0,0.0,0.0,0.0,0.0,0.0,0.0,0.0,0.0,0.0,0.0,0.0,0.0,0.0,0.0,0.0,0.0,0.0,0.0,0.0,0.0,0.0,0.0,0.0,0.0,0.0,0.0,0.0,0.0,0.0,0.0,0.0,0.0,0.0,0.0,0.0,0.0,-1.9417,-1.9011,-1.862,-1.85,-1.87,-1.8882,-1.9002,0.0,0.0,0.0,0.0,0.0,0.0,0.0,0.0,0.0,0.0,0.0,0.0,0.0,0.0,0.0,0.0,0.0,0.0,0.0,0.0,0.0,0.0,0.0,0.0,0.0,0.0,0.0,0.0,0.0,0.0,0.0,0.0,0.0,0.0,0.0,0.0,0.0,0.0,0.0,0.0,0.0,0.0,0.0,0.0,0.0,0.0,0.0,0.0,0.0,0.0,0.0,0.0,0.0,0.0,0.0,0.0,0.0,0.0,0.0,0.0,0.0,0.0,0.0,0.0,0.0,0.0,0.0,0.0,0.0,0.0,0.0,0.0,0.0,0.0,0.0,0.0,0.0,0.0,0.0,0.0,0.0,0.0,0.0,0.0,0.0,0.0,0.0,0.0,0.0,0.0,0.0,0.0,0.0,0.0,0.0,0.0,0.0,0.0,0.0,0.0,0.0,0.0,0.0,0.0,0.0,0.0,0.0,0.0,0.0,-1.9611,-1.9498,-1.9322,-1.913,-1.9192,-1.9319,0.0,0.0,0.0,0.0,0.0,0.0,0.0,0.0,0.0,0.0,0.0,0.0,0.0,0.0,0.0,0.0,0.0,0.0,0.0,0.0,0.0,0.0,0.0,0.0,0.0,0.0,0.0,0.0,0.0,0.0,0.0,0.0,0.0,0.0,0.0,0.0,0.0,0.0,0.0,0.0,0.0,0.0,0.0,0.0,0.0,0.0,0.0,0.0,0.0,0.0,0.0,0.0,0.0,0.0,0.0,0.0,0.0,0.0,0.0,0.0,0.0,0.0,0.0,0.0,0.0,0.0,0.0,0.0,0.0,0.0,0.0,0.0,0.0,0.0,0.0,0.0,0.0,0.0,0.0,0.0,0.0,0.0,0.0,0.0,0.0,0.0,0.0,0.0,0.0,0.0,0.0,0.0,0.0,0.0,0.0,0.0,0.0,0.0,0.0,0.0,0.0,0.0,0.0,0.0,0.0,0.0,0.0,0.0,0.0,-2.0625,-2.0476,-2.0198,-1.9771,-1.9771,-1.9826,-1.9888,0.0,0.0,0.0,0.0,0.0,0.0,0.0,0.0,0.0,0.0,0.0,0.0,0.0,0.0,0.0,0.0,0.0,0.0,0.0,0.0,0.0,0.0,0.0,0.0,0.0,0.0,0.0,0.0,0.0,0.0,0.0,0.0,0.0,0.0,0.0,0.0,0.0,0.0,0.0,0.0,0.0,0.0,0.0,0.0,0.0,0.0,0.0,0.0,0.0,0.0,0.0,0.0,0.0,0.0,0.0,0.0,0.0,0.0,0.0,0.0,0.0,0.0,0.0,0.0,0.0,0.0,0.0,0.0,0.0,0.0,0.0,0.0,0.0,0.0,0.0,0.0,0.0,0.0,0.0,0.0,0.0,0.0,0.0,0.0,0.0,0.0,0.0,0.0,0.0,0.0,0.0,0.0,0.0,0.0,0.0,0.0,0.0,0.0,0.0,0.0,0.0,0.0,0.0,0.0,0.0,0.0,0.0,0.0,-2.195,-2.1625,-2.1247,-2.0735,-2.0657,-2.0467,0.0,0.0,0.0,0.0,0.0,0.0,0.0,0.0,0.0,0.0,0.0,0.0,0.0,0.0,0.0,0.0,0.0,0.0,0.0,0.0,0.0,0.0,0.0,0.0,0.0,0.0,0.0,0.0,0.0,0.0,0.0,0.0,0.0,0.0,0.0,0.0,0.0,0.0,0.0,0.0,0.0,0.0,0.0,0.0,0.0,0.0,0.0,0.0,0.0,0.0,0.0,0.0,0.0,0.0,0.0,0.0,0.0,0.0,0.0,0.0,0.0,0.0,0.0,0.0,0.0,0.0,0.0,0.0,0.0,0.0,0.0,0.0,0.0,0.0,0.0,0.0,0.0,0.0,0.0,0.0,0.0,0.0,0.0,0.0,0.0,0.0,0.0,0.0,0.0,0.0,0.0,0.0,0.0,0.0,0.0,0.0,0.0,0.0,0.0,0.0,0.0,0.0,0.0,0.0,0.0,0.0,0.0,0.0,0.0,-2.3791,-2.4314,-2.3774,-2.2169,-2.1398,-2.145,0.0,0.0,0.0,0.0,0.0,0.0,0.0,0.0,0.0,0.0,0.0,0.0,0.0,0.0,0.0,0.0,0.0,0.0,0.0,0.0,0.0,0.0,0.0,0.0,0.0,0.0,0.0,0.0,0.0,0.0,0.0,0.0,0.0,0.0,0.0,0.0,0.0,0.0,0.0,0.0,0.0,0.0,0.0,0.0,0.0,0.0,0.0,0.0,0.0,0.0,0.0,0.0,0.0,0.0,0.0,0.0,0.0,0.0,0.0,0.0,0.0,0.0,0.0,0.0,0.0,0.0,0.0,0.0,0.0,0.0,0.0,0.0,0.0,0.0,0.0,0.0,0.0,0.0,0.0,0.0,0.0,0.0,0.0,0.0,0.0,0.0,0.0,0.0,0.0,0.0,0.0,0.0,0.0,0.0,0.0,0.0,0.0,0.0,0.0,0.0,0.0,0.0,0.0,0.0,0.0,0.0,0.0,0.0,-2.4525,-2.4797,-2.5453,-2.5391,-2.4553,-2.306,-2.2571,0.0,0.0,0.0,0.0,0.0,0.0,0.0,0.0,0.0,0.0,0.0,0.0,0.0,0.0,0.0,0.0,0.0,0.0,0.0,0.0,0.0,0.0,0.0,0.0,0.0,0.0,0.0,0.0,0.0,0.0,0.0,0.0,0.0,0.0,0.0,0.0,0.0,0.0,0.0,0.0,0.0,0.0,0.0,0.0,0.0,0.0,0.0,0.0,0.0,0.0,0.0,0.0,0.0,0.0,0.0,0.0,0.0,0.0,0.0,0.0,0.0,0.0,0.0,0.0,0.0,0.0,0.0,0.0,0.0,0.0,0.0,0.0,0.0,0.0,0.0,0.0,0.0,0.0,0.0,0.0,0.0,0.0,0.0,0.0,0.0,0.0,0.0,0.0,0.0,0.0,0.0,0.0,0.0,0.0,0.0,0.0,0.0,0.0,0.0,0.0,0.0,0.0,0.0,0.0,0.0,0.0,0.0,0.0,-2.5401,-2.5401,-2.5883,-2.6494,-2.7232,-2.5073,-2.3752,0.0,0.0,0.0,0.0,0.0,0.0,0.0,0.0,0.0,0.0,0.0,0.0,0.0,0.0,0.0,0.0,0.0,0.0,0.0,0.0,0.0,0.0,0.0,0.0,0.0,0.0,0.0,0.0,0.0,0.0,0.0,0.0,0.0,0.0,0.0,0.0,0.0,0.0,0.0,0.0,0.0,0.0,0.0,0.0,0.0,0.0,0.0,0.0,0.0,0.0,0.0,0.0,0.0,0.0,0.0,0.0,0.0,0.0,0.0,0.0,0.0,0.0,0.0,0.0,0.0,0.0,0.0,0.0,0.0,0.0,0.0,0.0,0.0,0.0,0.0,0.0,0.0,0.0,0.0,0.0,0.0,0.0,0.0,0.0,0.0,0.0,0.0,0.0,0.0,0.0,0.0,0.0,0.0,0.0,0.0,0.0,0.0,0.0,0.0,0.0,0.0,0.0,0.0,0.0,0.0,0.0,0.0,0.0,-2.6588,-2.6764,-2.7551,-2.8007,-2.8219,-2.5633,-2.4653,0.0,0.0,0.0,0.0,0.0,0.0,0.0,0.0,0.0,0.0,0.0,0.0,0.0,0.0,0.0,0.0,0.0,0.0,0.0,0.0,0.0,0.0,0.0,0.0,0.0,0.0,0.0,0.0,0.0,0.0,0.0,0.0,0.0,0.0,0.0,0.0,0.0,0.0,0.0,0.0,0.0,0.0,0.0,0.0,0.0,0.0,0.0,0.0,-2.5078,0.0,0.0,0.0,0.0,0.0,0.0,0.0,0.0,0.0,0.0,0.0,0.0,0.0,0.0,0.0,0.0,0.0,0.0,0.0,0.0,0.0,0.0,0.0,0.0,0.0,0.0,0.0,0.0,0.0,0.0,0.0,0.0,0.0,0.0,0.0,0.0,0.0,0.0,0.0,0.0,0.0,0.0,0.0,0.0,0.0,0.0,0.0,0.0,0.0,0.0,0.0,0.0,0.0,0.0,0.0,0.0,0.0,0.0,0.0,-2.7255,-2.7522,-2.8151,-2.851,-2.8447,-2.6676,-2.5805,0.0,0.0,0.0,0.0,0.0,0.0,0.0,0.0,0.0,0.0,0.0,0.0,0.0,0.0,0.0,0.0,0.0,0.0,0.0,0.0,0.0,0.0,0.0,0.0,0.0,0.0,0.0,0.0,0.0,0.0,0.0,0.0,0.0,0.0,0.0,0.0,0.0,0.0,0.0,0.0,0.0,0.0,0.0,0.0,0.0,0.0,0.0,0.0,0.0,0.0,0.0,0.0,0.0,0.0,0.0,0.0,0.0,0.0,0.0,0.0,0.0,0.0,0.0,0.0,0.0,0.0,0.0,0.0,0.0,0.0,0.0,0.0,0.0,0.0,0.0,0.0,0.0,0.0,0.0,0.0,0.0,0.0,0.0,0.0,0.0,0.0,0.0,0.0,0.0,0.0,0.0,0.0,0.0,0.0,0.0,0.0,0.0,0.0,0.0,0.0,0.0,0.0,0.0,0.0,0.0,0.0,0.0,-2.7482,-2.7696,-2.8002,-2.8311,-2.851,-2.851,-2.7711,-2.6952,-2.6267,0.0,0.0,0.0,0.0,0.0,0.0,0.0,0.0,0.0,0.0,0.0,0.0,0.0,0.0,0.0,0.0,0.0,0.0,0.0,0.0,0.0,0.0,0.0,0.0,0.0,0.0,0.0,0.0,0.0,0.0,0.0,0.0,0.0,0.0,0.0,0.0,0.0,0.0,-2.8243,-2.8243,0.0,0.0,0.0,0.0,0.0,0.0,0.0,0.0,-2.8379,0.0,0.0,0.0,0.0,0.0,0.0,0.0,0.0,0.0,0.0,0.0,0.0,0.0,0.0,0.0,0.0,0.0,0.0,0.0,0.0,0.0,0.0,0.0,0.0,0.0,0.0,0.0,0.0,0.0,0.0,0.0,0.0,0.0,0.0,0.0,0.0,0.0,0.0,0.0,0.0,0.0,0.0,0.0,0.0,0.0,0.0,0.0,0.0,0.0,0.0,0.0,0.0,0.0,0.0,0.0,0.0,-2.776,-2.7841,-2.803,-2.8391,-2.8471,-2.851,-2.851,-2.8176,-2.768,-2.6952,0.0,0.0,0.0,0.0,0.0,0.0,0.0,0.0,0.0,0.0,0.0,0.0,0.0,0.0,0.0,0.0,0.0,0.0,0.0,0.0,0.0,0.0,0.0,0.0,0.0,0.0,0.0,0.0,0.0,0.0,0.0,0.0,0.0,0.0,0.0,0.0,0.0,0.0,0.0,-2.878,-2.8844,0.0,0.0,0.0,0.0,0.0,0.0,0.0,0.0,-2.872,0.0,0.0,0.0,0.0,0.0,0.0,0.0,0.0,0.0,0.0,0.0,0.0,0.0,0.0,0.0,0.0,0.0,0.0,0.0,0.0,0.0,0.0,0.0,0.0,0.0,0.0,0.0,0.0,0.0,0.0,0.0,0.0,0.0,0.0,0.0,0.0,0.0,0.0,0.0,0.0,0.0,0.0,0.0,0.0,0.0,0.0,0.0,0.0,0.0,0.0,0.0,0.0,0.0,0.0,0.0,-2.7893,-2.799,-2.8191,-2.851,-2.851,-2.851,-2.851,-2.8299,-2.7957,0.0,0.0,0.0,0.0,0.0,0.0,0.0,0.0,0.0,0.0,0.0,0.0,0.0,0.0,0.0,0.0,0.0,0.0,0.0,0.0,0.0,0.0,0.0,0.0,0.0,0.0,0.0,0.0,0.0,0.0,0.0,0.0,0.0,0.0,0.0,0.0,0.0,0.0,0.0,0.0,-2.923,-2.923,-2.9637,0.0,0.0,0.0,0.0,0.0,0.0,-2.9543,-2.9574,0.0,0.0,0.0,0.0,0.0,0.0,0.0,0.0,0.0,0.0,0.0,0.0,0.0,0.0,0.0,0.0,0.0,0.0,0.0,0.0,0.0,0.0,0.0,0.0,0.0,0.0,0.0,0.0,0.0,0.0,0.0,0.0,0.0,0.0,0.0,0.0,0.0,0.0,0.0,0.0,0.0,0.0,0.0,0.0,0.0,0.0,0.0,0.0,0.0,0.0,0.0,0.0,0.0,0.0,0.0,-2.7893,-2.8111,-2.8299,-2.851,-2.851,-2.851,-2.851,-2.8287,-2.8084,0.0,0.0,0.0,0.0,0.0,0.0,0.0,0.0,0.0,0.0,0.0,0.0,0.0,0.0,0.0,0.0,0.0,0.0,0.0,0.0,0.0,0.0,0.0,0.0,0.0,0.0,0.0,0.0,0.0,0.0,0.0,0.0,0.0,0.0,0.0,0.0,0.0,0.0,0.0,0.0,0.0,-2.967,-2.9931,-3.0023,0.0,0.0,0.0,0.0,-3.0296,-3.0266,0.0,0.0,0.0,0.0,0.0,0.0,0.0,0.0,0.0,0.0,0.0,0.0,0.0,0.0,0.0,0.0,0.0,0.0,0.0,0.0,0.0,0.0,0.0,0.0,0.0,0.0,0.0,0.0,0.0,0.0,0.0,0.0,0.0,0.0,0.0,0.0,0.0,0.0,0.0,0.0,0.0,0.0,0.0,0.0,0.0,0.0,0.0,0.0,0.0,0.0,0.0,0.0,0.0,0.0,0.0,0.0,-2.7893,-2.8111,-2.8287,-2.8471,-2.851,-2.851,-2.851,-2.8299,-2.8263,0.0,0.0,0.0,0.0,0.0,0.0,0.0,0.0,0.0,0.0,0.0,0.0,0.0,0.0,0.0,0.0,0.0,0.0,0.0,0.0,0.0,0.0,0.0,0.0,0.0,0.0,0.0,0.0,0.0,0.0,0.0,0.0,0.0,0.0,0.0,0.0,0.0,0.0,0.0,0.0,0.0,-3.0539,-3.0493,-3.0837,-3.0925,0.0,0.0,-3.0296,-3.0296,-3.0189,0.0,0.0,0.0,0.0,0.0,0.0,0.0,0.0,0.0,0.0,0.0,0.0,0.0,0.0,0.0,0.0,0.0,0.0,0.0,0.0,0.0,0.0,0.0,0.0,0.0,0.0,0.0,0.0,0.0,0.0,0.0,0.0,0.0,0.0,0.0,0.0,0.0,0.0,0.0,0.0,0.0,0.0,0.0,0.0,0.0,0.0,0.0,0.0,0.0,0.0,0.0,0.0,0.0,0.0,0.0,-2.7926,-2.807,-2.8271,-2.8431,-2.851,-2.851,-2.851,-2.851,-2.8299,-2.8419,0.0,0.0,0.0,0.0,0.0,0.0,0.0,0.0,0.0,0.0,0.0,0.0,0.0,0.0,0.0,0.0,0.0,0.0,0.0,0.0,0.0,0.0,0.0,0.0,0.0,0.0,0.0,0.0,0.0,0.0,0.0,0.0,0.0,0.0,0.0,0.0,0.0,0.0,0.0,0.0,0.0,0.0,-3.1219,-3.1189,0.0,0.0,0.0,-3.0984,-3.0984,0.0,0.0,0.0,0.0,0.0,0.0,0.0,0.0,0.0,0.0,0.0,0.0,0.0,0.0,0.0,0.0,0.0,0.0,0.0,0.0,0.0,0.0,0.0,0.0,0.0,0.0,0.0,0.0,0.0,0.0,0.0,0.0,0.0,0.0,0.0,0.0,0.0,0.0,0.0,0.0,0.0,0.0,0.0,0.0,0.0,0.0,0.0,0.0,0.0,0.0,0.0,0.0,0.0,0.0,0.0,0.0,0.0,-2.8219,-2.8391,-2.851,-2.851,-2.851,-2.851,-2.851,-2.8339,0.0,0.0,0.0,0.0,0.0,0.0,0.0,0.0,0.0,0.0,0.0,0.0,0.0,0.0,0.0,0.0,0.0,0.0,0.0,0.0,0.0,0.0,0.0,0.0,0.0,0.0,0.0,-2.8894,0.0,0.0,0.0,0.0,0.0,0.0,0.0,0.0,0.0,0.0,0.0,0.0,0.0,0.0,-3.165,-3.1751,-3.1751,-3.1849,0.0,0.0,-3.1737,-3.1766,-3.2216,-3.2585,0.0,0.0,0.0,0.0,0.0,0.0,0.0,0.0,0.0,0.0,0.0,0.0,0.0,0.0,0.0,0.0,0.0,0.0,0.0,0.0,0.0,0.0,0.0,0.0,0.0,0.0,0.0,0.0,0.0,0.0,0.0,0.0,0.0,0.0,0.0,0.0,0.0,0.0,0.0,0.0,0.0,0.0,0.0,0.0,0.0,0.0,0.0,0.0,0.0,0.0,0.0,0.0,0.0,0.0,0.0,-2.8219,-2.8391,-2.851,-2.851,-2.851,-2.851,-2.851,-2.8459,-2.8645,0.0,0.0,0.0,0.0,0.0,0.0,0.0,0.0,0.0,0.0,0.0,0.0,0.0,0.0,0.0,0.0,0.0,0.0,0.0,0.0,0.0,0.0,0.0,0.0,0.0,0.0,0.0,0.0,0.0,0.0,0.0,0.0,0.0,0.0,0.0,0.0,0.0,0.0,0.0,0.0,0.0,-3.2489,-3.1949,-3.2617,-3.3011,0.0,0.0,-3.2382,-3.252,-3.2465,-3.2628,-3.3233,0.0,0.0,0.0,0.0,0.0,0.0,0.0,0.0,0.0,0.0,0.0,0.0,0.0,0.0,0.0,0.0,0.0,0.0,0.0,0.0,0.0,0.0,0.0,0.0,0.0,0.0,0.0,0.0,0.0,0.0,0.0,0.0,0.0,0.0,0.0,0.0,0.0,0.0,0.0,0.0,0.0,0.0,0.0,0.0,0.0,0.0,0.0,0.0,0.0,0.0,0.0,0.0,0.0,-2.8391,-2.8391,-2.8471,-2.8354,-2.8002,-2.8017,-2.7822,-2.7498,-2.7498,-2.7652,0.0,0.0,0.0,0.0,0.0,0.0,0.0,0.0,0.0,0.0,0.0,0.0,0.0,0.0,0.0,0.0,0.0,0.0,0.0,0.0,0.0,0.0,0.0,0.0,0.0,0.0,0.0,0.0,-3.0464,-3.0955,-3.1043,0.0,0.0,0.0,0.0,0.0,0.0,0.0,0.0,0.0,0.0,-3.2857,-3.298,-3.314,0.0,0.0,-3.3124,-3.3052,-3.3451,-3.3801,-3.425,-3.4995,-3.4911,0.0,0.0,0.0,0.0,0.0,0.0,0.0,0.0,0.0,0.0,0.0,0.0,0.0,0.0,0.0,0.0,0.0,0.0,0.0,0.0,0.0,0.0,0.0,0.0,0.0,0.0,0.0,0.0,0.0,0.0,0.0,0.0,0.0,0.0,0.0,0.0,0.0,0.0,0.0,0.0,0.0,0.0,0.0,0.0,0.0,0.0,0.0,0.0,0.0,0.0,0.0,0.0,-2.8114,-2.8337,-2.8126,-2.7861,-2.7488,-2.745,-2.727,-2.691,-2.6885,-2.6998,0.0,0.0,0.0,0.0,0.0,0.0,0.0,0.0,0.0,0.0,0.0,0.0,0.0,0.0,0.0,0.0,0.0,0.0,0.0,0.0,0.0,0.0,0.0,0.0,0.0,0.0,0.0,0.0,-3.0925,-3.1478,-3.1638,0.0,0.0,0.0,0.0,0.0,0.0,0.0,0.0,0.0,0.0,-3.3282,-3.3862,-3.3757,-3.3837,-3.4406,-3.4181,-3.4127,-3.4596,-3.5059,-3.5573,-3.607,0.0,0.0,0.0,0.0,0.0,0.0,0.0,0.0,0.0,0.0,0.0,0.0,0.0,0.0,0.0,0.0,0.0,0.0,0.0,0.0,0.0,0.0,0.0,0.0,0.0,0.0,0.0,0.0,0.0,0.0,-2.2402,0.0,0.0,0.0,0.0,0.0,0.0,0.0,0.0,0.0,0.0,0.0,0.0,0.0,0.0,0.0,0.0,0.0,0.0,0.0,0.0,0.0,0.0,-2.7312,-2.8001,-2.7336,-2.6934,-2.691,-2.6922,-2.6885,-2.6861,-2.6873,-2.6986,-2.7174,0.0,0.0,0.0,0.0,0.0,0.0,0.0,0.0,0.0,0.0,0.0,0.0,0.0,0.0,0.0,0.0,0.0,0.0,0.0,0.0,0.0,0.0,0.0,0.0,0.0,0.0,-3.0984,-3.1277,-3.161,0.0,0.0,0.0,0.0,0.0,0.0,0.0,0.0,0.0,0.0,-3.3424,-3.3872,-3.4404,-3.4596,-3.4931,-3.5614,-3.5699,-3.5785,-3.5894,-3.612,-3.6217,0.0,0.0,0.0,0.0,0.0,0.0,0.0,0.0,0.0,0.0,0.0,0.0,0.0,0.0,0.0,0.0,0.0,0.0,0.0,0.0,0.0,0.0,0.0,0.0,0.0,0.0,0.0,-2.042,-2.0576,0.0,0.0,0.0,0.0,0.0,0.0,0.0,0.0,0.0,0.0,0.0,-2.5312,-2.5312,0.0,0.0,0.0,0.0,0.0,0.0,0.0,0.0,0.0,0.0,0.0,0.0,-2.7678,-2.7758,-2.72,-2.6717,-2.6394,-2.637,-2.6202,-2.5829,-2.5853,-2.5853,-2.5949,0.0,0.0,0.0,0.0,0.0,0.0,0.0,0.0,0.0,0.0,0.0,0.0,0.0,0.0,0.0,0.0,0.0,0.0,0.0,0.0,0.0,0.0,0.0,0.0,0.0,-3.1593,0.0,0.0,0.0,0.0,0.0,0.0,0.0,0.0,0.0,0.0,0.0,-3.3096,-3.3319,-3.3779,-3.4223,-3.4585,-3.5177,-3.5498,0.0,0.0,0.0,0.0,0.0,0.0,0.0,0.0,0.0,0.0,0.0,0.0,0.0,0.0,-3.6055,-3.6055,-3.532,-3.4633,-3.4555,0.0,0.0,0.0,0.0,0.0,0.0,0.0,0.0,0.0,0.0,0.0,0.0,0.0,0.0,-2.0303,0.0,-2.1049,0.0,0.0,0.0,0.0,0.0,0.0,0.0,0.0,-2.5218,-2.5241,-2.5312,-2.5312,-2.5312,0.0,-2.5312,-2.5312,0.0,0.0,0.0,0.0,0.0,0.0,0.0,0.0,-2.7388,-2.7468,-2.6768,-2.619,-2.5841,-2.5829,-2.5661,-2.5324,-2.5312,-2.5312,-2.5312,-2.55,-2.5606,0.0,0.0,0.0,0.0,0.0,0.0,0.0,0.0,0.0,0.0,0.0,0.0,0.0,0.0,0.0,0.0,0.0,0.0,0.0,0.0,0.0,0.0,0.0,-3.2092,0.0,0.0,0.0,0.0,0.0,0.0,0.0,0.0,0.0,-3.326,-3.3408,-3.3683,-3.3879,-3.4277,-3.4765,-3.5368,0.0,0.0,0.0,0.0,0.0,0.0,0.0,-3.7277,-3.763,-3.727,-3.6865,-3.6632,-3.6432,-3.6157,-3.5655,0.0,0.0,-3.6254,-3.5525,-3.4836,-3.4784,-3.4549,-3.432,-3.4301,-3.3999,-3.3771,0.0,0.0,0.0,0.0,0.0,0.0,0.0,0.0,-1.9902,-2.0255,0.0,-2.0489,0.0,0.0,0.0,0.0,0.0,-2.5087,0.0,0.0,-2.5123,-2.5182,-2.5312,-2.5312,-2.5312,-2.5312,-2.5312,-2.5312,-2.5312,-2.5312,0.0,0.0,0.0,0.0,0.0,0.0,-2.648,-2.7088,-2.5949,-2.5312,-2.5324,-2.5324,-2.5312,-2.5312,-2.5312,-2.5312,-2.5312,-2.5488,-2.5606,-2.5606,-2.598,0.0,0.0,0.0,0.0,0.0,0.0,0.0,0.0,0.0,0.0,0.0,0.0,0.0,0.0,0.0,0.0,0.0,0.0,0.0,0.0,-3.1365,0.0,0.0,0.0,0.0,0.0,0.0,0.0,0.0,0.0,0.0,-3.353,-3.4043,-3.459,-3.4713,0.0,0.0,0.0,0.0,-3.6456,-3.7598,-3.7998,-3.8096,-3.8048,-3.7628,-3.7053,-3.6432,0.0,0.0,-3.5211,-3.5768,-3.6189,-3.6222,-3.559,-3.538,-3.6076,-3.6108,-3.6023,-3.5857,-3.5372,-3.5117,-3.4923,-3.4317,-3.3899,-1.9963,0.0,0.0,0.0,0.0,-2.0153,-1.9902,-1.9685,-1.9676,-1.9784,-1.999,-2.0323,0.0,0.0,0.0,0.0,0.0,0.0,-2.5076,-2.5111,-2.5218,-2.5276,-2.5312,-2.5312,-2.5312,-2.5312,-2.5312,-2.5312,-2.5312,-2.5312,-2.5576,-2.6105,0.0,0.0,0.0,0.0,-2.6747,-2.6383,-2.5696,-2.5312,-2.5312,-2.5312,-2.5312,-2.5312,-2.5312,-2.5312,-2.5312,-2.5347,-2.5465,-2.5606,-2.5723,0.0,0.0,0.0,0.0,0.0,0.0,0.0,0.0,0.0,0.0,0.0,0.0,0.0,0.0,0.0,0.0,0.0,0.0,0.0,-3.1722,-3.2092,-3.253,0.0,0.0,0.0,0.0,0.0,0.0,0.0,0.0,0.0,-3.4415,-3.4881,-3.5354,0.0,0.0,-3.6314,-3.683,-3.6814,-3.672,-3.6568,-3.6722,0.0,-3.6136,-3.6357,-3.6529,-3.6335,-3.5671,-3.5185,-3.5185,-3.4926,-3.4732,-3.4764,-3.4554,-3.4489,-3.4667,-3.4732,-3.4706,-3.4649,-3.4512,-3.4424,-3.4341,-3.4154,-3.4025,-1.9696,-2.0101,-1.9976,-2.0004,-2.0181,-1.9897,-1.9676,-1.9478,-1.9478,-1.9597,-1.9715,-1.9932,-2.0382,-2.1078,-2.2,0.0,0.0,0.0,-2.4921,-2.4992,-2.5052,-2.517,-2.5312,-2.5312,-2.5312,-2.5312,-2.5312,-2.5312,-2.5312,-2.5382,-2.5648,-2.613,0.0,0.0,-2.6873,-2.6806,-2.6541,-2.6093,-2.5576,-2.5312,-2.5312,-2.5312,-2.5312,-2.5312,-2.5312,-2.5312,-2.5312,-2.5312,-2.5359,-2.5488,-2.5535,-2.5781,0.0,0.0,0.0,0.0,0.0,0.0,0.0,0.0,0.0,0.0,0.0,-2.9099,-2.9383,0.0,0.0,0.0,-3.0997,-3.2,-3.2658,-3.2887,0.0,0.0,0.0,0.0,0.0,0.0,0.0,-3.5275,-3.5487,-3.5493,-3.5176,-3.5468,-3.5644,-3.5508,-3.5774,-3.6098,-3.6497,0.0,-3.6282,-3.6152,-3.6206,-3.6157,-3.572,-3.6011,-3.6276,-3.6276,-3.5946,-3.5639,-3.5606,-3.5049,-3.4554,-3.4505,-3.4295,-3.4101,-3.4101,-3.4101,-3.4101,-3.4101,-3.4101,-3.4101,-3.4101,-3.4101,-3.4101,-1.9338,-1.9301,-1.9696,-1.9754,-1.9597,-1.9606,-1.9478,-1.9292,-1.9292,-1.9499,-1.9824,-1.946,-1.9844,-2.0867,-2.2209,0.0,-2.4273,-2.4381,-2.4526,-2.479,-2.479,-2.4981,-2.5264,-2.5312,-2.5312,-2.5312,-2.5312,-2.5312,-2.53,-2.55,-2.5779,-2.6093,-2.6093,-2.637,-2.6837,-2.6381,-2.6142,-2.6081,-2.5624,-2.536,-2.5312,-2.5312,-2.5312,-2.5312,-2.5312,-2.5312,-2.5312,-2.5312,-2.5312,-2.5312,-2.5488,-2.5746,-2.6082,0.0,0.0,0.0,0.0,0.0,0.0,0.0,0.0,0.0,0.0,0.0,0.0,0.0,0.0,0.0,-3.1499,0.0,-3.3165,-3.36,0.0,0.0,0.0,-3.3839,-3.4333,-3.4444,-3.4775,-3.5431,0.0,0.0,-3.5726,-3.5726,-3.554,-3.4999,-3.4999,-3.5305,-3.5943,-3.5608,-3.5428,-3.6066,-3.6157,-3.6108,-3.5914,-3.606,-3.6189,-3.627,-3.6276,-3.6238,-3.6108,-3.5623,-3.5228,-3.5033,-3.4538,-3.4101,-3.4101,-3.4101,-3.4101,-3.4101,-3.4101,-3.4101,-3.4101,-3.4101,-3.4101,-1.9362,-1.9073,-1.935,-1.9429,-1.9341,-1.935,-1.9341,-1.9292,-1.9292,-1.9381,-1.942,-1.9341,-1.946,-1.9726,-2.0692,-2.1603,-2.2483,-2.3217,-2.3948,-2.4574,-2.4885,-2.5087,-2.5147,-2.5241,-2.5312,-2.5312,-2.5312,-2.5312,-2.5312,-2.5347,-2.5612,-2.6069,-2.6093,-2.6382,-2.6861,-2.6765,-2.6514,-2.6093,-2.5973,-2.5709,-2.5324,-2.5312,-2.5312,-2.5312,-2.5312,-2.5312,-2.5312,-2.5312,-2.5312,-2.5312,-2.5347,-2.5418,-2.5523,-2.6358,0.0,0.0,0.0,0.0,0.0,0.0,0.0,0.0,0.0,-2.9257,-2.932,0.0,-2.9699,0.0,-3.0863,-3.2022,-3.3154,-3.3189,0.0,0.0,-3.4046,-3.4376,-3.4979,-3.48,-3.4941,-3.5628,-3.5428,-3.5187,-3.5171,-3.5187,-3.4967,-3.4413,-3.5142,-3.5873,-3.6174,-3.5629,-3.526,-3.5364,-3.5007,-3.4635,-3.4748,-3.5088,-3.5704,-3.6222,-3.6292,-3.6108,-3.5542,-3.5315,-3.5033,-3.4489,-3.423,-3.4101,-3.4101,-3.4101,-3.4101,-3.4101,-3.4101,-3.4101,-3.4101,-3.4101,-3.4101,-1.9783,-1.967,-1.9578,-1.9577,-1.9567,-1.9375,-1.9292,-1.9292,-1.9292,-1.9292,-1.9292,-1.9292,-1.949,-1.9844,-2.0313,-2.1155,-2.2344,-2.2905,-2.3703,-2.4646,-2.4885,-2.5052,-2.5182,-2.5276,-2.5312,-2.5312,-2.5312,-2.5312,-2.5312,-2.5312,-2.5468,-2.5745,-2.5745,-2.6021,-2.655,-2.6777,-2.6741,-2.6478,-2.6226,-2.5841,-2.5336,-2.5312,-2.542,-2.5636,-2.5432,-2.542,-2.5648,-2.5432,-2.5347,-2.5418,-2.5535,-2.5535,-2.5453,-2.6129,-2.6667,0.0,0.0,0.0,0.0,0.0,0.0,0.0,0.0,0.0,0.0,0.0,-3.0131,-3.0673,-3.1691,-3.2675,-3.352,-3.3571,-3.3734,-3.4179,-3.4195,-3.4324,-3.4728,-3.4457,-3.4456,-3.4973,-3.4778,-3.4604,-3.4588,-3.4588,-3.4468,-3.4149,-3.472,-3.5195,-3.5273,-3.4943,-3.4725,-3.4693,-3.436,-3.436,-3.4943,-3.5671,-3.6367,-3.7064,-3.7242,-3.6983,-3.6287,-3.5866,-3.5445,-3.4748,-3.4311,-3.4101,-3.4101,-3.4101,-3.4101,-3.4101,-3.4101,-3.4101,-3.4101,-3.4101,-3.4101,-2.028,-2.0316,-2.0062,-1.9966,-1.9898,-1.9613,-1.9393,-1.9292,-1.9292,-1.9292,-1.9292,-1.9292,-1.9687,-2.0343,-2.0343,-2.1193,-2.2654,-2.2767,-2.3482,-2.4562,-2.4682,-2.4921,-2.517,-2.5206,-2.5241,-2.5241,-2.5253,-2.5253,-2.5241,-2.5241,-2.5312,-2.5373,-2.542,-2.5673,-2.6202,-2.6683,-2.6885,-2.6885,-2.6382,-2.5877,-2.5432,-2.5408,-2.5624,-2.6045,-2.5588,-2.5516,-2.5961,-2.5552,-2.5382,-2.5571,-2.5723,-2.5758,-2.5571,-2.5793,-2.628,0.0,-2.679,0.0,0.0,0.0,0.0,0.0,0.0,0.0,0.0,-2.9867,-3.0688,-3.1962,-3.2865,-3.3531,-3.3834,-3.4058,-3.4268,-3.4381,-3.4135,-3.399,-3.4081,-3.3899,-3.3822,-3.4075,-3.4101,-3.4101,-3.4133,-3.4101,-3.4101,-3.4101,-3.4149,-3.4221,-3.4149,-3.4165,-3.4149,-3.4101,-3.4101,-3.4554,-3.5866,-3.668,-3.7355,-3.8116,-3.8294,-3.8116,-3.7209,-3.6627,-3.6011,-3.5195,-3.4473,-3.4117,-3.4101,-3.4101,-3.4101,-3.4101,-3.4101,-3.4101,-3.4101,-3.4101,-3.4101,-1.9964,-1.9708,-2.0027,-2.0126,-2.0159,-2.0245,-1.9916,-1.9301,-1.9292,-1.9292,-1.9292,-1.9292,-1.9381,-1.9529,-1.9539,-2.0031,-2.1001,-2.1728,-2.2494,-2.3372,-2.42,-2.4562,-2.467,-2.4814,-2.4897,-2.4885,-2.4897,-2.4885,-2.4885,-2.5052,-2.5326,-2.5707,-2.5889,-2.6226,-2.6705,0.0,0.0,0.0,-2.6382,-2.6045,-2.5961,-2.5937,-2.5997,-2.6081,-2.5588,0.0,-2.5444,-2.5372,-2.5312,-2.5347,-2.5382,0.0,0.0,0.0,0.0,0.0,0.0,0.0,0.0,0.0,0.0,0.0,-2.9383,-2.9352,-2.9415,-2.9929,-3.0762,-3.1896,-3.2188,-3.2517,-3.3057,-3.3139,-3.336,-3.3804,-3.3798,-3.3864,-3.405,-3.405,-3.405,-3.4075,-3.4101,-3.4101,-3.4101,-3.4101,-3.4101,-3.4101,-3.4101,-3.4101,-3.4101,-3.4101,-3.4101,-3.4101,-3.4117,-3.4667,-3.6092,-3.6416,-3.7064,-3.8019,-3.8391,-3.789,-3.6805,-3.6416,-3.5801,-3.4619,-3.4182,-3.4101,-3.4101,-3.4101,-3.4101,-3.4101,-3.4101,-3.4101,-3.4101,-3.4101,-3.4101,-1.9694,0.0,-2.0251,-2.0567,0.0,-2.0561,-2.0131,-1.9613,-1.9613,-1.9494,-1.9292,-1.9292,-1.9292,-1.9292,-1.9292,-1.9726,-2.0498,-2.0952,-2.1869,-2.3165,-2.3692,-2.4189,-2.4646,-2.4754,-2.4801,-2.4801,-2.4801,-2.4801,-2.4801,-2.4897,-2.5123,-2.5432,-2.5553,-2.5781,-2.6117,-2.6093,-2.6262,-2.6514,-2.625,-2.5973,-2.5721,-2.5721,-2.5829,-2.6081,-2.5588,0.0,0.0,0.0,0.0,0.0,0.0,0.0,0.0,0.0,0.0,-2.6701,-2.7297,-2.7993,-2.8739,-2.9149,-2.9383,-2.9477,-2.9509,-2.9571,-2.9699,-3.0584,-3.1421,-3.2219,-3.2633,-3.3011,-3.3424,-3.3388,-3.3435,-3.3822,-3.3787,-3.3797,-3.4025,-3.3975,-3.3949,-3.4075,-3.4101,-3.4101,-3.4101,-3.3975,-3.3975,-3.4075,-3.3975,-3.3949,-3.4075,-3.4101,-3.4101,-3.4117,-3.4441,-3.4878,-3.5623,-3.6432,-3.695,-3.7695,-3.7873,-3.7452,-3.6481,-3.5995,-3.538,-3.4343,-3.4101,-3.4101,-3.4101,-3.4101,-3.4101,-3.4101,-3.4101,-3.4101,-3.4101,-3.4101,-3.4101,-1.9101,-1.9497,-2.0199,-2.065,-2.0789,-2.0689,-2.0424,-1.9985,0.0,0.0,0.0,-1.9292,-1.9292,-1.9292,-1.9292,-1.9648,-2.0304,-2.043,-2.1326,-2.2798,-2.2995,-2.357,-2.4454,-2.4502,-2.4574,-2.4682,-2.4718,-2.4682,-2.4718,-2.4718,-2.4849,-2.4981,-2.5028,-2.5123,-2.5218,-2.5253,-2.5457,-2.584,-2.6009,-2.5889,-2.5468,-2.5444,-2.5661,-2.6081,-2.5588,-2.5516,-2.5925,-2.554,-2.5382,-2.5535,-2.5735,-2.5723,-2.5571,-2.5723,-2.5863,-2.6002,-2.6667,-2.7397,-2.8051,-2.8771,-2.932,-2.9571,-2.9602,-2.9758,-3.0099,-3.1072,-3.1905,-3.2449,-3.3102,-3.3591,-3.3924,-3.3787,-3.3736,-3.4,-3.3822,-3.3797,-3.3975,-3.3864,-3.3771,-3.3924,-3.3924,-3.3949,-3.3924,-3.3761,-3.372,-3.3924,-3.3848,-3.3797,-3.4025,-3.4101,-3.4101,-3.4133,-3.4489,-3.5001,-3.5341,-3.6044,-3.6918,-3.7053,-3.7145,-3.6902,-3.6238,-3.5633,-3.4968,-3.4246,-3.4101,-3.4101,-3.4101,-3.4101,-3.4101,-3.4101,-3.4101,-3.4101,-3.4101,-3.4101,-3.4101,-1.7615,-1.7755,-1.8907,-1.9538,-1.9819,-2.0837,-2.098,-2.0393,-1.9696,-1.9356,-1.9292,-1.9292,-1.9292,-1.9292,-1.9292,-1.9332,-1.9539,-2.0196,-2.0653,-2.0914,-2.1642,-2.2446,-2.3224,-2.3261,-2.3641,-2.4236,-2.4273,-2.4309,-2.4309,-2.4454,-2.4562,-2.461,-2.4754,-2.4849,-2.4897,-2.5052,-2.5088,-2.5003,-2.5744,-2.6069,-2.5985,-2.5997,-2.6009,-2.6057,-2.5576,-2.5336,-2.5408,-2.536,-2.53,-2.5347,-2.5382,-2.537,-2.5347,-2.5382,-2.5652,-2.6289,-2.7027,-2.7736,-2.8395,-2.9135,-2.954,-2.9571,-2.9602,-2.9789,-3.0235,-3.0583,-3.116,-3.2061,-3.2437,-3.2807,-3.3319,-3.3398,-3.3477,-3.3694,-3.372,-3.3694,-3.3745,-3.3736,-3.3617,-3.3477,-3.3398,-3.3424,-3.345,-3.3372,-3.345,-3.3684,-3.372,-3.3797,-3.4025,-3.4101,-3.4101,-3.4101,-3.4182,-3.4531,-3.5017,-3.5309,-3.5817,-3.6351,-3.6448,-3.6222,-3.5558,-3.525,-3.4862,-3.423,-3.4101,-3.4101,-3.4101,-3.4101,-3.4101,-3.4101,-3.4101,-3.4101,-3.4101,-3.4101,-3.4101,-1.6586,-1.6821,-1.7894,-1.8826,-1.955,-2.0386,-2.0655,-2.0406,-1.965,-1.9292,-1.9292,-1.9292,-1.9292,-1.9292,-1.9292,-1.9292,-1.9341,-1.9687,-2.0079,-2.0498,-2.0924,-2.1527,-2.2306,-2.2333,-2.2756,-2.3519,-2.3519,-2.3787,-2.42,-2.4273,-2.4381,-2.449,-2.4729,-2.4801,-2.4837,-2.4897,-2.4885,-2.4801,-2.5278,-2.5541,-2.5577,-2.5565,-2.5601,-2.5673,-2.5432,-2.5312,-2.5312,-2.5312,-2.5312,-2.5312,-2.5312,-2.5312,-2.5312,-2.5312,-2.5441,-2.5791,-2.6505,-2.7204,-2.7934,-2.8976,-2.9602,-2.9602,-2.9602,-2.9665,-2.9913,-3.0374,-3.097,-3.1664,-3.2185,-3.2726,-3.324,-3.3293,-3.3346,-3.3492,-3.3477,-3.3477,-3.3477,-3.3477,-3.344,-3.3319,-3.3293,-3.3293,-3.3293,-3.3176,-3.3176,-3.3424,-3.3581,-3.3797,-3.405,-3.4101,-3.4101,-3.4101,-3.4101,-3.4214,-3.4554,-3.4984,-3.5309,-3.5655,-3.5687,-3.5558,-3.5185,-3.4926,-3.4489,-3.4182,-3.4101,-3.4101,-3.4101,-3.4101,-3.4101,-3.4101,-3.4101,-3.4101,-3.4101,-3.4101,-3.3984,-1.5609,-1.5832,-1.6861,-1.7949,-1.9031,-1.9601,-1.9927,-1.9967,-1.9483,-1.9292,-1.9292,-1.9292,-1.9292,-1.9292,-1.9292,-1.9292,-1.9292,-1.9292,-1.9648,-2.0187,-2.0226,-2.0692,-2.1461,-2.1489,-2.1918,-2.2654,-2.2729,-2.3065,-2.3593,-2.3861,-2.4116,-2.4418,-2.461,-2.4682,-2.4682,-2.4718,-2.4718,-2.4682,-2.4849,-2.4981,-2.5052,-2.5087,-2.5159,-2.5229,-2.5276,-2.5312,-2.5312,-2.5312,-2.5312,-2.5312,-2.5312,-2.5312,-2.5312,-2.5312,-2.5312,-2.5347,-2.6,-2.679,-2.7703,-2.8739,-2.9432,-2.9602,-2.9602,-2.9602,-2.9634,-3.0101,-3.0674,-3.1217,-3.1806,-3.2449,-3.2985,-3.3118,-3.3187,-3.3266,-3.3293,-3.3282,-3.3229,-3.3203,-3.3176,-3.3134,-3.3091,-3.3065,-3.3054,-3.292,-3.2908,-3.3176,-3.3466,-3.3694,-3.3949,-3.4,-3.4041,-3.4075,-3.4101,-3.4117,-3.4133,-3.4522,-3.4887,-3.4968,-3.4952,-3.491,-3.4797,-3.4424,-3.4149,-3.4101,-3.4101,-3.4101,-3.4101,-3.4101,-3.4101,-3.4101,-3.4101,-3.4101,-3.4101,-3.3933,-3.3748,-1.4484,-1.4621,-1.5561,-1.6565,-1.756,-1.8466,-1.8727,-1.8647,-1.9035,-1.9292,-1.9262,-1.9292,-1.9301,-1.9292,-1.9292,-1.9292,-1.9292,-1.9292,-1.9332,-1.942,-1.942,-1.9844,-2.0566,-2.0615,-2.1068,-2.1832,-2.1918,-2.1993,-2.2182,-2.2793,-2.3482,-2.4152,-2.4236,-2.4273,-2.4309,-2.4454,-2.4418,-2.4273,-2.4454,-2.4646,-2.4825,-2.5028,-2.5123,-2.5123,-2.5241,-2.5312,-2.5312,-2.5312,-2.5312,-2.5312,-2.5312,-2.5312,-2.5312,-2.5312,-2.5312,-2.5312,-2.6,-2.6981,-2.8247,-2.8538,-2.8917,-2.9509,-2.9602,-2.9602,-2.9602,-2.9665,-2.9993,-3.0615,-3.0999,-3.1578,-3.2504,-3.2614,-3.278,-3.3091,-3.3187,-3.3203,-3.2978,-3.2924,-3.2843,-3.2523,-3.2563,-3.2508,-3.2535,-3.2508,-3.2621,-3.2935,-3.3176,-3.3424,-3.3668,-3.372,-3.3797,-3.4,-3.4075,-3.4075,-3.4101,-3.4117,-3.4295,-3.4262,-3.423,-3.4279,-3.4279,-3.423,-3.4101,-3.4101,-3.4101,-3.4101,-3.4101,-3.4101,-3.4101,-3.4101,-3.4101,-3.4101,-3.405,-3.3697,-3.3329,-1.4298,-1.434,-1.4717,-1.5491,-1.6505,-1.7743,-1.8217,-1.8163,-1.8721,-1.8922,-1.8962,-1.8971,-1.9073,-1.9292,-1.9292,-1.9292,-1.9292,-1.9292,-1.9292,-1.9292,-1.9292,-1.949,-1.9766,-1.9766,-2.0226,-2.0991,-2.1029,-2.1298,-2.1794,-2.2145,-2.2681,-2.3409,-2.3482,-2.3703,-2.4164,-2.4273,-2.4273,-2.42,-2.4273,-2.4345,-2.4454,-2.4634,-2.4873,-2.5087,-2.5147,-2.5206,-2.5276,-2.5312,-2.5312,-2.5312,-2.5312,-2.5312,-2.5312,-2.5312,-2.5312,-2.5347,-2.6,-2.6845,-2.7868,-2.8279,-2.8807,-2.954,-2.9602,-2.9602,-2.9602,-2.9602,-2.9744,-3.0038,-3.0388,-3.0881,-3.1551,-3.165,-3.1851,-3.2259,-3.2342,-3.2398,-3.2621,-3.2605,-3.2551,-3.2425,-3.2398,-3.2398,-3.2398,-3.2398,-3.2551,-3.28,-3.2989,-3.315,-3.3398,-3.345,-3.3487,-3.3591,-3.3617,-3.3771,-3.4,-3.4101,-3.4101,-3.4101,-3.4101,-3.4101,-3.4101,-3.4101,-3.4101,-3.4101,-3.4101,-3.4101,-3.4101,-3.4101,-3.4101,-3.4101,-3.4075,-3.4009,-3.363,-3.3381,-3.3013,-1.4298,-1.4298,-1.4298,-1.4612,-1.5315,-1.6647,-1.7169,-1.7181,-1.7972,-1.8362,-1.8362,-1.8571,-1.8851,-1.9121,-1.9183,-1.9262,-1.9301,-1.9292,-1.9292,-1.9292,-1.9292,-1.9292,-1.9292,-1.9292,-1.9608,-2.007,-2.0148,-2.0615,-2.1336,-2.1461,-2.188,-2.2569,-2.2692,-2.2953,-2.3482,-2.3545,-2.3545,-2.3545,-2.374,-2.3861,-2.3897,-2.4236,-2.4598,-2.4981,-2.5076,-2.5147,-2.5276,-2.5312,-2.5312,-2.5312,-2.5312,-2.5312,-2.5312,-2.5312,-2.5312,-2.5347,-2.5791,-2.6414,-2.7136,-2.7822,-2.8551,-2.9216,-2.9463,-2.9602,-2.9602,-2.9602,-2.9602,-2.9665,-2.9898,-3.0312,-3.0732,-3.0822,-3.1029,-3.1437,-3.161,-3.1838,-3.2176,-3.2315,-3.2425,-3.2398,-3.2398,-3.2398,-3.2398,-3.2425,-3.2496,-3.2691,-3.2746,-3.287,-3.3123,-3.3203,-3.3203,-3.3282,-3.3309,-3.3503,-3.3873,-3.3975,-3.4,-3.4101,-3.4101,-3.4101,-3.4101,-3.4101,-3.4101,-3.4101,-3.4101,-3.4101,-3.4101,-3.4101,-3.405,-3.405,-3.3958,-3.3723,-3.3355,-3.3024,-3.2446,-1.4298,-1.4298,-1.4298,-1.4043,-1.3713,-1.4879,-1.5106,-1.4915,-1.6617,-1.7432,-1.7521,-1.8273,-1.87,-1.8692,-1.8882,-1.9112,-1.9253,-1.9253,-1.9262,-1.9253,-1.9301,-1.9292,-1.9292,-1.9292,-1.9332,-1.945,-1.945,-1.9844,-2.0537,-2.0576,-2.1001,-2.1804,-2.1842,-2.1869,-2.2021,-2.2059,-2.1945,-2.222,-2.2793,-2.3113,-2.3224,-2.3861,-2.4418,-2.479,-2.4992,-2.5147,-2.5276,-2.5276,-2.5276,-2.5276,-2.5276,-2.5312,-2.5312,-2.5312,-2.5312,-2.5312,-2.5347,-2.5687,-2.6449,-2.7149,-2.7855,-2.8538,-2.9166,-2.9571,-2.9602,-2.9602,-2.9602,-2.9602,-2.9665,-2.9882,-3.0266,-3.0357,-3.0523,-3.097,-3.1408,-3.161,-3.1739,-3.2064,-3.237,-3.2342,-3.2315,-3.2342,-3.2398,-3.2398,-3.2425,-3.2468,-3.2453,-3.2535,-3.2812,-3.2897,-3.2989,-3.3176,-3.324,-3.3356,-3.3642,-3.372,-3.3822,-3.3899,-3.3924,-3.4025,-3.4075,-3.4101,-3.4075,-3.4075,-3.405,-3.405,-3.4075,-3.405,-3.4,-3.3832,-3.3465,-3.3172,-3.2826,-3.2158,-3.1652,-1.4298,-1.428,-1.4117,-1.3839,-1.3592,-1.4376,-1.4445,-1.43,-1.5545,-1.6131,-1.6296,-1.7033,-1.7489,-1.7619,-1.8313,-1.8723,-1.8913,-1.9042,-1.9112,-1.9112,-1.9222,-1.9292,-1.9292,-1.9292,-1.9292,-1.9292,-1.9292,-1.946,-1.9687,-1.9736,-2.0148,-2.0837,-2.0962,-2.1221,-2.168,-2.1794,-2.2021,-2.2542,-2.2889,-2.3261,-2.3666,-2.4055,-2.4345,-2.4598,-2.467,-2.4814,-2.4981,-2.4992,-2.5052,-2.517,-2.5182,-2.5218,-2.5276,-2.5312,-2.5312,-2.5312,-2.5312,-2.5616,-2.6311,-2.6654,-2.7291,-2.8363,-2.873,-2.9153,-2.9495,-2.9602,-2.9602,-2.9602,-2.9602,-2.9696,-2.9789,-2.9851,-3.0052,-3.0463,-3.0688,-3.097,-3.1204,-3.1393,-3.1508,-3.1537,-3.1752,-3.2064,-3.2315,-3.2398,-3.2398,-3.2398,-3.2398,-3.2453,-3.2523,-3.2594,-3.2605,-3.2672,-3.2742,-3.2823,-3.315,-3.3346,-3.3477,-3.3529,-3.3581,-3.3581,-3.3607,-3.3771,-3.3797,-3.3704,-3.3771,-3.3781,-3.3729,-3.3501,-3.3517,-3.3282,-3.2922,-3.2528,-3.2185,-3.1694,-3.1306,-1.4298,-1.4256,-1.4014,-1.3755,-1.3535,-1.3831,-1.3849,-1.3682,-1.4545,-1.4929,-1.5137,-1.5876,-1.6329,-1.6542,-1.7164,-1.77,-1.8112,-1.8674,-1.9002,-1.9042,-1.9183,-1.9292,-1.9292,-1.9292,-1.9292,-1.9292,-1.9292,-1.9292,-1.9292,-1.9292,-1.9559,-2.0109,-2.0118,-2.0382,-2.0924,-2.0991,-2.1298,-2.1766,-2.208,-2.2446,-2.3016,-2.3556,-2.3861,-2.4043,-2.4273,-2.4538,-2.4801,-2.4801,-2.4861,-2.4992,-2.5087,-2.5147,-2.5264,-2.5312,-2.5312,-2.5312,-2.5312,-2.5523,-2.6035,-2.6483,-2.717,-2.8117,-2.8634,-2.9121,-2.9571,-2.9602,-2.9602,-2.9602,-2.9602,-2.9602,-2.9602,-2.9602,-2.9727,-3.0052,-3.0205,-3.0403,-3.0732,-3.0911,-3.1087,-3.1292,-3.1552,-3.1838,-3.212,-3.2315,-3.2231,-3.202,-3.216,-3.237,-3.2203,-3.2176,-3.216,-3.216,-3.2176,-3.2191,-3.2274,-3.2425,-3.3011,-3.3187,-3.3214,-3.3187,-3.316,-3.3356,-3.3419,-3.3366,-3.3351,-3.3377,-3.3256,-3.3013,-3.2799,-3.2571,-3.2269,-3.1877,-3.1608,-3.1393,-3.1058,-1.4292,-1.4238,-1.4002,-1.3725,-1.3459,-1.3282,-1.299,-1.2979,-1.3669,-1.4006,-1.4126,-1.497,-1.5387,-1.5436,-1.5643,-1.6008,-1.6862,-1.8055,-1.8754,-1.8962,-1.9152,-1.9222,-1.9262,-1.9262,-1.9301,-1.9292,-1.9292,-1.9292,-1.9292,-1.9292,-1.9332,-1.9341,-1.9411,-1.949,-1.9381,-1.9529,-1.949,-1.9835,-2.0459,-2.0741,-2.0731,-2.2231,-2.299,-2.3102,-2.3714,-2.4309,-2.4682,-2.4754,-2.4765,-2.4825,-2.4945,-2.5147,-2.5241,-2.5241,-2.5264,-2.5276,-2.5276,-2.53,-2.5476,-2.6539,-2.717,-2.765,-2.8675,-2.9306,-2.9401,-2.954,-2.9602,-2.9602,-2.9602,-2.9602,-2.9602,-2.9602,-2.9634,-2.9634,-3.0005,-3.0221,-3.0342,-3.0703,-3.1146,-3.1452,-3.1523,-3.1653,-3.1752,-3.1979,-3.1908,-3.1508,-3.1737,-3.2076,-3.1781,-3.1752,-3.1724,-3.171,-3.1768,-3.1824,-3.1581,-3.1466,-3.2231,-3.285,-3.285,-3.2823,-3.2715,-3.2807,-3.2695,-3.2652,-3.268,-3.268,-3.2308,-3.2071,-3.2043,-3.1834,-3.1507,-3.1291,-3.1131,-3.097,-3.0836,-1.4189,-1.4002,-1.3749,-1.3483,-1.3179,-1.2952,-1.2777,-1.2711,-1.2997,-1.3124,-1.3288,-1.4041,-1.4426,-1.4594,-1.5095,-1.5519,-1.5842,-1.6486,-1.735,-1.8385,-1.8763,-1.8882,-1.8922,-1.9042,-1.9183,-1.9253,-1.9292,-1.9301,-1.9292,-1.9292,-1.9292,-1.9292,-1.9292,-1.9292,-1.9292,-1.9292,-1.9539,-2.0118,-2.0352,-2.0769,-2.1346,-2.188,-2.2182,-2.2258,-2.2942,-2.3446,-2.3556,-2.408,-2.4418,-2.4574,-2.4634,-2.4778,-2.4921,-2.4957,-2.5028,-2.5147,-2.5147,-2.5206,-2.5312,-2.5721,-2.6299,-2.6812,-2.767,-2.8325,-2.8853,-2.9324,-2.9571,-2.9602,-2.9602,-2.9602,-2.9602,-2.9602,-2.9602,-2.9602,-2.9727,-2.9851,-2.9882,-2.996,-3.0235,-3.0613,-3.0732,-3.0881,-3.1146,-3.1422,-3.1364,-3.1043,-3.1277,-3.1393,-3.1277,-3.1437,-3.1523,-3.1321,-3.1437,-3.1423,-3.1087,-3.094,-3.1393,-3.1879,-3.1992,-3.2262,-3.2206,-3.2132,-3.2033,-3.189,-3.1946,-3.1777,-3.1421,-3.1247,-3.1218,-3.1102,-3.0837,-3.0732,-3.0703,-3.0643,-3.0598,-1.3815,-1.373,-1.3383,-1.3189,-1.3053,-1.2819,-1.2705,-1.2705,-1.2705,-1.2705,-1.2826,-1.3252,-1.3499,-1.3626,-1.4132,-1.4552,-1.4887,-1.5039,-1.5869,-1.7245,-1.7983,-1.8313,-1.8652,-1.8812,-1.8922,-1.9042,-1.9073,-1.9112,-1.9183,-1.9192,-1.9222,-1.9301,-1.9292,-1.9292,-1.9292,-1.9292,-1.9578,-2.0001,-2.0031,-2.0304,-2.0837,-2.1145,-2.1489,-2.1832,-2.2569,-2.3113,-2.3446,-2.397,-2.4273,-2.4381,-2.4465,-2.4574,-2.4754,-2.4837,-2.4861,-2.4957,-2.4992,-2.5052,-2.5206,-2.5511,-2.5965,-2.6744,-2.7471,-2.8195,-2.8821,-2.9387,-2.9571,-2.9602,-2.9602,-2.9602,-2.9602,-2.9602,-2.9602,-2.9602,-2.9602,-2.9602,-2.9602,-2.9602,-2.9851,-3.0235,-3.0357,-3.0463,-3.0643,-3.0925,-3.0777,-3.0643,-3.0792,-3.0881,-3.0866,-3.0955,-3.0911,-3.0881,-3.0911,-3.0792,-3.0538,-3.0523,-3.0643,-3.0807,-3.0955,-3.1351,-3.1585,-3.1481,-3.1407,-3.1043,-3.0984,-3.0748,-3.0418,-3.0418,-3.0418,-3.0251,-3.0296,-3.0357,-3.0447,-3.0568,-3.0582,-1.3228,-1.3281,-1.2923,-1.2857,-1.2967,-1.277,-1.2662,-1.2656,-1.2705,-1.2705,-1.2705,-1.2784,-1.279,-1.2741,-1.2954,-1.3372,-1.3831,-1.3957,-1.4503,-1.5545,-1.6486,-1.7391,-1.8282,-1.8402,-1.8523,-1.8732,-1.874,-1.8812,-1.9002,-1.9002,-1.9073,-1.9222,-1.9262,-1.9292,-1.9292,-1.9292,-1.9332,-1.9411,-1.9381,-1.9411,-1.9499,-2.0079,-2.0769,-2.1527,-2.2268,-2.2953,-2.3398,-2.3776,-2.408,-2.4189,-2.4381,-2.4538,-2.4718,-2.4765,-2.4718,-2.479,-2.4801,-2.4885,-2.5147,-2.5546,-2.6195,-2.6934,-2.7624,-2.868,-2.9071,-2.923,-2.9477,-2.9571,-2.9602,-2.9602,-2.9602,-2.9602,-2.9602,-2.9602,-2.9602,-2.9602,-2.9602,-2.9602,-2.9789,-3.0113,-3.0266,-3.0266,-3.0266,-3.0583,-3.0372,-3.0083,-3.0342,-3.0463,-3.0433,-3.0372,-3.0312,-3.0342,-3.0433,-3.0312,-3.0144,-3.0113,-3.0205,-3.0221,-3.0282,-3.0581,-3.0879,-3.0806,-3.0718,-3.0372,-3.016,-2.9867,-2.9713,-2.9867,-2.9946,-2.9976,-3.0038,-3.0113,-3.0296,-3.0447,-3.0582,-1.1905,-1.1719,-1.2232,-1.2438,-1.2319,-1.2392,-1.2491,-1.2491,-1.2662,-1.2705,-1.2705,-1.2705,-1.2705,-1.2705,-1.2705,-1.2826,-1.3039,-1.3082,-1.3499,-1.43,-1.4671,-1.5869,-1.7155,-1.7448,-1.791,-1.8571,-1.866,-1.874,-1.878,-1.8882,-1.9002,-1.9073,-1.9231,-1.9253,-1.9292,-1.9253,-1.9292,-1.9292,-1.9301,-1.9301,-1.9332,-1.949,-1.9687,-1.9952,-2.0798,-2.1308,-2.1652,-2.2681,-2.3629,-2.4152,-2.4236,-2.4273,-2.4393,-2.4393,-2.4465,-2.4574,-2.461,-2.4646,-2.4885,-2.5194,-2.5488,-2.5721,-2.6641,-2.7284,-2.8012,-2.8514,-2.9022,-2.9415,-2.9602,-2.9602,-2.9602,-2.9602,-2.9602,-2.9602,-2.9602,-2.9602,-2.9602,-2.9602,-2.9665,-2.9744,-2.9806,-2.9806,-2.9867,-2.9913,-2.9929,-2.9758,-2.982,-3.0021,-2.996,-3.0083,-3.0174,-3.0021,-2.9991,-2.9929,-2.9851,-2.9789,-2.9758,-2.9727,-2.9789,-2.9882,-3.0033,-3.0036,-2.9929,-2.9789,-2.9867,-2.9665,-2.9634,-2.9696,-2.9713,-2.9792,-2.996,-3.0127,-3.0296,-3.0433,-3.0568,-1.0365,-1.0274,-1.0731,-1.1107,-1.1419,-1.158,-1.1923,-1.2363,-1.2534,-1.2619,-1.2705,-1.2705,-1.2705,-1.2705,-1.2705,-1.2705,-1.2705,-1.2705,-1.2991,-1.3372,-1.3499,-1.4789,-1.637,-1.6911,-1.7408,-1.829,-1.8411,-1.8491,-1.8571,-1.8683,-1.8803,-1.8891,-1.9011,-1.9042,-1.9042,-1.9033,-1.9112,-1.9143,-1.9183,-1.9192,-1.9301,-1.9292,-1.9569,-1.9766,-2.0304,-2.0731,-2.1576,-2.2531,-2.3372,-2.4007,-2.42,-2.4189,-2.4189,-2.4189,-2.4236,-2.4393,-2.4381,-2.4454,-2.4634,-2.4778,-2.5087,-2.5488,-2.607,-2.6833,-2.7723,-2.8325,-2.8821,-2.9477,-2.9571,-2.9602,-2.9602,-2.9602,-2.9602,-2.9602,-2.9602,-2.9602,-2.9602,-2.9602,-2.9602,-2.9602,-2.9602,-2.9602,-2.9602,-2.9602,-2.9602,-2.9602,-2.9602,-2.9665,-2.9665,-2.9867,-2.9991,-2.9851,-2.9758,-2.9727,-2.9727,-2.9696,-2.9665,-2.9602,-2.9602,-2.9602,-2.9602,-2.9602,-2.9602,-2.9634,-2.9602,-2.9602,-2.9602,-2.9602,-2.9682,-2.9792,-2.9974,-3.0127,-3.0266,-3.0387,-3.0477,-0.8837,-0.8984,-0.887,-0.9492,-1.0486,-1.0611,-1.1273,-1.2186,-1.232,-1.2448,-1.2577,-1.2619,-1.2577,-1.2656,-1.2619,-1.2662,-1.2705,-1.2705,-1.2699,-1.2814,-1.2953,-1.3948,-1.5845,-1.6101,-1.678,-1.7627,-1.787,-1.8072,-1.8256,-1.8359,-1.8404,-1.851,-1.855,-1.855,-1.8562,-1.8576,-1.8708,-1.8777,-1.881,-1.8879,-1.8996,-1.9026,-1.929,-1.9716,-1.9831,-2.0673,-2.1695,-2.2455,-2.2823,-2.3824,-2.4084,-2.4189,-2.4189,-2.4189,-2.42,-2.4236,-2.4236,-2.4298,-2.4454,-2.4526,-2.4873,-2.5581,-2.5791,-2.6582,-2.7564,-2.7894,-2.8233,-2.9103,-2.9401,-2.9446,-2.9602,-2.9602,-2.9602,-2.9602,-2.9602,-2.9602,-2.9602,-2.9602,-2.9602,-2.9602,-2.9602,-2.9602,-2.9602,-2.9602,-2.9602,-2.9602,-2.9602,-2.9602,-2.9602,-2.9696,-2.9758,-2.9696,-2.9634,-2.9634,-2.9602,-2.9602,-2.9602,-2.9602,-2.9602,-2.9602,-2.9602,-2.9602,-2.9602,-2.9602,-2.9602,-2.9602,-2.9602,-2.9634,-2.9682,-2.9761,-2.9915,-3.0083,-3.0235,-3.031,-3.0401,-0.76,-0.7579,-0.8292,-0.9152,-0.9985,-1.0289,-1.0901,-1.1823,-1.1995,-1.2075,-1.2166,-1.216,-1.2283,-1.2454,-1.2448,-1.2534,-1.2656,-1.2687,-1.2705,-1.2674,-1.2469,-1.3067,-1.4248,-1.4552,-1.5467,-1.6536,-1.6976,-1.735,-1.7794,-1.7746,-1.7918,-1.7939,-1.7768,-1.7843,-1.7879,-1.7961,-1.7997,-1.8064,-1.8205,-1.8335,-1.8382,-1.8382,-1.8487,-1.8751,-1.8732,-1.9162,-1.9862,-2.0109,-2.0762,-2.21,-2.3315,-2.3918,-2.4038,-2.4108,-2.4085,-2.4074,-2.412,-2.4179,-2.4286,-2.4325,-2.4527,-2.4755,-2.5003,-2.5441,-2.618,-2.6413,-2.6958,-2.7855,-2.8384,-2.8794,-2.9306,-2.954,-2.954,-2.9495,-2.9571,-2.9602,-2.9602,-2.9602,-2.9602,-2.9602,-2.9602,-2.9602,-2.9602,-2.9602,-2.9602,-2.9602,-2.9602,-2.9602,-2.9602,-2.9602,-2.9602,-2.9602,-2.9602,-2.9602,-2.9602,-2.9602,-2.9602,-2.9602,-2.9602,-2.9602,-2.9602,-2.9602,-2.9602,-2.9602,-2.9602,-2.9602,-2.9602,-2.9602,-2.962,-2.973,-2.9853,-2.9976,-3.0113,-3.0219,-3.0325,-0.6543,-0.6482,-0.6962,-0.7709,-0.854,-0.8763,-0.9632,-1.0862,-1.1122,-1.1521,-1.1909,-1.2,-1.2075,-1.2198,-1.224,-1.2326,-1.2498,-1.2524,-1.2518,-1.2457,-1.2258,-1.2382,-1.2713,-1.31,-1.392,-1.5448,-1.572,-1.6055,-1.6277,-1.6416,-1.6403,-1.6798,-1.6742,-1.6932,-1.7229,-1.7316,-1.7426,-1.7539,-1.7625,-1.7746,-1.783,-1.7876,-1.7904,-1.797,-1.7998,-1.835,-1.9268,-1.933,-1.9971,-2.1002,-2.1961,-2.2851,-2.3382,-2.3488,-2.3488,-2.3488,-2.3488,-2.3488,-2.3512,-2.3594,-2.3676,-2.3793,-2.3886,-2.4394,-2.4871,-2.5096,-2.567,-2.6633,-2.7275,-2.7731,-2.8524,-2.8962,-2.9044,-2.9153,-2.9401,-2.9571,-2.9602,-2.9602,-2.9602,-2.9602,-2.9602,-2.9602,-2.9602,-2.9602,-2.9602,-2.9602,-2.9602,-2.9602,-2.9602,-2.9602,-2.9602,-2.9602,-2.9602,-2.9602,-2.9602,-2.9602,-2.9602,-2.9602,-2.9602,-2.9602,-2.9602,-2.9602,-2.9602,-2.9602,-2.9602,-2.9602,-2.9602,-2.9602,-2.962,-2.973,-2.9853,-2.9915,-2.9991,-3.0036,-3.0158,-0.5688,-0.5688,-0.5688,-0.626,-0.7051,-0.7183,-0.8281,-0.9854,-1.0028,-1.0467,-1.1343,-1.1602,-1.1516,-1.1731,-1.1909,-1.2063,-1.2197,-1.2171,-1.2093,-1.2052,-1.1825,-1.1758,-1.182,-1.1943,-1.2373,-1.3895,-1.4333,-1.4558,-1.4738,-1.4602,-1.5073,-1.5364,-1.5361,-1.5576,-1.6192,-1.658,-1.6561,-1.6639,-1.6935,-1.7146,-1.7292,-1.7338,-1.7403,-1.7449,-1.7551,-1.7861,-1.8495,-1.873,-1.9199,-2.0056,-2.0127,-2.0917,-2.1912,-2.2503,-2.2537,-2.2583,-2.2708,-2.288,-2.2903,-2.2834,-2.2891,-2.2956,-2.2991,-2.3283,-2.3884,-2.411,-2.4567,-2.5325,-2.596,-2.6473,-2.7131,-2.7637,-2.8039,-2.8352,-2.8937,-2.938,-2.9526,-2.9571,-2.9602,-2.9602,-2.9602,-2.9602,-2.9602,-2.9602,-2.9602,-2.9602,-2.9602,-2.9602,-2.9602,-2.9602,-2.9602,-2.9602,-2.9602,-2.9602,-2.9602,-2.9602,-2.9602,-2.9602,-2.9602,-2.9571,-2.9571,-2.9602,-2.9602,-2.9602,-2.9602,-2.9602,-2.9602,-2.9602,-2.9651,-2.9761,-2.973,-2.9699,-2.9775,-2.9851,-2.9806,-0.5688,-0.5688,-0.5688,-0.626,-0.7007,-0.7095,-0.7709,-0.8671,-0.8807,-0.889,-0.924,-0.9898,-1.0429,-1.0684,-1.1472,-1.1753,-1.1737,-1.163,-1.1503,-1.1462,-1.1259,-1.1132,-1.1097,-1.1008,-1.112,-1.153,-1.2576,-1.3712,-1.4127,-1.4325,-1.3988,-1.4156,-1.4052,-1.4095,-1.4477,-1.48,-1.5404,-1.5663,-1.6124,-1.6527,-1.6563,-1.6599,-1.6634,-1.6697,-1.6813,-1.699,-1.7121,-1.7295,-1.7641,-1.8311,-1.8414,-1.9181,-2.0255,-2.1203,-2.1637,-2.1945,-2.2309,-2.2512,-2.2535,-2.2627,-2.2684,-2.2741,-2.2649,-2.2672,-2.2919,-2.2998,-2.3364,-2.3959,-2.4701,-2.5294,-2.5703,-2.6298,-2.6759,-2.7251,-2.7939,-2.8571,-2.9007,-2.9199,-2.9327,-2.9212,-2.9341,-2.9602,-2.9602,-2.9602,-2.9602,-2.9602,-2.9602,-2.9602,-2.9602,-2.9602,-2.9602,-2.9602,-2.9602,-2.9602,-2.9602,-2.9602,-2.9602,-2.9602,-2.9571,-2.9495,-2.954,-2.9571,-2.9571,-2.9243,-2.9369,-2.9602,-2.9602,-2.9571,-2.9463,-2.9404,-2.9404,-2.9387,-2.9153,-2.8917,-2.8648,-0.5688,-0.5688,-0.5688,-0.5952,-0.6349,-0.639,-0.6918,-0.7709,-0.7801,-0.8061,-0.85,-0.8982,-0.9244,-0.9566,-1.0243,-1.0852,-1.1163,-1.1164,-1.1101,-1.1038,-1.0844,-1.0707,-1.068,-1.0526,-1.0567,-1.0883,-1.165,-1.2241,-1.2585,-1.2541,-1.2781,-1.3045,-1.2942,-1.3062,-1.3608,-1.4353,-1.4645,-1.4903,-1.5524,-1.6035,-1.6035,-1.6079,-1.6105,-1.6202,-1.6272,-1.6377,-1.6447,-1.6517,-1.6769,-1.7072,-1.7235,-1.7653,-1.8393,-1.9274,-2.0288,-2.1174,-2.1729,-2.1916,-2.1937,-2.1926,-2.1903,-2.1903,-2.1949,-2.1926,-2.1926,-2.2001,-2.2228,-2.2813,-2.3387,-2.4022,-2.4333,-2.5027,-2.5651,-2.6104,-2.6867,-2.7551,-2.7906,-2.8112,-2.8212,-2.8398,-2.8903,-2.925,-2.9602,-2.9602,-2.9602,-2.9602,-2.9571,-2.9571,-2.9571,-2.954,-2.954,-2.9602,-2.9602,-2.9602,-2.9602,-2.9602,-2.9602,-2.9602,-2.9418,-2.9341,-2.9139,-2.9062,-2.8757,-2.8371,-2.8739,-2.9306,-2.9401,-2.9293,-2.9184,-2.898,-2.8693,-2.8422,-2.8149,-2.792,-2.7723,-0.5508,-0.5688,-0.5688,-0.5688,-0.5688,-0.5688,-0.613,-0.67,-0.6789,-0.7183,-0.7881,-0.811,-0.8174,-0.8383,-0.8932,-0.9645,-1.0335,-1.0192,-1.0135,-1.0291,-1.0149,-1.0148,-1.0374,-1.0406,-1.0406,-1.0487,-1.0735,-1.0738,-1.1209,-1.1303,-1.154,-1.1918,-1.2046,-1.2328,-1.2945,-1.3528,-1.4034,-1.443,-1.5089,-1.5576,-1.577,-1.5805,-1.5867,-1.6035,-1.6061,-1.6175,-1.6281,-1.6342,-1.6342,-1.6447,-1.6542,-1.6707,-1.6906,-1.7526,-1.8834,-2.0399,-2.086,-2.0967,-2.1033,-2.1238,-2.1362,-2.1385,-2.1259,-2.1224,-2.1259,-2.1429,-2.1495,-2.1962,-2.235,-2.2671,-2.2962,-2.3806,-2.436,-2.4805,-2.5553,-2.6384,-2.6511,-2.6649,-2.675,-2.725,-2.8202,-2.8605,-2.8675,-2.9011,-2.8879,-2.9275,-2.9289,-2.9446,-2.9446,-2.9415,-2.9415,-2.954,-2.9602,-2.9602,-2.9602,-2.9602,-2.9602,-2.9602,-2.9233,-2.8894,-2.8625,-2.8355,-2.7952,-2.7617,-2.8208,-2.8707,-2.8835,-2.8807,-2.8532,-2.8163,-2.7769,-2.7504,-2.7338,-2.7191,-2.7056,-0.4926,-0.5688,-0.5688,-0.5688,-0.5688,-0.5688,-0.5733,-0.5911,-0.5949,-0.5908,-0.6281,-0.6827,-0.7193,-0.7377,-0.7759,-0.8093,-0.8238,-0.8316,-0.8578,-0.9033,-0.9022,-0.9301,-0.9841,-0.996,-0.996,-1.0067,-1.0212,-1.0588,-1.085,-1.0999,-1.1117,-1.126,-1.1335,-1.1366,-1.1731,-1.2549,-1.2556,-1.2879,-1.4034,-1.5054,-1.5576,-1.5699,-1.5761,-1.5797,-1.5964,-1.6105,-1.614,-1.6167,-1.6237,-1.6272,-1.6307,-1.6751,-1.7398,-1.7638,-1.824,-1.9133,-1.9802,-2.0237,-2.0366,-2.0871,-2.1201,-2.1201,-2.1201,-2.1201,-2.1201,-2.1201,-2.1279,-2.1279,-2.1452,-2.1576,-2.1762,-2.21,-2.2519,-2.3215,-2.4017,-2.4675,-2.4987,-2.5135,-2.5235,-2.5327,-2.6047,-2.6859,-2.7301,-2.775,-2.8156,-2.862,-2.8976,-2.9097,-2.9226,-2.9129,-2.8986,-2.9039,-2.9188,-2.923,-2.8976,-2.9071,-2.9139,-2.9247,-2.8797,-2.827,-2.7771,-2.7347,-2.719,-2.7104,-2.7525,-2.7544,-2.7315,-2.7289,-2.7499,-2.7438,-2.7136,-2.6845,-2.6607,-2.6471,-2.6377,-0.3218,-0.4694,-0.4832,-0.5196,-0.5688,-0.5688,-0.5688,-0.5675,-0.5615,-0.5586,-0.5608,-0.5883,-0.6289,-0.6647,-0.6947,-0.7253,-0.7547,-0.7462,-0.7659,-0.7927,-0.8042,-0.8232,-0.8575,-0.9003,-0.9273,-0.9496,-0.9949,-1.0363,-1.0663,-1.0738,-1.0775,-1.0775,-1.0887,-1.0962,-1.1037,-1.1861,-1.2231,-1.2666,-1.3382,-1.4106,-1.4517,-1.4875,-1.5125,-1.5169,-1.5647,-1.5894,-1.5973,-1.5973,-1.6,-1.6035,-1.6105,-1.6342,-1.6716,-1.6855,-1.7132,-1.7389,-1.8152,-1.9023,-1.9987,-2.0732,-2.1031,-2.1201,-2.1201,-2.1201,-2.1201,-2.1201,-2.1201,-2.1213,-2.1213,-2.1201,-2.1296,-2.1639,-2.1934,-2.2402,-2.2847,-2.3151,-2.3567,-2.3617,-2.3708,-2.3784,-2.391,-2.4732,-2.56,-2.6334,-2.6778,-2.7252,-2.7727,-2.803,-2.8341,-2.8605,-2.846,-2.8291,-2.8502,-2.8744,-2.8371,-2.8176,-2.8115,-2.8099,-2.7722,-2.7207,-2.6674,-2.6288,-2.6085,-2.5589,-2.5339,-2.539,-2.5573,-2.6122,-2.6637,-2.6642,-2.6539,-2.614,-2.5753,-2.5787,-2.5671,-0.1341,-0.3035,-0.3534,-0.4162,-0.483,-0.512,-0.5196,-0.5227,-0.5427,-0.5462,-0.5472,-0.5418,-0.5662,-0.5965,-0.605,-0.6303,-0.6788,-0.6892,-0.7042,-0.708,-0.7195,-0.7349,-0.7732,-0.8194,-0.8466,-0.8651,-0.9344,-0.976,-0.9986,-1.0218,-1.0406,-1.0513,-1.0743,-1.0818,-1.1005,-1.1521,-1.1972,-1.2372,-1.2879,-1.3419,-1.3926,-1.4394,-1.4752,-1.5054,-1.5426,-1.5805,-1.5805,-1.5805,-1.5841,-1.5876,-1.5938,-1.6105,-1.6246,-1.6342,-1.6412,-1.6673,-1.7276,-1.8075,-1.9079,-1.989,-2.0592,-2.0892,-2.1169,-2.1201,-2.1201,-2.1201,-2.1201,-2.1201,-2.1201,-2.1201,-2.1265,-2.1514,-2.1612,-2.1812,-2.203,-2.2168,-2.2304,-2.2511,-2.2541,-2.2508,-2.258,-2.2611,-2.3567,-2.4651,-2.5349,-2.5831,-2.6329,-2.6849,-2.725,-2.7589,-2.7482,-2.7202,-2.7332,-2.7551,-2.7336,-2.7105,-2.7085,-2.6908,-2.6531,-2.6181,-2.5677,-2.5151,-2.4769,-2.4221,-2.3755,-2.4068,-2.4702,-2.5268,-2.5741,-2.5475,-2.5228,-2.5103,-2.4911,-2.4963,-2.4951,0.0358,-0.0715,-0.1785,-0.2319,-0.2583,-0.3502,-0.3952,-0.4074,-0.4964,-0.5335,-0.5349,-0.5292,-0.5177,-0.5179,-0.5283,-0.531,-0.5287,-0.5207,-0.5705,-0.6125,-0.6314,-0.6661,-0.7046,-0.7349,-0.7621,-0.777,-0.8461,-0.8813,-0.8965,-0.9458,-0.9949,-1.0481,-1.0513,-1.07,-1.085,-1.1074,-1.1558,-1.1892,-1.2254,-1.2945,-1.3665,-1.4279,-1.4645,-1.5284,-1.562,-1.577,-1.5805,-1.577,-1.5805,-1.5805,-1.5841,-1.5938,-1.6035,-1.6061,-1.614,-1.6342,-1.6768,-1.737,-1.7939,-1.8757,-1.9441,-2.0107,-2.07,-2.1074,-2.1106,-2.1169,-2.1201,-2.1201,-2.1201,-2.1201,-2.1201,-2.1253,-2.1348,-2.1431,-2.1557,-2.1588,-2.1651,-2.16,-2.1596,-2.1403,-2.1458,-2.1749,-2.1887,-2.3083,-2.3859,-2.4361,-2.4831,-2.5345,-2.5712,-2.6016,-2.6061,-2.598,-2.6002,-2.6062,-2.6031,-2.5908,-2.5748,-2.5547,-2.5235,-2.5064,-2.4802,-2.427,-2.3648,-2.3599,-2.3372,-2.3589,-2.3722,-2.4049,-2.4234,-2.4047,-2.3986,-2.4263,-2.4312,-2.4302,-2.4251,0.1048,0.0604,0.0172,-0.0867,-0.2189,-0.2787,-0.2931,-0.3004,-0.3981,-0.4763,-0.5116,-0.5102,-0.5059,-0.4987,-0.5018,-0.5018,-0.5018,-0.5018,-0.5246,-0.5323,-0.5553,-0.567,-0.6051,-0.6468,-0.67,-0.6892,-0.7506,-0.7965,-0.8042,-0.8461,-0.8423,-0.8874,-0.9793,-1.0325,-1.0481,-1.0625,-1.0962,-1.1074,-1.1223,-1.162,-1.1909,-1.2755,-1.3164,-1.3426,-1.4796,-1.4982,-1.5125,-1.5568,-1.5726,-1.5805,-1.577,-1.5867,-1.5938,-1.5938,-1.5973,-1.6008,-1.6403,-1.6533,-1.6906,-1.7833,-1.8911,-1.9497,-2.0128,-2.0571,-2.07,-2.0807,-2.0999,-2.1106,-2.1201,-2.1201,-2.1201,-2.1201,-2.1233,-2.1201,-2.1201,-2.1201,-2.1201,-2.1201,-2.1201,-2.1265,-2.1233,-2.1351,-2.1403,-2.1572,-2.2245,-2.2858,-2.335,-2.3822,-2.4233,-2.4497,-2.4586,-2.4638,-2.4658,-2.4557,-2.4519,-2.4427,-2.4377,-2.4184,-2.4003,-2.3917,-2.3762,-2.3235,-2.2761,-2.2818,-2.2927,-2.2907,-2.2895,-2.2823,-2.3011,-2.3384,-2.3649,-2.3878,-2.3842,-2.3697,-2.3625,0.1323,0.1305,0.1296,0.0379,-0.1155,-0.1636,-0.1786,-0.186,-0.2793,-0.354,-0.4073,-0.407,-0.4229,-0.4348,-0.4426,-0.4662,-0.4781,-0.4898,-0.494,-0.5018,-0.5057,-0.5018,-0.521,-0.5476,-0.586,-0.6051,-0.6626,-0.7122,-0.7119,-0.7387,-0.7655,-0.8075,-0.8689,-0.9301,-0.9911,-1.0293,-1.0475,-1.0513,-1.0513,-1.07,-1.0999,-1.1589,-1.2254,-1.2475,-1.3593,-1.3991,-1.4286,-1.4724,-1.5204,-1.539,-1.5549,-1.577,-1.5805,-1.5805,-1.5805,-1.5805,-1.5841,-1.5876,-1.6342,-1.7251,-1.8297,-1.8657,-1.9233,-1.9639,-1.9944,-2.0204,-2.0452,-2.0688,-2.0924,-2.1201,-2.1169,-2.1201,-2.1201,-2.1201,-2.1201,-2.1201,-2.1201,-2.1201,-2.1201,-2.1233,-2.1201,-2.1201,-2.1233,-2.1316,-2.1596,-2.2052,-2.2265,-2.2657,-2.2911,-2.3145,-2.3232,-2.3249,-2.3233,-2.3095,-2.295,-2.3059,-2.3119,-2.3123,-2.2926,-2.287,-2.2657,-2.2262,-2.2197,-2.2414,-2.2438,-2.2246,-2.2294,-2.245,-2.2751,-2.3119,-2.324,-2.3264,-2.3144,-2.2967,-2.3095,0.1347,0.1302,0.1316,0.1238,0.088,0.0041,-0.0365,-0.0526,-0.1507,-0.2077,-0.2308,-0.2267,-0.262,-0.3091,-0.3248,-0.3717,-0.4387,-0.4543,-0.4701,-0.4859,-0.4898,-0.494,-0.5018,-0.5132,-0.5246,-0.5249,-0.5783,-0.624,-0.6244,-0.6738,-0.7119,-0.7272,-0.7579,-0.8194,-0.8998,-0.9986,-1.0438,-1.0475,-1.0363,-1.0812,-1.118,-1.1403,-1.1805,-1.2241,-1.2762,-1.3011,-1.323,-1.3882,-1.4358,-1.4581,-1.5141,-1.5434,-1.5584,-1.5691,-1.5726,-1.5735,-1.577,-1.5805,-1.5911,-1.6881,-1.7379,-1.7653,-1.8263,-1.8677,-1.88,-1.9222,-1.9846,-2.002,-2.0484,-2.0955,-2.1126,-2.1138,-2.1074,-2.1042,-2.0999,-2.0999,-2.0967,-2.1074,-2.1031,-2.1074,-2.1169,-2.1201,-2.1201,-2.1233,-2.1285,-2.1423,-2.1431,-2.16,-2.1906,-2.2059,-2.2253,-2.2238,-2.2262,-2.2214,-2.2116,-2.1925,-2.191,-2.1926,-2.2036,-2.2096,-2.219,-2.2102,-2.2104,-2.2135,-2.1999,-2.1843,-2.1999,-2.2178,-2.221,-2.2177,-2.2423,-2.2438,-2.233,-2.2378,-2.2558,0.2117,0.2049,0.1515,0.1318,0.1245,0.0758,0.0596,0.0555,-0.0354,-0.1251,-0.1798,-0.1876,-0.1994,-0.2267,-0.2347,-0.2737,-0.3483,-0.368,-0.3837,-0.4504,-0.4543,-0.4701,-0.474,-0.4779,-0.4859,-0.5015,-0.5362,-0.5437,-0.5401,-0.5896,-0.586,-0.5899,-0.6507,-0.7119,-0.7965,-0.8846,-0.9306,-0.942,-0.976,-1.025,-1.0513,-1.0657,-1.0881,-1.1248,-1.1768,-1.2063,-1.2144,-1.2901,-1.3448,-1.3738,-1.4366,-1.4625,-1.4963,-1.5106,-1.5355,-1.5461,-1.5576,-1.5805,-1.5841,-1.6272,-1.6508,-1.6915,-1.7354,-1.7799,-1.8162,-1.8365,-1.8857,-1.9321,-1.9726,-2.0128,-2.0323,-2.0399,-2.0399,-2.0399,-2.0399,-2.0399,-2.0431,-2.0667,-2.0764,-2.0871,-2.0935,-2.1063,-2.1094,-2.1201,-2.1253,-2.1253,-2.1316,-2.1285,-2.1529,-2.1498,-2.1556,-2.1544,-2.1516,-2.1449,-2.136,-2.1466,-2.1517,-2.1635,-2.1679,-2.1702,-2.1761,-2.1906,-2.1874,-2.1874,-2.1655,-2.1486,-2.1675,-2.1726,-2.123,-2.1126,-2.1506,-2.1831,-2.191,-2.2059,-2.2294,0.3016,0.2901,0.2391,0.1961,0.1689,0.1218,0.114,0.1139,0.0549,-0.0157,-0.0665,-0.0744,-0.0978,-0.1134,-0.1291,-0.176,-0.2506,-0.2584,-0.2778,-0.356,-0.3873,-0.3954,-0.4112,-0.4426,-0.4623,-0.4779,-0.482,-0.4859,-0.4976,-0.4898,-0.5015,-0.5246,-0.5512,-0.6012,-0.6819,-0.7548,-0.8309,-0.8542,-0.896,-0.9458,-0.9647,-0.9841,-1.0143,-1.0363,-1.0663,-1.1037,-1.1298,-1.1848,-1.2542,-1.2901,-1.3266,-1.36,-1.4042,-1.4258,-1.4581,-1.4768,-1.5141,-1.5399,-1.5541,-1.5576,-1.5912,-1.6298,-1.6691,-1.6925,-1.7295,-1.7526,-1.7925,-1.8355,-1.879,-1.9156,-1.9464,-1.9562,-1.9562,-1.9562,-1.9562,-1.9562,-1.9671,-1.9868,-2.0096,-2.0226,-2.0495,-2.0656,-2.086,-2.1138,-2.1233,-2.1233,-2.1201,-2.1138,-2.1106,-2.1106,-2.1042,-2.0999,-2.1063,-2.1094,-2.1169,-2.1265,-2.1316,-2.1388,-2.1336,-2.1242,-2.1624,-2.1792,-2.1686,-2.1624,-2.1549,-2.1474,-2.1443,-2.1262,-2.0677,-2.0516,-2.0816,-2.1146,-2.1443,-2.1569,-2.1675,0.3832,0.3832,0.3793,0.3249,0.251,0.1804,0.1453,0.1375,0.1336,0.1256,0.1178,0.1021,0.0588,0.0078,0.0,-0.0587,-0.1371,-0.1528,-0.1801,-0.2151,-0.2738,-0.2935,-0.3288,-0.3679,-0.3954,-0.419,-0.4345,-0.4387,-0.4623,-0.474,-0.482,-0.4898,-0.5093,-0.5285,-0.5783,-0.6433,-0.7234,-0.7583,-0.8428,-0.8851,-0.9046,-0.9576,-0.9884,-1.003,-1.0143,-1.0218,-1.0443,-1.0925,-1.1329,-1.1768,-1.2248,-1.2755,-1.3047,-1.2974,-1.3382,-1.3861,-1.4338,-1.4669,-1.4919,-1.4947,-1.5311,-1.563,-1.5894,-1.5867,-1.614,-1.6682,-1.7079,-1.7482,-1.7881,-1.8186,-1.8499,-1.8533,-1.8543,-1.8533,-1.8523,-1.859,-1.8667,-1.8857,-1.9156,-1.9387,-1.9694,-1.989,-1.9987,-2.0302,-2.0495,-2.0399,-2.0334,-2.0431,-2.0463,-2.0839,-2.0732,-2.056,-2.0667,-2.086,-2.0903,-2.0667,-2.0603,-2.0473,-2.0741,-2.0784,-2.1233,-2.1308,-2.0935,-2.086,-2.138,-2.1273,-2.0387,-2.0096,-2.0031,-1.9998,-1.9868,-2.0334,-2.0592,-2.0624,-2.0656,0.4652,0.4611,0.4025,0.3638,0.3443,0.3171,0.2741,0.2198,0.2158,0.1884,0.1297,0.1297,0.1178,0.0942,0.0903,0.0314,-0.0157,-0.0548,-0.0979,-0.1331,-0.1683,-0.188,-0.2115,-0.2427,-0.2857,-0.3249,-0.3522,-0.3717,-0.4307,-0.4504,-0.4504,-0.4621,-0.4662,-0.4742,-0.4973,-0.5398,-0.6009,-0.6777,-0.7812,-0.828,-0.8699,-0.9268,-0.9576,-0.9765,-0.9771,-0.9809,-1.0067,-1.018,-1.0588,-1.1068,-1.1217,-1.1583,-1.2107,-1.2358,-1.2755,-1.312,-1.3455,-1.368,-1.3861,-1.4394,-1.4796,-1.4982,-1.5355,-1.577,-1.5911,-1.6,-1.6342,-1.6777,-1.701,-1.732,-1.756,-1.7638,-1.7638,-1.7628,-1.7619,-1.7653,-1.7799,-1.8094,-1.8355,-1.8556,-1.889,-1.898,-1.9123,-1.9255,-1.942,-1.9332,-1.9365,-1.9529,-1.9759,-2.0096,-2.0302,-2.0096,-1.9998,-2.0128,-1.9868,-1.9606,-1.9606,-1.9595,-1.989,-2.002,-1.9998,-1.9977,-1.9846,-1.9933,-2.0258,-1.9595,-1.8553,-1.862,-1.9077,-1.8677,-1.8543,-1.921,-1.9715,-1.9737,-1.9802,0.5741,0.5661,0.5154,0.4844,0.473,0.4419,0.3951,0.3483,0.3173,0.2547,0.1805,0.1806,0.161,0.1297,0.1218,0.0981,0.0549,0.047,0.0235,-0.0039,-0.0588,-0.0822,-0.0979,-0.1293,-0.1881,-0.2271,-0.2466,-0.2585,-0.3288,-0.3482,-0.3482,-0.3404,-0.3915,-0.4151,-0.4229,-0.454,-0.501,-0.5815,-0.6703,-0.751,-0.8084,-0.8575,-0.8998,-0.9387,-0.9425,-0.9539,-0.9841,-0.9846,-1.0105,-1.04,-1.0443,-1.0625,-1.1149,-1.1545,-1.1761,-1.2131,-1.2395,-1.2689,-1.2938,-1.3295,-1.3658,-1.4063,-1.4581,-1.4661,-1.5034,-1.524,-1.5771,-1.6272,-1.6307,-1.6412,-1.6621,-1.676,-1.676,-1.676,-1.676,-1.676,-1.7028,-1.7354,-1.755,-1.7755,-1.7915,-1.8041,-1.8176,-1.8311,-1.8523,-1.8734,-1.8734,-1.87,-1.89,-1.9199,-1.9441,-1.9441,-1.9309,-1.9243,-1.8944,-1.8811,-1.8967,-1.91,-1.9299,-1.9299,-1.9011,-1.9044,-1.9276,-1.9144,-1.9,-1.8418,-1.792,-1.7954,-1.8192,-1.7852,-1.7784,-1.8351,-1.8821,-1.8888,-1.8988,0.6938,0.6822,0.6714,0.6405,0.6219,0.5473,0.5157,0.5079,0.4414,0.3521,0.2784,0.2589,0.2275,0.1961,0.1883,0.1688,0.153,0.153,0.1529,0.1374,0.0705,0.0352,0.0078,-0.0588,-0.0901,-0.1097,-0.1332,-0.1566,-0.1684,-0.2074,-0.2308,-0.1916,-0.266,-0.3052,-0.3093,-0.3599,-0.3949,-0.4219,-0.519,-0.6044,-0.658,-0.7119,-0.7812,-0.847,-0.8699,-0.8889,-0.9539,-0.9765,-0.9841,-0.9884,-0.996,-1.0067,-1.0363,-1.07,-1.0844,-1.0999,-1.1366,-1.162,-1.1946,-1.2308,-1.2565,-1.2938,-1.3302,-1.3528,-1.3962,-1.474,-1.539,-1.5382,-1.5417,-1.5568,-1.578,-1.5947,-1.6017,-1.6096,-1.614,-1.6175,-1.6386,-1.6647,-1.6846,-1.7019,-1.7044,-1.7139,-1.7173,-1.731,-1.7413,-1.7891,-1.7959,-1.7765,-1.7891,-1.8128,-1.8321,-1.8499,-1.8442,-1.8341,-1.8375,-1.8307,-1.8509,-1.8677,-1.8677,-1.8576,-1.824,-1.8476,-1.8844,-1.8476,-1.807,-1.808,-1.7852,-1.7784,-1.7716,-1.7716,-1.7716,-1.7784,-1.7988,-1.8236,-1.8371,0.7433,0.6903,0.6865,0.6788,0.6749,0.6514,0.6433,0.6437,0.6279,0.5112,0.3715,0.3482,0.3365,0.3091,0.3013,0.2781,0.2392,0.2626,0.2704,0.2391,0.188,0.1722,0.1724,0.1019,0.0392,-0.0157,-0.0392,-0.0627,-0.1019,-0.1371,-0.1527,-0.1448,-0.1918,-0.2073,-0.1997,-0.2503,-0.2737,-0.2815,-0.3519,-0.4644,-0.5574,-0.6731,-0.7655,-0.7774,-0.7851,-0.8156,-0.8656,-0.8965,-0.9349,-0.9733,-0.9846,-0.9916,-0.9992,-1.0105,-1.0143,-1.0175,-1.0443,-1.0738,-1.0956,-1.136,-1.1768,-1.21,-1.2498,-1.2828,-1.3375,-1.4302,-1.4713,-1.4525,-1.4525,-1.4748,-1.4963,-1.5141,-1.5355,-1.547,-1.5584,-1.5655,-1.5735,-1.5938,-1.6132,-1.6167,-1.6202,-1.6228,-1.6298,-1.6368,-1.6377,-1.6412,-1.6377,-1.6342,-1.6499,-1.6698,-1.6853,-1.706,-1.7329,-1.7339,-1.751,-1.7672,-1.7833,-1.774,-1.7672,-1.7579,-1.751,-1.7706,-1.791,-1.7545,-1.721,-1.7382,-1.7476,-1.7373,-1.7339,-1.7476,-1.7579,-1.7647,-1.7828,-1.8042,-1.8042,0.8647,0.8228,0.8156,0.8042,0.7931,0.7587,0.7433,0.7357,0.7053,0.6279,0.519,0.4763,0.4414,0.4142,0.3988,0.3832,0.3327,0.3558,0.3404,0.3169,0.3132,0.3054,0.2821,0.2547,0.192,0.1292,0.0706,0.0274,-0.0196,-0.0196,-0.0157,-0.0314,-0.0665,-0.1017,-0.0979,-0.1291,-0.1565,-0.1722,-0.2193,-0.3049,-0.429,-0.5297,-0.6307,-0.6465,-0.6773,-0.7157,-0.7617,-0.7927,-0.8275,-0.8618,-0.8651,-0.8727,-0.8841,-0.9155,-0.9311,-0.9501,-0.9765,-1.0067,-1.0212,-1.0432,-1.0881,-1.1099,-1.1515,-1.1768,-1.1545,-1.2395,-1.339,-1.3346,-1.3564,-1.3789,-1.415,-1.4366,-1.4697,-1.4883,-1.4999,-1.5078,-1.5114,-1.5213,-1.5284,-1.5319,-1.5417,-1.5665,-1.5736,-1.5956,-1.6,-1.5885,-1.5718,-1.5382,-1.5453,-1.5417,-1.5542,-1.5719,-1.6044,-1.6577,-1.6959,-1.7028,-1.7063,-1.6934,-1.6726,-1.6934,-1.7063,-1.7003,-1.6943,-1.676,-1.676,-1.6978,-1.7003,-1.6821,-1.7063,-1.7314,-1.7407,-1.751,-1.7623,-1.7666,-1.7623,0.997,0.9895,0.9669,0.9518,0.9291,0.8647,0.8347,0.8232,0.7625,0.7361,0.7238,0.6542,0.5651,0.488,0.4533,0.4419,0.4416,0.4686,0.4375,0.4103,0.4064,0.4105,0.4027,0.3752,0.309,0.2545,0.2037,0.1648,0.1295,0.1256,0.1177,0.1256,0.0784,0.0196,0.0039,-0.0431,-0.0784,-0.0823,-0.1097,-0.1371,-0.2231,-0.3171,-0.4416,-0.5115,-0.5464,-0.5848,-0.6461,-0.6846,-0.6969,-0.731,-0.7536,-0.7613,-0.7766,-0.8114,-0.8271,-0.8461,-0.8765,-0.9112,-0.9344,-0.9301,-0.9496,-0.9722,-1.0212,-1.04,-1.0175,-1.0732,-1.1731,-1.2174,-1.2388,-1.2872,-1.3193,-1.3564,-1.3897,-1.4158,-1.4266,-1.4382,-1.4382,-1.4382,-1.4382,-1.4382,-1.4597,-1.484,-1.5026,-1.5248,-1.5319,-1.5284,-1.5133,-1.4867,-1.4609,-1.451,-1.4466,-1.4681,-1.4966,-1.5542,-1.6105,-1.6175,-1.607,-1.6079,-1.5974,-1.6368,-1.6517,-1.6184,-1.6079,-1.6298,-1.6368,-1.6298,-1.6298,-1.6149,-1.6533,-1.6821,-1.6638,-1.6524,-1.6698,-1.6768,-1.701,1.0464,0.989,0.9857,0.982,0.9782,0.9588,0.9556,0.9513,0.9362,0.9324,0.9097,0.9021,0.8181,0.6433,0.6398,0.6125,0.5616,0.5848,0.5657,0.5351,0.5345,0.5309,0.4999,0.4533,0.3947,0.3558,0.3248,0.2937,0.2508,0.2353,0.2275,0.2234,0.1531,0.1373,0.1842,0.1333,0.0784,0.0627,0.0157,-0.0157,-0.0861,-0.1879,-0.3093,-0.3795,-0.4265,-0.4999,-0.5619,-0.5854,-0.6314,-0.6654,-0.6804,-0.6765,-0.6881,-0.7034,-0.7191,-0.7345,-0.7647,-0.7842,-0.8037,-0.8075,-0.8156,-0.8271,-0.8723,-0.9112,-0.915,-0.9528,-1.0233,-1.0464,-1.087,-1.1657,-1.2094,-1.2425,-1.2755,-1.2938,-1.3055,-1.32,-1.328,-1.3273,-1.3273,-1.331,-1.3382,-1.352,-1.3557,-1.3781,-1.3926,-1.3926,-1.397,-1.3709,-1.3709,-1.3564,-1.3419,-1.36,-1.3854,-1.4207,-1.4629,-1.4914,-1.4922,-1.5029,-1.518,-1.5428,-1.5428,-1.5073,-1.5073,-1.5507,-1.5357,-1.5144,-1.518,-1.5507,-1.5428,-1.5604,-1.5392,-1.5321,-1.5604,-1.5842,-1.6053]}]]